<?xml version="1.0" encoding="UTF-8" standalone="no" ?>
<gpx xmlns="http://www.topografix.com/GPX/1/1" xmlns:xsi="http://www.w3.org/2001/XMLSchema-instance" xsi:schemaLocation="http://www.topografix.com/GPX/1/1 http://www.topografix.com/GPX/1/1/gpx.xsd" version="1.1" creator="VisuGPX - https://www.visugpx.com">
  <metadata>
    <name>Trec à cheval autour de Lissieu J1</name>
    <desc><![CDATA[Trec à 4 chevaux et 1 poney. 
Départ de Lissieu, haras du Bois Dieu.
Arrivée La Poya.
Belle randonnée.]]></desc>
  </metadata>
  <trk>
    <name><![CDATA[Trec cheval]]></name>
    <trkseg>
      <trkpt lat="45.84902" lon="4.74355">
        <ele>300.79998779297</ele>
        <time>2014-04-19T06:54:03.000Z</time>
      </trkpt>
      <trkpt lat="45.84902" lon="4.74355">
        <ele>300.79998779297</ele>
        <time>2014-04-19T06:54:04.000Z</time>
      </trkpt>
      <trkpt lat="45.84937" lon="4.74331">
        <ele>300.79998779297</ele>
        <time>2014-04-19T06:55:22.000Z</time>
      </trkpt>
      <trkpt lat="45.84941" lon="4.74328">
        <ele>300.79998779297</ele>
        <time>2014-04-19T06:55:25.000Z</time>
      </trkpt>
      <trkpt lat="45.84956" lon="4.74318">
        <ele>300.79998779297</ele>
        <time>2014-04-19T06:55:37.000Z</time>
      </trkpt>
      <trkpt lat="45.84974" lon="4.74308">
        <ele>300.79998779297</ele>
        <time>2014-04-19T06:55:50.000Z</time>
      </trkpt>
      <trkpt lat="45.84988" lon="4.74299">
        <ele>300.79998779297</ele>
        <time>2014-04-19T06:56:01.000Z</time>
      </trkpt>
      <trkpt lat="45.85002" lon="4.7429">
        <ele>301.20001220703</ele>
        <time>2014-04-19T06:56:12.000Z</time>
      </trkpt>
      <trkpt lat="45.85011" lon="4.7428">
        <ele>301.39999389648</ele>
        <time>2014-04-19T06:56:21.000Z</time>
      </trkpt>
      <trkpt lat="45.85013" lon="4.74278">
        <ele>301.39999389648</ele>
        <time>2014-04-19T06:56:23.000Z</time>
      </trkpt>
      <trkpt lat="45.85017" lon="4.74273">
        <ele>301.39999389648</ele>
        <time>2014-04-19T06:56:26.000Z</time>
      </trkpt>
      <trkpt lat="45.85019" lon="4.74271">
        <ele>301.39999389648</ele>
        <time>2014-04-19T06:56:27.000Z</time>
      </trkpt>
      <trkpt lat="45.85029" lon="4.74259">
        <ele>301.60000610352</ele>
        <time>2014-04-19T06:56:35.000Z</time>
      </trkpt>
      <trkpt lat="45.85037" lon="4.7425">
        <ele>301.60000610352</ele>
        <time>2014-04-19T06:56:43.000Z</time>
      </trkpt>
      <trkpt lat="45.85044" lon="4.7424">
        <ele>301.79998779297</ele>
        <time>2014-04-19T06:56:50.000Z</time>
      </trkpt>
      <trkpt lat="45.85053" lon="4.7423">
        <ele>301.79998779297</ele>
        <time>2014-04-19T06:56:58.000Z</time>
      </trkpt>
      <trkpt lat="45.85066" lon="4.74216">
        <ele>302</ele>
        <time>2014-04-19T06:57:10.000Z</time>
      </trkpt>
      <trkpt lat="45.85079" lon="4.74204">
        <ele>301.79998779297</ele>
        <time>2014-04-19T06:57:22.000Z</time>
      </trkpt>
      <trkpt lat="45.85093" lon="4.74192">
        <ele>301.39999389648</ele>
        <time>2014-04-19T06:57:33.000Z</time>
      </trkpt>
      <trkpt lat="45.85107" lon="4.74187">
        <ele>301.20001220703</ele>
        <time>2014-04-19T06:57:42.000Z</time>
      </trkpt>
      <trkpt lat="45.85123" lon="4.74181">
        <ele>300.79998779297</ele>
        <time>2014-04-19T06:57:53.000Z</time>
      </trkpt>
      <trkpt lat="45.85139" lon="4.74174">
        <ele>300.39999389648</ele>
        <time>2014-04-19T06:58:05.000Z</time>
      </trkpt>
      <trkpt lat="45.85153" lon="4.74166">
        <ele>300</ele>
        <time>2014-04-19T06:58:16.000Z</time>
      </trkpt>
      <trkpt lat="45.85168" lon="4.74158">
        <ele>299.39999389648</ele>
        <time>2014-04-19T06:58:28.000Z</time>
      </trkpt>
      <trkpt lat="45.85176" lon="4.7415">
        <ele>298.79998779297</ele>
        <time>2014-04-19T06:58:36.000Z</time>
      </trkpt>
      <trkpt lat="45.8519" lon="4.74135">
        <ele>298</ele>
        <time>2014-04-19T06:58:48.000Z</time>
      </trkpt>
      <trkpt lat="45.85199" lon="4.74127">
        <ele>297.39999389648</ele>
        <time>2014-04-19T06:58:56.000Z</time>
      </trkpt>
      <trkpt lat="45.85211" lon="4.74112">
        <ele>296.60000610352</ele>
        <time>2014-04-19T06:59:06.000Z</time>
      </trkpt>
      <trkpt lat="45.8522" lon="4.74096">
        <ele>295.79998779297</ele>
        <time>2014-04-19T06:59:16.000Z</time>
      </trkpt>
      <trkpt lat="45.85232" lon="4.74073">
        <ele>294.60000610352</ele>
        <time>2014-04-19T06:59:29.000Z</time>
      </trkpt>
      <trkpt lat="45.85242" lon="4.74058">
        <ele>293.79998779297</ele>
        <time>2014-04-19T06:59:39.000Z</time>
      </trkpt>
      <trkpt lat="45.85253" lon="4.74037">
        <ele>292.79998779297</ele>
        <time>2014-04-19T06:59:51.000Z</time>
      </trkpt>
      <trkpt lat="45.85258" lon="4.74027">
        <ele>292.20001220703</ele>
        <time>2014-04-19T06:59:57.000Z</time>
      </trkpt>
      <trkpt lat="45.85267" lon="4.74009">
        <ele>291.20001220703</ele>
        <time>2014-04-19T07:00:08.000Z</time>
      </trkpt>
      <trkpt lat="45.85278" lon="4.73987">
        <ele>290</ele>
        <time>2014-04-19T07:00:21.000Z</time>
      </trkpt>
      <trkpt lat="45.85286" lon="4.73981">
        <ele>289.60000610352</ele>
        <time>2014-04-19T07:00:27.000Z</time>
      </trkpt>
      <trkpt lat="45.85295" lon="4.73985">
        <ele>289.20001220703</ele>
        <time>2014-04-19T07:00:31.000Z</time>
      </trkpt>
      <trkpt lat="45.85313" lon="4.73991">
        <ele>288.79998779297</ele>
        <time>2014-04-19T07:00:38.000Z</time>
      </trkpt>
      <trkpt lat="45.8533" lon="4.73991">
        <ele>288.39999389648</ele>
        <time>2014-04-19T07:00:45.000Z</time>
      </trkpt>
      <trkpt lat="45.85347" lon="4.73991">
        <ele>288</ele>
        <time>2014-04-19T07:00:53.000Z</time>
      </trkpt>
      <trkpt lat="45.8536" lon="4.73993">
        <ele>287.79998779297</ele>
        <time>2014-04-19T07:01:01.000Z</time>
      </trkpt>
      <trkpt lat="45.85368" lon="4.73997">
        <ele>287.60000610352</ele>
        <time>2014-04-19T07:01:08.000Z</time>
      </trkpt>
      <trkpt lat="45.8538" lon="4.74003">
        <ele>287.39999389648</ele>
        <time>2014-04-19T07:01:15.000Z</time>
      </trkpt>
      <trkpt lat="45.85388" lon="4.74008">
        <ele>287.20001220703</ele>
        <time>2014-04-19T07:01:20.000Z</time>
      </trkpt>
      <trkpt lat="45.85396" lon="4.74012">
        <ele>287.20001220703</ele>
        <time>2014-04-19T07:01:26.000Z</time>
      </trkpt>
      <trkpt lat="45.85403" lon="4.74019">
        <ele>287.20001220703</ele>
        <time>2014-04-19T07:01:32.000Z</time>
      </trkpt>
      <trkpt lat="45.8541" lon="4.74025">
        <ele>287.39999389648</ele>
        <time>2014-04-19T07:01:38.000Z</time>
      </trkpt>
      <trkpt lat="45.85421" lon="4.7403">
        <ele>287.20001220703</ele>
        <time>2014-04-19T07:01:46.000Z</time>
      </trkpt>
      <trkpt lat="45.85429" lon="4.74032">
        <ele>287</ele>
        <time>2014-04-19T07:01:52.000Z</time>
      </trkpt>
      <trkpt lat="45.85441" lon="4.74029">
        <ele>286.79998779297</ele>
        <time>2014-04-19T07:02:01.000Z</time>
      </trkpt>
      <trkpt lat="45.85458" lon="4.74024">
        <ele>286.39999389648</ele>
        <time>2014-04-19T07:02:10.000Z</time>
      </trkpt>
      <trkpt lat="45.8547" lon="4.74019">
        <ele>286.39999389648</ele>
        <time>2014-04-19T07:02:17.000Z</time>
      </trkpt>
      <trkpt lat="45.85478" lon="4.74014">
        <ele>286.39999389648</ele>
        <time>2014-04-19T07:02:25.000Z</time>
      </trkpt>
      <trkpt lat="45.85479" lon="4.74014">
        <ele>286.39999389648</ele>
        <time>2014-04-19T07:02:26.000Z</time>
      </trkpt>
      <trkpt lat="45.8548" lon="4.74013">
        <ele>286.60000610352</ele>
        <time>2014-04-19T07:02:29.000Z</time>
      </trkpt>
      <trkpt lat="45.85494" lon="4.74002">
        <ele>286.79998779297</ele>
        <time>2014-04-19T07:02:42.000Z</time>
      </trkpt>
      <trkpt lat="45.85504" lon="4.73993">
        <ele>286.79998779297</ele>
        <time>2014-04-19T07:02:52.000Z</time>
      </trkpt>
      <trkpt lat="45.85518" lon="4.73986">
        <ele>286.39999389648</ele>
        <time>2014-04-19T07:03:04.000Z</time>
      </trkpt>
      <trkpt lat="45.85519" lon="4.73985">
        <ele>286.39999389648</ele>
        <time>2014-04-19T07:03:05.000Z</time>
      </trkpt>
      <trkpt lat="45.85523" lon="4.73984">
        <ele>286.20001220703</ele>
        <time>2014-04-19T07:03:08.000Z</time>
      </trkpt>
      <trkpt lat="45.8553" lon="4.7398">
        <ele>285.79998779297</ele>
        <time>2014-04-19T07:03:16.000Z</time>
      </trkpt>
      <trkpt lat="45.85539" lon="4.73978">
        <ele>285</ele>
        <time>2014-04-19T07:03:24.000Z</time>
      </trkpt>
      <trkpt lat="45.85541" lon="4.73978">
        <ele>284.79998779297</ele>
        <time>2014-04-19T07:03:26.000Z</time>
      </trkpt>
      <trkpt lat="45.85546" lon="4.73976">
        <ele>284.20001220703</ele>
        <time>2014-04-19T07:03:31.000Z</time>
      </trkpt>
      <trkpt lat="45.85547" lon="4.73976">
        <ele>284</ele>
        <time>2014-04-19T07:03:32.000Z</time>
      </trkpt>
      <trkpt lat="45.85557" lon="4.73972">
        <ele>282.79998779297</ele>
        <time>2014-04-19T07:03:41.000Z</time>
      </trkpt>
      <trkpt lat="45.85564" lon="4.73972">
        <ele>281.79998779297</ele>
        <time>2014-04-19T07:03:47.000Z</time>
      </trkpt>
      <trkpt lat="45.85575" lon="4.73971">
        <ele>280.39999389648</ele>
        <time>2014-04-19T07:03:56.000Z</time>
      </trkpt>
      <trkpt lat="45.85583" lon="4.73969">
        <ele>279.20001220703</ele>
        <time>2014-04-19T07:04:04.000Z</time>
      </trkpt>
      <trkpt lat="45.85596" lon="4.73967">
        <ele>277.79998779297</ele>
        <time>2014-04-19T07:04:14.000Z</time>
      </trkpt>
      <trkpt lat="45.85611" lon="4.73965">
        <ele>276.39999389648</ele>
        <time>2014-04-19T07:04:25.000Z</time>
      </trkpt>
      <trkpt lat="45.85624" lon="4.73963">
        <ele>275.60000610352</ele>
        <time>2014-04-19T07:04:33.000Z</time>
      </trkpt>
      <trkpt lat="45.85637" lon="4.7396">
        <ele>274.39999389648</ele>
        <time>2014-04-19T07:04:43.000Z</time>
      </trkpt>
      <trkpt lat="45.8565" lon="4.73959">
        <ele>273.39999389648</ele>
        <time>2014-04-19T07:04:52.000Z</time>
      </trkpt>
      <trkpt lat="45.85663" lon="4.73959">
        <ele>272.20001220703</ele>
        <time>2014-04-19T07:05:02.000Z</time>
      </trkpt>
      <trkpt lat="45.85669" lon="4.73959">
        <ele>271.60000610352</ele>
        <time>2014-04-19T07:05:07.000Z</time>
      </trkpt>
      <trkpt lat="45.85679" lon="4.73958">
        <ele>270.79998779297</ele>
        <time>2014-04-19T07:05:14.000Z</time>
      </trkpt>
      <trkpt lat="45.85689" lon="4.73956">
        <ele>269.79998779297</ele>
        <time>2014-04-19T07:05:22.000Z</time>
      </trkpt>
      <trkpt lat="45.85703" lon="4.73954">
        <ele>268.39999389648</ele>
        <time>2014-04-19T07:05:33.000Z</time>
      </trkpt>
      <trkpt lat="45.8571" lon="4.73953">
        <ele>267.60000610352</ele>
        <time>2014-04-19T07:05:39.000Z</time>
      </trkpt>
      <trkpt lat="45.85723" lon="4.73955">
        <ele>266.60000610352</ele>
        <time>2014-04-19T07:05:48.000Z</time>
      </trkpt>
      <trkpt lat="45.85732" lon="4.73956">
        <ele>265.60000610352</ele>
        <time>2014-04-19T07:05:55.000Z</time>
      </trkpt>
      <trkpt lat="45.85743" lon="4.73956">
        <ele>264.60000610352</ele>
        <time>2014-04-19T07:06:03.000Z</time>
      </trkpt>
      <trkpt lat="45.85747" lon="4.73955">
        <ele>264.20001220703</ele>
        <time>2014-04-19T07:06:06.000Z</time>
      </trkpt>
      <trkpt lat="45.85748" lon="4.73953">
        <ele>263.79998779297</ele>
        <time>2014-04-19T07:06:08.000Z</time>
      </trkpt>
      <trkpt lat="45.85749" lon="4.73949">
        <ele>263.60000610352</ele>
        <time>2014-04-19T07:06:10.000Z</time>
      </trkpt>
      <trkpt lat="45.85743" lon="4.73942">
        <ele>262.79998779297</ele>
        <time>2014-04-19T07:06:15.000Z</time>
      </trkpt>
      <trkpt lat="45.85742" lon="4.7394">
        <ele>262.60000610352</ele>
        <time>2014-04-19T07:06:16.000Z</time>
      </trkpt>
      <trkpt lat="45.85729" lon="4.73926">
        <ele>261.60000610352</ele>
        <time>2014-04-19T07:06:24.000Z</time>
      </trkpt>
      <trkpt lat="45.85717" lon="4.73914">
        <ele>260.60000610352</ele>
        <time>2014-04-19T07:06:32.000Z</time>
      </trkpt>
      <trkpt lat="45.8571" lon="4.73899">
        <ele>259.39999389648</ele>
        <time>2014-04-19T07:06:42.000Z</time>
      </trkpt>
      <trkpt lat="45.85715" lon="4.73898">
        <ele>258.79998779297</ele>
        <time>2014-04-19T07:06:47.000Z</time>
      </trkpt>
      <trkpt lat="45.85718" lon="4.739">
        <ele>258.39999389648</ele>
        <time>2014-04-19T07:06:49.000Z</time>
      </trkpt>
      <trkpt lat="45.85726" lon="4.73907">
        <ele>257.79998779297</ele>
        <time>2014-04-19T07:06:55.000Z</time>
      </trkpt>
      <trkpt lat="45.85736" lon="4.73918">
        <ele>256.60000610352</ele>
        <time>2014-04-19T07:07:04.000Z</time>
      </trkpt>
      <trkpt lat="45.85743" lon="4.73925">
        <ele>255.80000305176</ele>
        <time>2014-04-19T07:07:11.000Z</time>
      </trkpt>
      <trkpt lat="45.85743" lon="4.73924">
        <ele>255.60000610352</ele>
        <time>2014-04-19T07:07:12.000Z</time>
      </trkpt>
      <trkpt lat="45.85754" lon="4.73933">
        <ele>249.80000305176</ele>
        <time>2014-04-19T07:08:35.000Z</time>
      </trkpt>
      <trkpt lat="45.85755" lon="4.73934">
        <ele>249.80000305176</ele>
        <time>2014-04-19T07:08:37.000Z</time>
      </trkpt>
      <trkpt lat="45.85757" lon="4.73936">
        <ele>249.60000610352</ele>
        <time>2014-04-19T07:08:39.000Z</time>
      </trkpt>
      <trkpt lat="45.85759" lon="4.73937">
        <ele>249.60000610352</ele>
        <time>2014-04-19T07:08:40.000Z</time>
      </trkpt>
      <trkpt lat="45.8576" lon="4.73938">
        <ele>249.60000610352</ele>
        <time>2014-04-19T07:08:41.000Z</time>
      </trkpt>
      <trkpt lat="45.85766" lon="4.7394">
        <ele>249.39999389648</ele>
        <time>2014-04-19T07:08:45.000Z</time>
      </trkpt>
      <trkpt lat="45.85772" lon="4.73943">
        <ele>249</ele>
        <time>2014-04-19T07:08:51.000Z</time>
      </trkpt>
      <trkpt lat="45.85779" lon="4.73948">
        <ele>248.39999389648</ele>
        <time>2014-04-19T07:08:58.000Z</time>
      </trkpt>
      <trkpt lat="45.85783" lon="4.7395">
        <ele>248.19999694824</ele>
        <time>2014-04-19T07:09:01.000Z</time>
      </trkpt>
      <trkpt lat="45.85789" lon="4.73956">
        <ele>247.60000610352</ele>
        <time>2014-04-19T07:09:08.000Z</time>
      </trkpt>
      <trkpt lat="45.85791" lon="4.73956">
        <ele>247.39999389648</ele>
        <time>2014-04-19T07:09:09.000Z</time>
      </trkpt>
      <trkpt lat="45.85792" lon="4.73957">
        <ele>247.39999389648</ele>
        <time>2014-04-19T07:09:10.000Z</time>
      </trkpt>
      <trkpt lat="45.85801" lon="4.73959">
        <ele>247</ele>
        <time>2014-04-19T07:09:16.000Z</time>
      </trkpt>
      <trkpt lat="45.85802" lon="4.7396">
        <ele>246.80000305176</ele>
        <time>2014-04-19T07:09:17.000Z</time>
      </trkpt>
      <trkpt lat="45.85809" lon="4.73965">
        <ele>246.39999389648</ele>
        <time>2014-04-19T07:09:22.000Z</time>
      </trkpt>
      <trkpt lat="45.85814" lon="4.73968">
        <ele>245.80000305176</ele>
        <time>2014-04-19T07:09:27.000Z</time>
      </trkpt>
      <trkpt lat="45.8582" lon="4.73971">
        <ele>245.19999694824</ele>
        <time>2014-04-19T07:09:34.000Z</time>
      </trkpt>
      <trkpt lat="45.8582" lon="4.73972">
        <ele>245.19999694824</ele>
        <time>2014-04-19T07:09:35.000Z</time>
      </trkpt>
      <trkpt lat="45.85814" lon="4.73948">
        <ele>244.39999389648</ele>
        <time>2014-04-19T07:10:15.000Z</time>
      </trkpt>
      <trkpt lat="45.85811" lon="4.73944">
        <ele>244.60000610352</ele>
        <time>2014-04-19T07:10:17.000Z</time>
      </trkpt>
      <trkpt lat="45.85802" lon="4.73937">
        <ele>245.19999694824</ele>
        <time>2014-04-19T07:10:25.000Z</time>
      </trkpt>
      <trkpt lat="45.85802" lon="4.73934">
        <ele>245.19999694824</ele>
        <time>2014-04-19T07:10:27.000Z</time>
      </trkpt>
      <trkpt lat="45.85807" lon="4.73928">
        <ele>245</ele>
        <time>2014-04-19T07:10:30.000Z</time>
      </trkpt>
      <trkpt lat="45.85815" lon="4.73922">
        <ele>244.60000610352</ele>
        <time>2014-04-19T07:10:37.000Z</time>
      </trkpt>
      <trkpt lat="45.85816" lon="4.73921">
        <ele>244.39999389648</ele>
        <time>2014-04-19T07:10:38.000Z</time>
      </trkpt>
      <trkpt lat="45.85823" lon="4.73913">
        <ele>243.80000305176</ele>
        <time>2014-04-19T07:10:46.000Z</time>
      </trkpt>
      <trkpt lat="45.85833" lon="4.73907">
        <ele>243</ele>
        <time>2014-04-19T07:10:55.000Z</time>
      </trkpt>
      <trkpt lat="45.85833" lon="4.73905">
        <ele>243</ele>
        <time>2014-04-19T07:10:57.000Z</time>
      </trkpt>
      <trkpt lat="45.85833" lon="4.73905">
        <ele>243</ele>
        <time>2014-04-19T07:10:58.000Z</time>
      </trkpt>
      <trkpt lat="45.85852" lon="4.73899">
        <ele>239</ele>
        <time>2014-04-19T07:14:58.000Z</time>
      </trkpt>
      <trkpt lat="45.85854" lon="4.73898">
        <ele>239</ele>
        <time>2014-04-19T07:14:59.000Z</time>
      </trkpt>
      <trkpt lat="45.85861" lon="4.73894">
        <ele>238.80000305176</ele>
        <time>2014-04-19T07:15:05.000Z</time>
      </trkpt>
      <trkpt lat="45.85872" lon="4.7389">
        <ele>238.80000305176</ele>
        <time>2014-04-19T07:15:13.000Z</time>
      </trkpt>
      <trkpt lat="45.85885" lon="4.73889">
        <ele>239</ele>
        <time>2014-04-19T07:15:22.000Z</time>
      </trkpt>
      <trkpt lat="45.85897" lon="4.73888">
        <ele>239.80000305176</ele>
        <time>2014-04-19T07:15:31.000Z</time>
      </trkpt>
      <trkpt lat="45.85905" lon="4.73889">
        <ele>240.80000305176</ele>
        <time>2014-04-19T07:15:38.000Z</time>
      </trkpt>
      <trkpt lat="45.85917" lon="4.7389">
        <ele>241.60000610352</ele>
        <time>2014-04-19T07:15:47.000Z</time>
      </trkpt>
      <trkpt lat="45.85925" lon="4.73891">
        <ele>242.60000610352</ele>
        <time>2014-04-19T07:15:54.000Z</time>
      </trkpt>
      <trkpt lat="45.85939" lon="4.73894">
        <ele>244.19999694824</ele>
        <time>2014-04-19T07:16:05.000Z</time>
      </trkpt>
      <trkpt lat="45.85951" lon="4.73893">
        <ele>244.80000305176</ele>
        <time>2014-04-19T07:16:11.000Z</time>
      </trkpt>
      <trkpt lat="45.85963" lon="4.73892">
        <ele>245.60000610352</ele>
        <time>2014-04-19T07:16:17.000Z</time>
      </trkpt>
      <trkpt lat="45.85972" lon="4.7389">
        <ele>246.60000610352</ele>
        <time>2014-04-19T07:16:24.000Z</time>
      </trkpt>
      <trkpt lat="45.85981" lon="4.73889">
        <ele>247.60000610352</ele>
        <time>2014-04-19T07:16:31.000Z</time>
      </trkpt>
      <trkpt lat="45.85982" lon="4.73889">
        <ele>247.60000610352</ele>
        <time>2014-04-19T07:16:32.000Z</time>
      </trkpt>
      <trkpt lat="45.85991" lon="4.73889">
        <ele>248</ele>
        <time>2014-04-19T07:16:39.000Z</time>
      </trkpt>
      <trkpt lat="45.85992" lon="4.7389">
        <ele>248.19999694824</ele>
        <time>2014-04-19T07:16:40.000Z</time>
      </trkpt>
      <trkpt lat="45.86008" lon="4.73896">
        <ele>248.19999694824</ele>
        <time>2014-04-19T07:16:51.000Z</time>
      </trkpt>
      <trkpt lat="45.86018" lon="4.73899">
        <ele>248</ele>
        <time>2014-04-19T07:16:59.000Z</time>
      </trkpt>
      <trkpt lat="45.86031" lon="4.73903">
        <ele>248.19999694824</ele>
        <time>2014-04-19T07:17:10.000Z</time>
      </trkpt>
      <trkpt lat="45.86041" lon="4.73902">
        <ele>248.19999694824</ele>
        <time>2014-04-19T07:17:19.000Z</time>
      </trkpt>
      <trkpt lat="45.86049" lon="4.73904">
        <ele>248.39999389648</ele>
        <time>2014-04-19T07:17:27.000Z</time>
      </trkpt>
      <trkpt lat="45.86052" lon="4.73903">
        <ele>248.19999694824</ele>
        <time>2014-04-19T07:17:30.000Z</time>
      </trkpt>
      <trkpt lat="45.86055" lon="4.73904">
        <ele>248.19999694824</ele>
        <time>2014-04-19T07:17:33.000Z</time>
      </trkpt>
      <trkpt lat="45.86087" lon="4.73913">
        <ele>248.60000610352</ele>
        <time>2014-04-19T07:18:09.000Z</time>
      </trkpt>
      <trkpt lat="45.86096" lon="4.73913">
        <ele>248.19999694824</ele>
        <time>2014-04-19T07:18:18.000Z</time>
      </trkpt>
      <trkpt lat="45.86109" lon="4.7392">
        <ele>247.19999694824</ele>
        <time>2014-04-19T07:18:29.000Z</time>
      </trkpt>
      <trkpt lat="45.86115" lon="4.73922">
        <ele>246.80000305176</ele>
        <time>2014-04-19T07:18:34.000Z</time>
      </trkpt>
      <trkpt lat="45.86126" lon="4.73931">
        <ele>246</ele>
        <time>2014-04-19T07:18:43.000Z</time>
      </trkpt>
      <trkpt lat="45.86129" lon="4.73945">
        <ele>245.39999389648</ele>
        <time>2014-04-19T07:18:50.000Z</time>
      </trkpt>
      <trkpt lat="45.86131" lon="4.73961">
        <ele>244.80000305176</ele>
        <time>2014-04-19T07:18:58.000Z</time>
      </trkpt>
      <trkpt lat="45.86134" lon="4.73979">
        <ele>243.80000305176</ele>
        <time>2014-04-19T07:19:08.000Z</time>
      </trkpt>
      <trkpt lat="45.86136" lon="4.73993">
        <ele>243.19999694824</ele>
        <time>2014-04-19T07:19:15.000Z</time>
      </trkpt>
      <trkpt lat="45.86139" lon="4.74015">
        <ele>242.19999694824</ele>
        <time>2014-04-19T07:19:26.000Z</time>
      </trkpt>
      <trkpt lat="45.86141" lon="4.74031">
        <ele>241.80000305176</ele>
        <time>2014-04-19T07:19:32.000Z</time>
      </trkpt>
      <trkpt lat="45.86145" lon="4.74052">
        <ele>241.60000610352</ele>
        <time>2014-04-19T07:19:38.000Z</time>
      </trkpt>
      <trkpt lat="45.86152" lon="4.74064">
        <ele>241.19999694824</ele>
        <time>2014-04-19T07:19:45.000Z</time>
      </trkpt>
      <trkpt lat="45.8616" lon="4.74075">
        <ele>240.60000610352</ele>
        <time>2014-04-19T07:19:52.000Z</time>
      </trkpt>
      <trkpt lat="45.86172" lon="4.74082">
        <ele>240.39999389648</ele>
        <time>2014-04-19T07:19:59.000Z</time>
      </trkpt>
      <trkpt lat="45.86185" lon="4.74079">
        <ele>239.80000305176</ele>
        <time>2014-04-19T07:20:08.000Z</time>
      </trkpt>
      <trkpt lat="45.86198" lon="4.74078">
        <ele>239.19999694824</ele>
        <time>2014-04-19T07:20:16.000Z</time>
      </trkpt>
      <trkpt lat="45.86213" lon="4.74076">
        <ele>238.39999389648</ele>
        <time>2014-04-19T07:20:24.000Z</time>
      </trkpt>
      <trkpt lat="45.86225" lon="4.74073">
        <ele>237.80000305176</ele>
        <time>2014-04-19T07:20:31.000Z</time>
      </trkpt>
      <trkpt lat="45.86233" lon="4.74074">
        <ele>237.19999694824</ele>
        <time>2014-04-19T07:20:37.000Z</time>
      </trkpt>
      <trkpt lat="45.86244" lon="4.74075">
        <ele>236.60000610352</ele>
        <time>2014-04-19T07:20:45.000Z</time>
      </trkpt>
      <trkpt lat="45.86255" lon="4.74074">
        <ele>236</ele>
        <time>2014-04-19T07:20:53.000Z</time>
      </trkpt>
      <trkpt lat="45.86266" lon="4.74073">
        <ele>235.39999389648</ele>
        <time>2014-04-19T07:21:01.000Z</time>
      </trkpt>
      <trkpt lat="45.86277" lon="4.74071">
        <ele>234.80000305176</ele>
        <time>2014-04-19T07:21:08.000Z</time>
      </trkpt>
      <trkpt lat="45.86288" lon="4.7407">
        <ele>234.19999694824</ele>
        <time>2014-04-19T07:21:15.000Z</time>
      </trkpt>
      <trkpt lat="45.86303" lon="4.74068">
        <ele>233.60000610352</ele>
        <time>2014-04-19T07:21:24.000Z</time>
      </trkpt>
      <trkpt lat="45.86313" lon="4.74067">
        <ele>233.19999694824</ele>
        <time>2014-04-19T07:21:29.000Z</time>
      </trkpt>
      <trkpt lat="45.86324" lon="4.74068">
        <ele>232.39999389648</ele>
        <time>2014-04-19T07:21:38.000Z</time>
      </trkpt>
      <trkpt lat="45.86341" lon="4.74067">
        <ele>231</ele>
        <time>2014-04-19T07:21:50.000Z</time>
      </trkpt>
      <trkpt lat="45.86355" lon="4.74066">
        <ele>230.19999694824</ele>
        <time>2014-04-19T07:21:58.000Z</time>
      </trkpt>
      <trkpt lat="45.86368" lon="4.74065">
        <ele>229.39999389648</ele>
        <time>2014-04-19T07:22:06.000Z</time>
      </trkpt>
      <trkpt lat="45.8638" lon="4.74064">
        <ele>228.80000305176</ele>
        <time>2014-04-19T07:22:14.000Z</time>
      </trkpt>
      <trkpt lat="45.86395" lon="4.74062">
        <ele>228</ele>
        <time>2014-04-19T07:22:23.000Z</time>
      </trkpt>
      <trkpt lat="45.86409" lon="4.74061">
        <ele>227.39999389648</ele>
        <time>2014-04-19T07:22:31.000Z</time>
      </trkpt>
      <trkpt lat="45.86424" lon="4.7406">
        <ele>226.80000305176</ele>
        <time>2014-04-19T07:22:40.000Z</time>
      </trkpt>
      <trkpt lat="45.86442" lon="4.74058">
        <ele>226</ele>
        <time>2014-04-19T07:22:52.000Z</time>
      </trkpt>
      <trkpt lat="45.86458" lon="4.74056">
        <ele>225.39999389648</ele>
        <time>2014-04-19T07:23:01.000Z</time>
      </trkpt>
      <trkpt lat="45.86471" lon="4.74055">
        <ele>224.80000305176</ele>
        <time>2014-04-19T07:23:10.000Z</time>
      </trkpt>
      <trkpt lat="45.86483" lon="4.74055">
        <ele>224.19999694824</ele>
        <time>2014-04-19T07:23:17.000Z</time>
      </trkpt>
      <trkpt lat="45.86493" lon="4.74054">
        <ele>223.60000610352</ele>
        <time>2014-04-19T07:23:25.000Z</time>
      </trkpt>
      <trkpt lat="45.86503" lon="4.74054">
        <ele>223.19999694824</ele>
        <time>2014-04-19T07:23:32.000Z</time>
      </trkpt>
      <trkpt lat="45.86507" lon="4.74053">
        <ele>223</ele>
        <time>2014-04-19T07:23:35.000Z</time>
      </trkpt>
      <trkpt lat="45.86523" lon="4.74053">
        <ele>222.39999389648</ele>
        <time>2014-04-19T07:23:46.000Z</time>
      </trkpt>
      <trkpt lat="45.86535" lon="4.74052">
        <ele>222</ele>
        <time>2014-04-19T07:23:55.000Z</time>
      </trkpt>
      <trkpt lat="45.8655" lon="4.74051">
        <ele>221.39999389648</ele>
        <time>2014-04-19T07:24:06.000Z</time>
      </trkpt>
      <trkpt lat="45.86563" lon="4.74051">
        <ele>221</ele>
        <time>2014-04-19T07:24:16.000Z</time>
      </trkpt>
      <trkpt lat="45.86572" lon="4.74049">
        <ele>220.80000305176</ele>
        <time>2014-04-19T07:24:22.000Z</time>
      </trkpt>
      <trkpt lat="45.86577" lon="4.74036">
        <ele>220.39999389648</ele>
        <time>2014-04-19T07:24:29.000Z</time>
      </trkpt>
      <trkpt lat="45.86582" lon="4.74023">
        <ele>220</ele>
        <time>2014-04-19T07:24:37.000Z</time>
      </trkpt>
      <trkpt lat="45.86591" lon="4.74011">
        <ele>219.60000610352</ele>
        <time>2014-04-19T07:24:46.000Z</time>
      </trkpt>
      <trkpt lat="45.86604" lon="4.74004">
        <ele>219.39999389648</ele>
        <time>2014-04-19T07:24:55.000Z</time>
      </trkpt>
      <trkpt lat="45.86615" lon="4.73998">
        <ele>220.19999694824</ele>
        <time>2014-04-19T07:25:02.000Z</time>
      </trkpt>
      <trkpt lat="45.8662" lon="4.73995">
        <ele>221.19999694824</ele>
        <time>2014-04-19T07:25:07.000Z</time>
      </trkpt>
      <trkpt lat="45.86624" lon="4.73993">
        <ele>221.80000305176</ele>
        <time>2014-04-19T07:25:10.000Z</time>
      </trkpt>
      <trkpt lat="45.86625" lon="4.73992">
        <ele>221.80000305176</ele>
        <time>2014-04-19T07:25:11.000Z</time>
      </trkpt>
      <trkpt lat="45.86634" lon="4.73988">
        <ele>223</ele>
        <time>2014-04-19T07:25:18.000Z</time>
      </trkpt>
      <trkpt lat="45.86644" lon="4.73984">
        <ele>223.19999694824</ele>
        <time>2014-04-19T07:25:24.000Z</time>
      </trkpt>
      <trkpt lat="45.86657" lon="4.73979">
        <ele>223.39999389648</ele>
        <time>2014-04-19T07:25:32.000Z</time>
      </trkpt>
      <trkpt lat="45.8667" lon="4.73979">
        <ele>223.80000305176</ele>
        <time>2014-04-19T07:25:42.000Z</time>
      </trkpt>
      <trkpt lat="45.8668" lon="4.73976">
        <ele>224.19999694824</ele>
        <time>2014-04-19T07:25:50.000Z</time>
      </trkpt>
      <trkpt lat="45.86692" lon="4.73965">
        <ele>225</ele>
        <time>2014-04-19T07:26:01.000Z</time>
      </trkpt>
      <trkpt lat="45.86699" lon="4.73947">
        <ele>225.60000610352</ele>
        <time>2014-04-19T07:26:11.000Z</time>
      </trkpt>
      <trkpt lat="45.86705" lon="4.73923">
        <ele>226</ele>
        <time>2014-04-19T07:26:23.000Z</time>
      </trkpt>
      <trkpt lat="45.8671" lon="4.73906">
        <ele>226.19999694824</ele>
        <time>2014-04-19T07:26:32.000Z</time>
      </trkpt>
      <trkpt lat="45.86717" lon="4.7388">
        <ele>226.39999389648</ele>
        <time>2014-04-19T07:26:44.000Z</time>
      </trkpt>
      <trkpt lat="45.86724" lon="4.73851">
        <ele>226.39999389648</ele>
        <time>2014-04-19T07:26:54.000Z</time>
      </trkpt>
      <trkpt lat="45.86732" lon="4.7383">
        <ele>226.19999694824</ele>
        <time>2014-04-19T07:27:07.000Z</time>
      </trkpt>
      <trkpt lat="45.86738" lon="4.73811">
        <ele>226</ele>
        <time>2014-04-19T07:27:19.000Z</time>
      </trkpt>
      <trkpt lat="45.86745" lon="4.73786">
        <ele>226</ele>
        <time>2014-04-19T07:27:29.000Z</time>
      </trkpt>
      <trkpt lat="45.86753" lon="4.73758">
        <ele>226</ele>
        <time>2014-04-19T07:27:39.000Z</time>
      </trkpt>
      <trkpt lat="45.86758" lon="4.73737">
        <ele>226.19999694824</ele>
        <time>2014-04-19T07:27:51.000Z</time>
      </trkpt>
      <trkpt lat="45.86765" lon="4.73715">
        <ele>226.19999694824</ele>
        <time>2014-04-19T07:28:03.000Z</time>
      </trkpt>
      <trkpt lat="45.86768" lon="4.73701">
        <ele>226.60000610352</ele>
        <time>2014-04-19T07:28:12.000Z</time>
      </trkpt>
      <trkpt lat="45.86771" lon="4.7369">
        <ele>226.39999389648</ele>
        <time>2014-04-19T07:28:21.000Z</time>
      </trkpt>
      <trkpt lat="45.86783" lon="4.73664">
        <ele>226.19999694824</ele>
        <time>2014-04-19T07:28:44.000Z</time>
      </trkpt>
      <trkpt lat="45.86785" lon="4.73658">
        <ele>226</ele>
        <time>2014-04-19T07:28:47.000Z</time>
      </trkpt>
      <trkpt lat="45.86796" lon="4.73632">
        <ele>225.80000305176</ele>
        <time>2014-04-19T07:28:57.000Z</time>
      </trkpt>
      <trkpt lat="45.86801" lon="4.73622">
        <ele>225.60000610352</ele>
        <time>2014-04-19T07:29:03.000Z</time>
      </trkpt>
      <trkpt lat="45.86806" lon="4.73608">
        <ele>225</ele>
        <time>2014-04-19T07:29:12.000Z</time>
      </trkpt>
      <trkpt lat="45.86816" lon="4.7359">
        <ele>224</ele>
        <time>2014-04-19T07:29:24.000Z</time>
      </trkpt>
      <trkpt lat="45.86824" lon="4.73575">
        <ele>223.19999694824</ele>
        <time>2014-04-19T07:29:33.000Z</time>
      </trkpt>
      <trkpt lat="45.86829" lon="4.73564">
        <ele>222.80000305176</ele>
        <time>2014-04-19T07:29:40.000Z</time>
      </trkpt>
      <trkpt lat="45.86835" lon="4.7355">
        <ele>221.80000305176</ele>
        <time>2014-04-19T07:29:48.000Z</time>
      </trkpt>
      <trkpt lat="45.86846" lon="4.73528">
        <ele>221</ele>
        <time>2014-04-19T07:30:00.000Z</time>
      </trkpt>
      <trkpt lat="45.8685" lon="4.73515">
        <ele>220.80000305176</ele>
        <time>2014-04-19T07:30:06.000Z</time>
      </trkpt>
      <trkpt lat="45.86851" lon="4.73513">
        <ele>220.60000610352</ele>
        <time>2014-04-19T07:30:07.000Z</time>
      </trkpt>
      <trkpt lat="45.86852" lon="4.73508">
        <ele>220.60000610352</ele>
        <time>2014-04-19T07:30:10.000Z</time>
      </trkpt>
      <trkpt lat="45.86854" lon="4.73497">
        <ele>220.19999694824</ele>
        <time>2014-04-19T07:30:16.000Z</time>
      </trkpt>
      <trkpt lat="45.86859" lon="4.73475">
        <ele>220</ele>
        <time>2014-04-19T07:30:27.000Z</time>
      </trkpt>
      <trkpt lat="45.86865" lon="4.7345">
        <ele>219.60000610352</ele>
        <time>2014-04-19T07:30:40.000Z</time>
      </trkpt>
      <trkpt lat="45.86868" lon="4.7343">
        <ele>219.60000610352</ele>
        <time>2014-04-19T07:30:47.000Z</time>
      </trkpt>
      <trkpt lat="45.8687" lon="4.7341">
        <ele>219.19999694824</ele>
        <time>2014-04-19T07:30:54.000Z</time>
      </trkpt>
      <trkpt lat="45.86873" lon="4.73389">
        <ele>218.80000305176</ele>
        <time>2014-04-19T07:31:04.000Z</time>
      </trkpt>
      <trkpt lat="45.86873" lon="4.73367">
        <ele>218.60000610352</ele>
        <time>2014-04-19T07:31:15.000Z</time>
      </trkpt>
      <trkpt lat="45.86871" lon="4.73348">
        <ele>218.39999389648</ele>
        <time>2014-04-19T07:31:25.000Z</time>
      </trkpt>
      <trkpt lat="45.86869" lon="4.73326">
        <ele>218.19999694824</ele>
        <time>2014-04-19T07:31:32.000Z</time>
      </trkpt>
      <trkpt lat="45.86867" lon="4.73306">
        <ele>218.19999694824</ele>
        <time>2014-04-19T07:31:40.000Z</time>
      </trkpt>
      <trkpt lat="45.86864" lon="4.73291">
        <ele>217.80000305176</ele>
        <time>2014-04-19T07:31:49.000Z</time>
      </trkpt>
      <trkpt lat="45.86861" lon="4.7327">
        <ele>217.80000305176</ele>
        <time>2014-04-19T07:32:01.000Z</time>
      </trkpt>
      <trkpt lat="45.86861" lon="4.73248">
        <ele>217.39999389648</ele>
        <time>2014-04-19T07:32:12.000Z</time>
      </trkpt>
      <trkpt lat="45.8686" lon="4.73231">
        <ele>217.39999389648</ele>
        <time>2014-04-19T07:32:20.000Z</time>
      </trkpt>
      <trkpt lat="45.86861" lon="4.73209">
        <ele>217.39999389648</ele>
        <time>2014-04-19T07:32:28.000Z</time>
      </trkpt>
      <trkpt lat="45.86864" lon="4.73193">
        <ele>217.39999389648</ele>
        <time>2014-04-19T07:32:37.000Z</time>
      </trkpt>
      <trkpt lat="45.86869" lon="4.73177">
        <ele>217.19999694824</ele>
        <time>2014-04-19T07:32:47.000Z</time>
      </trkpt>
      <trkpt lat="45.86871" lon="4.7316">
        <ele>216.80000305176</ele>
        <time>2014-04-19T07:32:56.000Z</time>
      </trkpt>
      <trkpt lat="45.86875" lon="4.73142">
        <ele>216.19999694824</ele>
        <time>2014-04-19T07:33:06.000Z</time>
      </trkpt>
      <trkpt lat="45.86878" lon="4.73124">
        <ele>215.80000305176</ele>
        <time>2014-04-19T07:33:15.000Z</time>
      </trkpt>
      <trkpt lat="45.8688" lon="4.73102">
        <ele>215.80000305176</ele>
        <time>2014-04-19T07:33:26.000Z</time>
      </trkpt>
      <trkpt lat="45.86883" lon="4.73082">
        <ele>215.39999389648</ele>
        <time>2014-04-19T07:33:37.000Z</time>
      </trkpt>
      <trkpt lat="45.86887" lon="4.73063">
        <ele>215.39999389648</ele>
        <time>2014-04-19T07:33:46.000Z</time>
      </trkpt>
      <trkpt lat="45.86896" lon="4.73041">
        <ele>215.19999694824</ele>
        <time>2014-04-19T07:33:58.000Z</time>
      </trkpt>
      <trkpt lat="45.86907" lon="4.73022">
        <ele>215</ele>
        <time>2014-04-19T07:34:05.000Z</time>
      </trkpt>
      <trkpt lat="45.86915" lon="4.72998">
        <ele>214.80000305176</ele>
        <time>2014-04-19T07:34:14.000Z</time>
      </trkpt>
      <trkpt lat="45.86919" lon="4.72982">
        <ele>214.39999389648</ele>
        <time>2014-04-19T07:34:23.000Z</time>
      </trkpt>
      <trkpt lat="45.86925" lon="4.7296">
        <ele>213.80000305176</ele>
        <time>2014-04-19T07:34:36.000Z</time>
      </trkpt>
      <trkpt lat="45.86928" lon="4.72933">
        <ele>213.60000610352</ele>
        <time>2014-04-19T07:34:50.000Z</time>
      </trkpt>
      <trkpt lat="45.86932" lon="4.72915">
        <ele>214.39999389648</ele>
        <time>2014-04-19T07:35:00.000Z</time>
      </trkpt>
      <trkpt lat="45.8694" lon="4.72905">
        <ele>214.39999389648</ele>
        <time>2014-04-19T07:35:09.000Z</time>
      </trkpt>
      <trkpt lat="45.86951" lon="4.72902">
        <ele>214.19999694824</ele>
        <time>2014-04-19T07:35:18.000Z</time>
      </trkpt>
      <trkpt lat="45.86965" lon="4.72898">
        <ele>213.39999389648</ele>
        <time>2014-04-19T07:35:30.000Z</time>
      </trkpt>
      <trkpt lat="45.86975" lon="4.72896">
        <ele>212.60000610352</ele>
        <time>2014-04-19T07:35:38.000Z</time>
      </trkpt>
      <trkpt lat="45.86988" lon="4.72892">
        <ele>211.19999694824</ele>
        <time>2014-04-19T07:35:49.000Z</time>
      </trkpt>
      <trkpt lat="45.87001" lon="4.72889">
        <ele>210.39999389648</ele>
        <time>2014-04-19T07:35:56.000Z</time>
      </trkpt>
      <trkpt lat="45.87016" lon="4.72882">
        <ele>209.39999389648</ele>
        <time>2014-04-19T07:36:04.000Z</time>
      </trkpt>
      <trkpt lat="45.87029" lon="4.72873">
        <ele>207.80000305176</ele>
        <time>2014-04-19T07:36:16.000Z</time>
      </trkpt>
      <trkpt lat="45.8704" lon="4.72866">
        <ele>206.80000305176</ele>
        <time>2014-04-19T07:36:25.000Z</time>
      </trkpt>
      <trkpt lat="45.87056" lon="4.72855">
        <ele>205.39999389648</ele>
        <time>2014-04-19T07:36:37.000Z</time>
      </trkpt>
      <trkpt lat="45.87067" lon="4.72847">
        <ele>204.39999389648</ele>
        <time>2014-04-19T07:36:47.000Z</time>
      </trkpt>
      <trkpt lat="45.87083" lon="4.72836">
        <ele>203</ele>
        <time>2014-04-19T07:36:59.000Z</time>
      </trkpt>
      <trkpt lat="45.87097" lon="4.72828">
        <ele>202</ele>
        <time>2014-04-19T07:37:06.000Z</time>
      </trkpt>
      <trkpt lat="45.87108" lon="4.72821">
        <ele>201.19999694824</ele>
        <time>2014-04-19T07:37:15.000Z</time>
      </trkpt>
      <trkpt lat="45.87123" lon="4.72808">
        <ele>199.60000610352</ele>
        <time>2014-04-19T07:37:29.000Z</time>
      </trkpt>
      <trkpt lat="45.87139" lon="4.72798">
        <ele>198.39999389648</ele>
        <time>2014-04-19T07:37:41.000Z</time>
      </trkpt>
      <trkpt lat="45.87151" lon="4.72787">
        <ele>197.19999694824</ele>
        <time>2014-04-19T07:37:51.000Z</time>
      </trkpt>
      <trkpt lat="45.87159" lon="4.72777">
        <ele>196.39999389648</ele>
        <time>2014-04-19T07:37:59.000Z</time>
      </trkpt>
      <trkpt lat="45.8716" lon="4.72767">
        <ele>196.19999694824</ele>
        <time>2014-04-19T07:38:05.000Z</time>
      </trkpt>
      <trkpt lat="45.8716" lon="4.72755">
        <ele>195.80000305176</ele>
        <time>2014-04-19T07:38:14.000Z</time>
      </trkpt>
      <trkpt lat="45.8716" lon="4.72754">
        <ele>195.80000305176</ele>
        <time>2014-04-19T07:38:15.000Z</time>
      </trkpt>
      <trkpt lat="45.8716" lon="4.72754">
        <ele>195.80000305176</ele>
        <time>2014-04-19T07:38:16.000Z</time>
      </trkpt>
      <trkpt lat="45.87192" lon="4.7265">
        <ele>195</ele>
        <time>2014-04-19T07:40:21.000Z</time>
      </trkpt>
      <trkpt lat="45.87193" lon="4.72647">
        <ele>194.80000305176</ele>
        <time>2014-04-19T07:40:23.000Z</time>
      </trkpt>
      <trkpt lat="45.87201" lon="4.72633">
        <ele>194.39999389648</ele>
        <time>2014-04-19T07:40:33.000Z</time>
      </trkpt>
      <trkpt lat="45.87207" lon="4.72623">
        <ele>194</ele>
        <time>2014-04-19T07:40:41.000Z</time>
      </trkpt>
      <trkpt lat="45.87213" lon="4.72611">
        <ele>193.80000305176</ele>
        <time>2014-04-19T07:40:47.000Z</time>
      </trkpt>
      <trkpt lat="45.8722" lon="4.72596">
        <ele>193.39999389648</ele>
        <time>2014-04-19T07:40:56.000Z</time>
      </trkpt>
      <trkpt lat="45.87228" lon="4.72579">
        <ele>192.80000305176</ele>
        <time>2014-04-19T07:41:07.000Z</time>
      </trkpt>
      <trkpt lat="45.87235" lon="4.72564">
        <ele>192.19999694824</ele>
        <time>2014-04-19T07:41:16.000Z</time>
      </trkpt>
      <trkpt lat="45.87239" lon="4.72553">
        <ele>191.80000305176</ele>
        <time>2014-04-19T07:41:22.000Z</time>
      </trkpt>
      <trkpt lat="45.87246" lon="4.72535">
        <ele>191</ele>
        <time>2014-04-19T07:41:32.000Z</time>
      </trkpt>
      <trkpt lat="45.87258" lon="4.72512">
        <ele>190.19999694824</ele>
        <time>2014-04-19T07:41:44.000Z</time>
      </trkpt>
      <trkpt lat="45.87264" lon="4.72498">
        <ele>189.80000305176</ele>
        <time>2014-04-19T07:41:51.000Z</time>
      </trkpt>
      <trkpt lat="45.87264" lon="4.72498">
        <ele>189.60000610352</ele>
        <time>2014-04-19T07:41:53.000Z</time>
      </trkpt>
      <trkpt lat="45.87282" lon="4.7246">
        <ele>189</ele>
        <time>2014-04-19T07:42:34.000Z</time>
      </trkpt>
      <trkpt lat="45.87281" lon="4.72458">
        <ele>189</ele>
        <time>2014-04-19T07:42:35.000Z</time>
      </trkpt>
      <trkpt lat="45.87281" lon="4.72456">
        <ele>189</ele>
        <time>2014-04-19T07:42:38.000Z</time>
      </trkpt>
      <trkpt lat="45.87308" lon="4.72409">
        <ele>189</ele>
        <time>2014-04-19T07:43:42.000Z</time>
      </trkpt>
      <trkpt lat="45.87309" lon="4.72407">
        <ele>188.80000305176</ele>
        <time>2014-04-19T07:43:43.000Z</time>
      </trkpt>
      <trkpt lat="45.87313" lon="4.72394">
        <ele>188.60000610352</ele>
        <time>2014-04-19T07:43:51.000Z</time>
      </trkpt>
      <trkpt lat="45.87321" lon="4.72379">
        <ele>188.19999694824</ele>
        <time>2014-04-19T07:44:02.000Z</time>
      </trkpt>
      <trkpt lat="45.87329" lon="4.72363">
        <ele>188</ele>
        <time>2014-04-19T07:44:13.000Z</time>
      </trkpt>
      <trkpt lat="45.87335" lon="4.72349">
        <ele>187.80000305176</ele>
        <time>2014-04-19T07:44:20.000Z</time>
      </trkpt>
      <trkpt lat="45.8734" lon="4.72338">
        <ele>187.80000305176</ele>
        <time>2014-04-19T07:44:27.000Z</time>
      </trkpt>
      <trkpt lat="45.8735" lon="4.72319">
        <ele>187.60000610352</ele>
        <time>2014-04-19T07:44:39.000Z</time>
      </trkpt>
      <trkpt lat="45.87359" lon="4.72299">
        <ele>187.60000610352</ele>
        <time>2014-04-19T07:44:50.000Z</time>
      </trkpt>
      <trkpt lat="45.87364" lon="4.72286">
        <ele>187.60000610352</ele>
        <time>2014-04-19T07:44:57.000Z</time>
      </trkpt>
      <trkpt lat="45.87374" lon="4.72264">
        <ele>187.60000610352</ele>
        <time>2014-04-19T07:45:11.000Z</time>
      </trkpt>
      <trkpt lat="45.87381" lon="4.7225">
        <ele>187.60000610352</ele>
        <time>2014-04-19T07:45:21.000Z</time>
      </trkpt>
      <trkpt lat="45.87387" lon="4.72241">
        <ele>187.60000610352</ele>
        <time>2014-04-19T07:45:28.000Z</time>
      </trkpt>
      <trkpt lat="45.87399" lon="4.72219">
        <ele>187.60000610352</ele>
        <time>2014-04-19T07:45:41.000Z</time>
      </trkpt>
      <trkpt lat="45.8741" lon="4.72198">
        <ele>187.80000305176</ele>
        <time>2014-04-19T07:45:50.000Z</time>
      </trkpt>
      <trkpt lat="45.87419" lon="4.72182">
        <ele>188.19999694824</ele>
        <time>2014-04-19T07:46:01.000Z</time>
      </trkpt>
      <trkpt lat="45.87426" lon="4.72173">
        <ele>187.80000305176</ele>
        <time>2014-04-19T07:46:09.000Z</time>
      </trkpt>
      <trkpt lat="45.87435" lon="4.72158">
        <ele>187.39999389648</ele>
        <time>2014-04-19T07:46:19.000Z</time>
      </trkpt>
      <trkpt lat="45.87443" lon="4.72146">
        <ele>186.60000610352</ele>
        <time>2014-04-19T07:46:29.000Z</time>
      </trkpt>
      <trkpt lat="45.8745" lon="4.72134">
        <ele>186.19999694824</ele>
        <time>2014-04-19T07:46:37.000Z</time>
      </trkpt>
      <trkpt lat="45.87459" lon="4.72115">
        <ele>185.80000305176</ele>
        <time>2014-04-19T07:46:49.000Z</time>
      </trkpt>
      <trkpt lat="45.87461" lon="4.72098">
        <ele>185.60000610352</ele>
        <time>2014-04-19T07:46:58.000Z</time>
      </trkpt>
      <trkpt lat="45.8746" lon="4.72078">
        <ele>185.60000610352</ele>
        <time>2014-04-19T07:47:08.000Z</time>
      </trkpt>
      <trkpt lat="45.87456" lon="4.72059">
        <ele>186.39999389648</ele>
        <time>2014-04-19T07:47:18.000Z</time>
      </trkpt>
      <trkpt lat="45.87451" lon="4.72036">
        <ele>188</ele>
        <time>2014-04-19T07:47:30.000Z</time>
      </trkpt>
      <trkpt lat="45.87448" lon="4.72015">
        <ele>189.19999694824</ele>
        <time>2014-04-19T07:47:40.000Z</time>
      </trkpt>
      <trkpt lat="45.87444" lon="4.71993">
        <ele>190</ele>
        <time>2014-04-19T07:47:50.000Z</time>
      </trkpt>
      <trkpt lat="45.8744" lon="4.71974">
        <ele>190.39999389648</ele>
        <time>2014-04-19T07:47:57.000Z</time>
      </trkpt>
      <trkpt lat="45.87437" lon="4.71956">
        <ele>190.39999389648</ele>
        <time>2014-04-19T07:48:05.000Z</time>
      </trkpt>
      <trkpt lat="45.87435" lon="4.71937">
        <ele>190.19999694824</ele>
        <time>2014-04-19T07:48:15.000Z</time>
      </trkpt>
      <trkpt lat="45.87431" lon="4.71917">
        <ele>190.39999389648</ele>
        <time>2014-04-19T07:48:24.000Z</time>
      </trkpt>
      <trkpt lat="45.87426" lon="4.71898">
        <ele>190.19999694824</ele>
        <time>2014-04-19T07:48:31.000Z</time>
      </trkpt>
      <trkpt lat="45.87425" lon="4.71889">
        <ele>190</ele>
        <time>2014-04-19T07:48:36.000Z</time>
      </trkpt>
      <trkpt lat="45.87424" lon="4.71881">
        <ele>190</ele>
        <time>2014-04-19T07:48:40.000Z</time>
      </trkpt>
      <trkpt lat="45.87421" lon="4.71866">
        <ele>189.80000305176</ele>
        <time>2014-04-19T07:48:48.000Z</time>
      </trkpt>
      <trkpt lat="45.87417" lon="4.71849">
        <ele>189.60000610352</ele>
        <time>2014-04-19T07:48:54.000Z</time>
      </trkpt>
      <trkpt lat="45.87414" lon="4.71833">
        <ele>189.60000610352</ele>
        <time>2014-04-19T07:49:02.000Z</time>
      </trkpt>
      <trkpt lat="45.87411" lon="4.71814">
        <ele>189.39999389648</ele>
        <time>2014-04-19T07:49:12.000Z</time>
      </trkpt>
      <trkpt lat="45.87408" lon="4.71795">
        <ele>189</ele>
        <time>2014-04-19T07:49:22.000Z</time>
      </trkpt>
      <trkpt lat="45.87404" lon="4.71776">
        <ele>188.60000610352</ele>
        <time>2014-04-19T07:49:32.000Z</time>
      </trkpt>
      <trkpt lat="45.874" lon="4.71753">
        <ele>188.19999694824</ele>
        <time>2014-04-19T07:49:44.000Z</time>
      </trkpt>
      <trkpt lat="45.87395" lon="4.71733">
        <ele>188.19999694824</ele>
        <time>2014-04-19T07:49:51.000Z</time>
      </trkpt>
      <trkpt lat="45.87392" lon="4.71714">
        <ele>188</ele>
        <time>2014-04-19T07:49:59.000Z</time>
      </trkpt>
      <trkpt lat="45.87387" lon="4.71698">
        <ele>188.60000610352</ele>
        <time>2014-04-19T07:50:07.000Z</time>
      </trkpt>
      <trkpt lat="45.87386" lon="4.71682">
        <ele>188.80000305176</ele>
        <time>2014-04-19T07:50:15.000Z</time>
      </trkpt>
      <trkpt lat="45.87383" lon="4.71666">
        <ele>189</ele>
        <time>2014-04-19T07:50:24.000Z</time>
      </trkpt>
      <trkpt lat="45.87379" lon="4.71645">
        <ele>189.19999694824</ele>
        <time>2014-04-19T07:50:32.000Z</time>
      </trkpt>
      <trkpt lat="45.87375" lon="4.71629">
        <ele>189.60000610352</ele>
        <time>2014-04-19T07:50:40.000Z</time>
      </trkpt>
      <trkpt lat="45.87372" lon="4.71608">
        <ele>190</ele>
        <time>2014-04-19T07:50:51.000Z</time>
      </trkpt>
      <trkpt lat="45.87367" lon="4.71585">
        <ele>190.19999694824</ele>
        <time>2014-04-19T07:51:03.000Z</time>
      </trkpt>
      <trkpt lat="45.87362" lon="4.7156">
        <ele>190.39999389648</ele>
        <time>2014-04-19T07:51:12.000Z</time>
      </trkpt>
      <trkpt lat="45.87358" lon="4.71538">
        <ele>190.39999389648</ele>
        <time>2014-04-19T07:51:21.000Z</time>
      </trkpt>
      <trkpt lat="45.87353" lon="4.71514">
        <ele>190.60000610352</ele>
        <time>2014-04-19T07:51:34.000Z</time>
      </trkpt>
      <trkpt lat="45.87348" lon="4.71488">
        <ele>191.19999694824</ele>
        <time>2014-04-19T07:51:47.000Z</time>
      </trkpt>
      <trkpt lat="45.87344" lon="4.71463">
        <ele>191.39999389648</ele>
        <time>2014-04-19T07:51:56.000Z</time>
      </trkpt>
      <trkpt lat="45.87346" lon="4.71436">
        <ele>191.80000305176</ele>
        <time>2014-04-19T07:52:08.000Z</time>
      </trkpt>
      <trkpt lat="45.87346" lon="4.7142">
        <ele>192.60000610352</ele>
        <time>2014-04-19T07:52:17.000Z</time>
      </trkpt>
      <trkpt lat="45.87346" lon="4.71402">
        <ele>192.80000305176</ele>
        <time>2014-04-19T07:52:27.000Z</time>
      </trkpt>
      <trkpt lat="45.87343" lon="4.71391">
        <ele>192.80000305176</ele>
        <time>2014-04-19T07:52:35.000Z</time>
      </trkpt>
      <trkpt lat="45.87342" lon="4.71391">
        <ele>192.80000305176</ele>
        <time>2014-04-19T07:52:36.000Z</time>
      </trkpt>
      <trkpt lat="45.87336" lon="4.71393">
        <ele>192.60000610352</ele>
        <time>2014-04-19T07:52:43.000Z</time>
      </trkpt>
      <trkpt lat="45.87335" lon="4.71394">
        <ele>192.60000610352</ele>
        <time>2014-04-19T07:52:44.000Z</time>
      </trkpt>
      <trkpt lat="45.87323" lon="4.71402">
        <ele>194</ele>
        <time>2014-04-19T07:52:54.000Z</time>
      </trkpt>
      <trkpt lat="45.87312" lon="4.7141">
        <ele>195.80000305176</ele>
        <time>2014-04-19T07:53:02.000Z</time>
      </trkpt>
      <trkpt lat="45.87299" lon="4.71416">
        <ele>196.80000305176</ele>
        <time>2014-04-19T07:53:13.000Z</time>
      </trkpt>
      <trkpt lat="45.87285" lon="4.7142">
        <ele>196.39999389648</ele>
        <time>2014-04-19T07:53:24.000Z</time>
      </trkpt>
      <trkpt lat="45.8727" lon="4.71432">
        <ele>195.80000305176</ele>
        <time>2014-04-19T07:53:33.000Z</time>
      </trkpt>
      <trkpt lat="45.8726" lon="4.71443">
        <ele>195.39999389648</ele>
        <time>2014-04-19T07:53:41.000Z</time>
      </trkpt>
      <trkpt lat="45.87252" lon="4.71453">
        <ele>195</ele>
        <time>2014-04-19T07:53:50.000Z</time>
      </trkpt>
      <trkpt lat="45.87243" lon="4.71466">
        <ele>194.60000610352</ele>
        <time>2014-04-19T07:54:00.000Z</time>
      </trkpt>
      <trkpt lat="45.87234" lon="4.71478">
        <ele>194.39999389648</ele>
        <time>2014-04-19T07:54:09.000Z</time>
      </trkpt>
      <trkpt lat="45.87226" lon="4.71491">
        <ele>194.19999694824</ele>
        <time>2014-04-19T07:54:15.000Z</time>
      </trkpt>
      <trkpt lat="45.87217" lon="4.71506">
        <ele>194</ele>
        <time>2014-04-19T07:54:23.000Z</time>
      </trkpt>
      <trkpt lat="45.87208" lon="4.71521">
        <ele>193.60000610352</ele>
        <time>2014-04-19T07:54:33.000Z</time>
      </trkpt>
      <trkpt lat="45.87202" lon="4.71534">
        <ele>193.19999694824</ele>
        <time>2014-04-19T07:54:43.000Z</time>
      </trkpt>
      <trkpt lat="45.87193" lon="4.71547">
        <ele>192.60000610352</ele>
        <time>2014-04-19T07:54:52.000Z</time>
      </trkpt>
      <trkpt lat="45.87183" lon="4.7156">
        <ele>192.19999694824</ele>
        <time>2014-04-19T07:55:02.000Z</time>
      </trkpt>
      <trkpt lat="45.87178" lon="4.71567">
        <ele>191.80000305176</ele>
        <time>2014-04-19T07:55:10.000Z</time>
      </trkpt>
      <trkpt lat="45.87125" lon="4.71628">
        <ele>187.19999694824</ele>
        <time>2014-04-19T07:58:07.000Z</time>
      </trkpt>
      <trkpt lat="45.87121" lon="4.71632">
        <ele>187.19999694824</ele>
        <time>2014-04-19T07:58:11.000Z</time>
      </trkpt>
      <trkpt lat="45.87116" lon="4.71635">
        <ele>187.19999694824</ele>
        <time>2014-04-19T07:58:16.000Z</time>
      </trkpt>
      <trkpt lat="45.87112" lon="4.71637">
        <ele>187</ele>
        <time>2014-04-19T07:58:19.000Z</time>
      </trkpt>
      <trkpt lat="45.871" lon="4.71641">
        <ele>186.80000305176</ele>
        <time>2014-04-19T07:58:29.000Z</time>
      </trkpt>
      <trkpt lat="45.8709" lon="4.71644">
        <ele>186.60000610352</ele>
        <time>2014-04-19T07:58:36.000Z</time>
      </trkpt>
      <trkpt lat="45.87075" lon="4.71647">
        <ele>186.39999389648</ele>
        <time>2014-04-19T07:58:46.000Z</time>
      </trkpt>
      <trkpt lat="45.87063" lon="4.71649">
        <ele>186.39999389648</ele>
        <time>2014-04-19T07:58:54.000Z</time>
      </trkpt>
      <trkpt lat="45.87053" lon="4.71643">
        <ele>186.39999389648</ele>
        <time>2014-04-19T07:59:01.000Z</time>
      </trkpt>
      <trkpt lat="45.87041" lon="4.71632">
        <ele>186.60000610352</ele>
        <time>2014-04-19T07:59:12.000Z</time>
      </trkpt>
      <trkpt lat="45.87026" lon="4.71618">
        <ele>187</ele>
        <time>2014-04-19T07:59:24.000Z</time>
      </trkpt>
      <trkpt lat="45.87014" lon="4.71608">
        <ele>187</ele>
        <time>2014-04-19T07:59:31.000Z</time>
      </trkpt>
      <trkpt lat="45.87003" lon="4.71603">
        <ele>187</ele>
        <time>2014-04-19T07:59:36.000Z</time>
      </trkpt>
      <trkpt lat="45.86985" lon="4.71592">
        <ele>186.80000305176</ele>
        <time>2014-04-19T07:59:45.000Z</time>
      </trkpt>
      <trkpt lat="45.86974" lon="4.71583">
        <ele>186.80000305176</ele>
        <time>2014-04-19T07:59:54.000Z</time>
      </trkpt>
      <trkpt lat="45.86965" lon="4.71572">
        <ele>186.80000305176</ele>
        <time>2014-04-19T08:00:03.000Z</time>
      </trkpt>
      <trkpt lat="45.86954" lon="4.71557">
        <ele>186.80000305176</ele>
        <time>2014-04-19T08:00:15.000Z</time>
      </trkpt>
      <trkpt lat="45.86946" lon="4.71541">
        <ele>186.39999389648</ele>
        <time>2014-04-19T08:00:26.000Z</time>
      </trkpt>
      <trkpt lat="45.86936" lon="4.71525">
        <ele>186.39999389648</ele>
        <time>2014-04-19T08:00:33.000Z</time>
      </trkpt>
      <trkpt lat="45.86924" lon="4.71508">
        <ele>186.19999694824</ele>
        <time>2014-04-19T08:00:40.000Z</time>
      </trkpt>
      <trkpt lat="45.8692" lon="4.71499">
        <ele>186.19999694824</ele>
        <time>2014-04-19T08:00:46.000Z</time>
      </trkpt>
      <trkpt lat="45.86914" lon="4.71482">
        <ele>186</ele>
        <time>2014-04-19T08:00:55.000Z</time>
      </trkpt>
      <trkpt lat="45.8691" lon="4.7147">
        <ele>185.80000305176</ele>
        <time>2014-04-19T08:01:02.000Z</time>
      </trkpt>
      <trkpt lat="45.86906" lon="4.71455">
        <ele>185.80000305176</ele>
        <time>2014-04-19T08:01:11.000Z</time>
      </trkpt>
      <trkpt lat="45.86902" lon="4.71439">
        <ele>185.39999389648</ele>
        <time>2014-04-19T08:01:21.000Z</time>
      </trkpt>
      <trkpt lat="45.86896" lon="4.71419">
        <ele>185.39999389648</ele>
        <time>2014-04-19T08:01:33.000Z</time>
      </trkpt>
      <trkpt lat="45.86893" lon="4.71405">
        <ele>186</ele>
        <time>2014-04-19T08:01:43.000Z</time>
      </trkpt>
      <trkpt lat="45.86888" lon="4.71398">
        <ele>186.60000610352</ele>
        <time>2014-04-19T08:01:50.000Z</time>
      </trkpt>
      <trkpt lat="45.86888" lon="4.71396">
        <ele>186.80000305176</ele>
        <time>2014-04-19T08:01:51.000Z</time>
      </trkpt>
      <trkpt lat="45.86888" lon="4.71391">
        <ele>187</ele>
        <time>2014-04-19T08:01:54.000Z</time>
      </trkpt>
      <trkpt lat="45.86888" lon="4.71388">
        <ele>187.19999694824</ele>
        <time>2014-04-19T08:01:56.000Z</time>
      </trkpt>
      <trkpt lat="45.86887" lon="4.71385">
        <ele>187.80000305176</ele>
        <time>2014-04-19T08:02:00.000Z</time>
      </trkpt>
      <trkpt lat="45.86887" lon="4.71383">
        <ele>188</ele>
        <time>2014-04-19T08:02:02.000Z</time>
      </trkpt>
      <trkpt lat="45.86885" lon="4.71375">
        <ele>188.80000305176</ele>
        <time>2014-04-19T08:02:10.000Z</time>
      </trkpt>
      <trkpt lat="45.86884" lon="4.71373">
        <ele>189.19999694824</ele>
        <time>2014-04-19T08:02:13.000Z</time>
      </trkpt>
      <trkpt lat="45.86878" lon="4.71319">
        <ele>192</ele>
        <time>2014-04-19T08:02:53.000Z</time>
      </trkpt>
      <trkpt lat="45.86878" lon="4.71318">
        <ele>192</ele>
        <time>2014-04-19T08:02:54.000Z</time>
      </trkpt>
      <trkpt lat="45.86877" lon="4.713">
        <ele>192.19999694824</ele>
        <time>2014-04-19T08:03:04.000Z</time>
      </trkpt>
      <trkpt lat="45.86875" lon="4.71278">
        <ele>192.60000610352</ele>
        <time>2014-04-19T08:03:14.000Z</time>
      </trkpt>
      <trkpt lat="45.86873" lon="4.71256">
        <ele>193.39999389648</ele>
        <time>2014-04-19T08:03:26.000Z</time>
      </trkpt>
      <trkpt lat="45.86871" lon="4.71239">
        <ele>194</ele>
        <time>2014-04-19T08:03:35.000Z</time>
      </trkpt>
      <trkpt lat="45.86871" lon="4.71218">
        <ele>194.19999694824</ele>
        <time>2014-04-19T08:03:46.000Z</time>
      </trkpt>
      <trkpt lat="45.86871" lon="4.712">
        <ele>194.60000610352</ele>
        <time>2014-04-19T08:03:55.000Z</time>
      </trkpt>
      <trkpt lat="45.86874" lon="4.71186">
        <ele>194.39999389648</ele>
        <time>2014-04-19T08:04:03.000Z</time>
      </trkpt>
      <trkpt lat="45.86875" lon="4.71172">
        <ele>194.39999389648</ele>
        <time>2014-04-19T08:04:10.000Z</time>
      </trkpt>
      <trkpt lat="45.86873" lon="4.71151">
        <ele>194.39999389648</ele>
        <time>2014-04-19T08:04:21.000Z</time>
      </trkpt>
      <trkpt lat="45.86872" lon="4.71142">
        <ele>194.60000610352</ele>
        <time>2014-04-19T08:04:28.000Z</time>
      </trkpt>
      <trkpt lat="45.86873" lon="4.7114">
        <ele>194.60000610352</ele>
        <time>2014-04-19T08:04:31.000Z</time>
      </trkpt>
      <trkpt lat="45.86873" lon="4.7113">
        <ele>194.80000305176</ele>
        <time>2014-04-19T08:06:46.000Z</time>
      </trkpt>
      <trkpt lat="45.86873" lon="4.71129">
        <ele>194.80000305176</ele>
        <time>2014-04-19T08:06:47.000Z</time>
      </trkpt>
      <trkpt lat="45.86872" lon="4.71116">
        <ele>194.80000305176</ele>
        <time>2014-04-19T08:06:56.000Z</time>
      </trkpt>
      <trkpt lat="45.86871" lon="4.71103">
        <ele>194.80000305176</ele>
        <time>2014-04-19T08:07:05.000Z</time>
      </trkpt>
      <trkpt lat="45.86873" lon="4.71084">
        <ele>195.39999389648</ele>
        <time>2014-04-19T08:07:15.000Z</time>
      </trkpt>
      <trkpt lat="45.86875" lon="4.71075">
        <ele>196</ele>
        <time>2014-04-19T08:07:21.000Z</time>
      </trkpt>
      <trkpt lat="45.86874" lon="4.71074">
        <ele>196.19999694824</ele>
        <time>2014-04-19T08:07:23.000Z</time>
      </trkpt>
      <trkpt lat="45.86872" lon="4.71041">
        <ele>198.39999389648</ele>
        <time>2014-04-19T08:08:07.000Z</time>
      </trkpt>
      <trkpt lat="45.86872" lon="4.71035">
        <ele>198.39999389648</ele>
        <time>2014-04-19T08:08:10.000Z</time>
      </trkpt>
      <trkpt lat="45.8687" lon="4.71013">
        <ele>198.60000610352</ele>
        <time>2014-04-19T08:08:22.000Z</time>
      </trkpt>
      <trkpt lat="45.86866" lon="4.70988">
        <ele>198.60000610352</ele>
        <time>2014-04-19T08:08:36.000Z</time>
      </trkpt>
      <trkpt lat="45.86863" lon="4.70969">
        <ele>198.80000305176</ele>
        <time>2014-04-19T08:08:46.000Z</time>
      </trkpt>
      <trkpt lat="45.86857" lon="4.7095">
        <ele>198.80000305176</ele>
        <time>2014-04-19T08:08:57.000Z</time>
      </trkpt>
      <trkpt lat="45.86851" lon="4.70935">
        <ele>198.60000610352</ele>
        <time>2014-04-19T08:09:03.000Z</time>
      </trkpt>
      <trkpt lat="45.86843" lon="4.70918">
        <ele>198.39999389648</ele>
        <time>2014-04-19T08:09:12.000Z</time>
      </trkpt>
      <trkpt lat="45.86838" lon="4.70901">
        <ele>198.19999694824</ele>
        <time>2014-04-19T08:09:19.000Z</time>
      </trkpt>
      <trkpt lat="45.86832" lon="4.70888">
        <ele>198</ele>
        <time>2014-04-19T08:09:26.000Z</time>
      </trkpt>
      <trkpt lat="45.86821" lon="4.70868">
        <ele>197.60000610352</ele>
        <time>2014-04-19T08:09:37.000Z</time>
      </trkpt>
      <trkpt lat="45.86816" lon="4.70855">
        <ele>197.39999389648</ele>
        <time>2014-04-19T08:09:44.000Z</time>
      </trkpt>
      <trkpt lat="45.86814" lon="4.70849">
        <ele>197.19999694824</ele>
        <time>2014-04-19T08:09:51.000Z</time>
      </trkpt>
      <trkpt lat="45.86809" lon="4.70841">
        <ele>197</ele>
        <time>2014-04-19T08:09:59.000Z</time>
      </trkpt>
      <trkpt lat="45.86798" lon="4.70828">
        <ele>196.60000610352</ele>
        <time>2014-04-19T08:10:08.000Z</time>
      </trkpt>
      <trkpt lat="45.8679" lon="4.70824">
        <ele>196.39999389648</ele>
        <time>2014-04-19T08:10:12.000Z</time>
      </trkpt>
      <trkpt lat="45.86788" lon="4.70822">
        <ele>196.19999694824</ele>
        <time>2014-04-19T08:10:13.000Z</time>
      </trkpt>
      <trkpt lat="45.86781" lon="4.70812">
        <ele>196</ele>
        <time>2014-04-19T08:10:17.000Z</time>
      </trkpt>
      <trkpt lat="45.86779" lon="4.70808">
        <ele>196</ele>
        <time>2014-04-19T08:10:18.000Z</time>
      </trkpt>
      <trkpt lat="45.86774" lon="4.70782">
        <ele>195.39999389648</ele>
        <time>2014-04-19T08:10:24.000Z</time>
      </trkpt>
      <trkpt lat="45.86776" lon="4.70754">
        <ele>195</ele>
        <time>2014-04-19T08:10:29.000Z</time>
      </trkpt>
      <trkpt lat="45.86773" lon="4.70745">
        <ele>194.80000305176</ele>
        <time>2014-04-19T08:10:31.000Z</time>
      </trkpt>
      <trkpt lat="45.86766" lon="4.70738">
        <ele>194.60000610352</ele>
        <time>2014-04-19T08:10:33.000Z</time>
      </trkpt>
      <trkpt lat="45.86759" lon="4.70732">
        <ele>194.39999389648</ele>
        <time>2014-04-19T08:10:36.000Z</time>
      </trkpt>
      <trkpt lat="45.86758" lon="4.7073">
        <ele>194.39999389648</ele>
        <time>2014-04-19T08:10:37.000Z</time>
      </trkpt>
      <trkpt lat="45.86757" lon="4.70729">
        <ele>194.60000610352</ele>
        <time>2014-04-19T08:10:40.000Z</time>
      </trkpt>
      <trkpt lat="45.8672" lon="4.70701">
        <ele>193.39999389648</ele>
        <time>2014-04-19T08:12:19.000Z</time>
      </trkpt>
      <trkpt lat="45.86718" lon="4.70697">
        <ele>193.19999694824</ele>
        <time>2014-04-19T08:12:22.000Z</time>
      </trkpt>
      <trkpt lat="45.86717" lon="4.70696">
        <ele>193</ele>
        <time>2014-04-19T08:12:23.000Z</time>
      </trkpt>
      <trkpt lat="45.86711" lon="4.70682">
        <ele>192.39999389648</ele>
        <time>2014-04-19T08:12:29.000Z</time>
      </trkpt>
      <trkpt lat="45.86708" lon="4.70669">
        <ele>192</ele>
        <time>2014-04-19T08:12:34.000Z</time>
      </trkpt>
      <trkpt lat="45.86704" lon="4.7066">
        <ele>191.19999694824</ele>
        <time>2014-04-19T08:12:39.000Z</time>
      </trkpt>
      <trkpt lat="45.86696" lon="4.70641">
        <ele>191</ele>
        <time>2014-04-19T08:12:44.000Z</time>
      </trkpt>
      <trkpt lat="45.86689" lon="4.7063">
        <ele>190.39999389648</ele>
        <time>2014-04-19T08:12:50.000Z</time>
      </trkpt>
      <trkpt lat="45.86688" lon="4.70628">
        <ele>190.39999389648</ele>
        <time>2014-04-19T08:12:51.000Z</time>
      </trkpt>
      <trkpt lat="45.86683" lon="4.70619">
        <ele>190.19999694824</ele>
        <time>2014-04-19T08:12:57.000Z</time>
      </trkpt>
      <trkpt lat="45.86682" lon="4.70617">
        <ele>190</ele>
        <time>2014-04-19T08:12:59.000Z</time>
      </trkpt>
      <trkpt lat="45.86672" lon="4.70617">
        <ele>189.60000610352</ele>
        <time>2014-04-19T08:13:04.000Z</time>
      </trkpt>
      <trkpt lat="45.86657" lon="4.70624">
        <ele>189.60000610352</ele>
        <time>2014-04-19T08:13:09.000Z</time>
      </trkpt>
      <trkpt lat="45.86645" lon="4.70642">
        <ele>189.39999389648</ele>
        <time>2014-04-19T08:13:14.000Z</time>
      </trkpt>
      <trkpt lat="45.86629" lon="4.70643">
        <ele>189.39999389648</ele>
        <time>2014-04-19T08:13:18.000Z</time>
      </trkpt>
      <trkpt lat="45.86611" lon="4.70633">
        <ele>189.19999694824</ele>
        <time>2014-04-19T08:13:23.000Z</time>
      </trkpt>
      <trkpt lat="45.86607" lon="4.70632">
        <ele>189.19999694824</ele>
        <time>2014-04-19T08:13:24.000Z</time>
      </trkpt>
      <trkpt lat="45.86596" lon="4.70633">
        <ele>189</ele>
        <time>2014-04-19T08:13:27.000Z</time>
      </trkpt>
      <trkpt lat="45.86588" lon="4.70632">
        <ele>188.39999389648</ele>
        <time>2014-04-19T08:13:31.000Z</time>
      </trkpt>
      <trkpt lat="45.8657" lon="4.70631">
        <ele>187.80000305176</ele>
        <time>2014-04-19T08:13:38.000Z</time>
      </trkpt>
      <trkpt lat="45.86553" lon="4.70617">
        <ele>187.19999694824</ele>
        <time>2014-04-19T08:13:43.000Z</time>
      </trkpt>
      <trkpt lat="45.8654" lon="4.70591">
        <ele>186.80000305176</ele>
        <time>2014-04-19T08:13:48.000Z</time>
      </trkpt>
      <trkpt lat="45.86537" lon="4.70588">
        <ele>186.60000610352</ele>
        <time>2014-04-19T08:13:49.000Z</time>
      </trkpt>
      <trkpt lat="45.86533" lon="4.70582">
        <ele>186.60000610352</ele>
        <time>2014-04-19T08:13:52.000Z</time>
      </trkpt>
      <trkpt lat="45.86531" lon="4.7058">
        <ele>186.39999389648</ele>
        <time>2014-04-19T08:13:53.000Z</time>
      </trkpt>
      <trkpt lat="45.86523" lon="4.70571">
        <ele>186.19999694824</ele>
        <time>2014-04-19T08:14:00.000Z</time>
      </trkpt>
      <trkpt lat="45.86511" lon="4.70563">
        <ele>186</ele>
        <time>2014-04-19T08:14:07.000Z</time>
      </trkpt>
      <trkpt lat="45.86497" lon="4.70559">
        <ele>185.80000305176</ele>
        <time>2014-04-19T08:14:13.000Z</time>
      </trkpt>
      <trkpt lat="45.86496" lon="4.7056">
        <ele>185.80000305176</ele>
        <time>2014-04-19T08:14:14.000Z</time>
      </trkpt>
      <trkpt lat="45.8649" lon="4.7056">
        <ele>185.80000305176</ele>
        <time>2014-04-19T08:14:18.000Z</time>
      </trkpt>
      <trkpt lat="45.86489" lon="4.7056">
        <ele>185.60000610352</ele>
        <time>2014-04-19T08:14:19.000Z</time>
      </trkpt>
      <trkpt lat="45.86476" lon="4.70558">
        <ele>185.60000610352</ele>
        <time>2014-04-19T08:14:28.000Z</time>
      </trkpt>
      <trkpt lat="45.86466" lon="4.70559">
        <ele>185.19999694824</ele>
        <time>2014-04-19T08:14:34.000Z</time>
      </trkpt>
      <trkpt lat="45.86446" lon="4.70563">
        <ele>185</ele>
        <time>2014-04-19T08:14:44.000Z</time>
      </trkpt>
      <trkpt lat="45.86432" lon="4.70564">
        <ele>184.80000305176</ele>
        <time>2014-04-19T08:14:51.000Z</time>
      </trkpt>
      <trkpt lat="45.86421" lon="4.70566">
        <ele>184.80000305176</ele>
        <time>2014-04-19T08:14:59.000Z</time>
      </trkpt>
      <trkpt lat="45.86408" lon="4.70571">
        <ele>184.80000305176</ele>
        <time>2014-04-19T08:15:07.000Z</time>
      </trkpt>
      <trkpt lat="45.86402" lon="4.70572">
        <ele>185</ele>
        <time>2014-04-19T08:15:12.000Z</time>
      </trkpt>
      <trkpt lat="45.864" lon="4.70572">
        <ele>185</ele>
        <time>2014-04-19T08:15:13.000Z</time>
      </trkpt>
      <trkpt lat="45.86396" lon="4.70574">
        <ele>185</ele>
        <time>2014-04-19T08:15:15.000Z</time>
      </trkpt>
      <trkpt lat="45.86392" lon="4.70576">
        <ele>185</ele>
        <time>2014-04-19T08:15:17.000Z</time>
      </trkpt>
      <trkpt lat="45.86387" lon="4.70574">
        <ele>185.19999694824</ele>
        <time>2014-04-19T08:15:22.000Z</time>
      </trkpt>
      <trkpt lat="45.86386" lon="4.70572">
        <ele>185.19999694824</ele>
        <time>2014-04-19T08:15:23.000Z</time>
      </trkpt>
      <trkpt lat="45.8638" lon="4.70559">
        <ele>185.19999694824</ele>
        <time>2014-04-19T08:15:32.000Z</time>
      </trkpt>
      <trkpt lat="45.86378" lon="4.70542">
        <ele>185.39999389648</ele>
        <time>2014-04-19T08:15:38.000Z</time>
      </trkpt>
      <trkpt lat="45.86376" lon="4.70526">
        <ele>185.60000610352</ele>
        <time>2014-04-19T08:15:45.000Z</time>
      </trkpt>
      <trkpt lat="45.86374" lon="4.70511">
        <ele>186</ele>
        <time>2014-04-19T08:15:52.000Z</time>
      </trkpt>
      <trkpt lat="45.86377" lon="4.70494">
        <ele>186.39999389648</ele>
        <time>2014-04-19T08:15:59.000Z</time>
      </trkpt>
      <trkpt lat="45.86381" lon="4.7048">
        <ele>186.60000610352</ele>
        <time>2014-04-19T08:16:07.000Z</time>
      </trkpt>
      <trkpt lat="45.86382" lon="4.70476">
        <ele>186.39999389648</ele>
        <time>2014-04-19T08:16:09.000Z</time>
      </trkpt>
      <trkpt lat="45.86385" lon="4.70471">
        <ele>186.39999389648</ele>
        <time>2014-04-19T08:16:12.000Z</time>
      </trkpt>
      <trkpt lat="45.8639" lon="4.7046">
        <ele>186.19999694824</ele>
        <time>2014-04-19T08:16:18.000Z</time>
      </trkpt>
      <trkpt lat="45.86396" lon="4.70443">
        <ele>186.39999389648</ele>
        <time>2014-04-19T08:16:24.000Z</time>
      </trkpt>
      <trkpt lat="45.86396" lon="4.70428">
        <ele>187.39999389648</ele>
        <time>2014-04-19T08:16:32.000Z</time>
      </trkpt>
      <trkpt lat="45.86395" lon="4.70413">
        <ele>188.39999389648</ele>
        <time>2014-04-19T08:16:39.000Z</time>
      </trkpt>
      <trkpt lat="45.86392" lon="4.70401">
        <ele>188.80000305176</ele>
        <time>2014-04-19T08:16:44.000Z</time>
      </trkpt>
      <trkpt lat="45.86387" lon="4.70389">
        <ele>188.80000305176</ele>
        <time>2014-04-19T08:16:52.000Z</time>
      </trkpt>
      <trkpt lat="45.86377" lon="4.70375">
        <ele>188.80000305176</ele>
        <time>2014-04-19T08:16:59.000Z</time>
      </trkpt>
      <trkpt lat="45.86369" lon="4.70365">
        <ele>188.60000610352</ele>
        <time>2014-04-19T08:17:06.000Z</time>
      </trkpt>
      <trkpt lat="45.86362" lon="4.70359">
        <ele>188.19999694824</ele>
        <time>2014-04-19T08:17:12.000Z</time>
      </trkpt>
      <trkpt lat="45.86356" lon="4.70353">
        <ele>188.19999694824</ele>
        <time>2014-04-19T08:17:17.000Z</time>
      </trkpt>
      <trkpt lat="45.86354" lon="4.7035">
        <ele>188.19999694824</ele>
        <time>2014-04-19T08:17:19.000Z</time>
      </trkpt>
      <trkpt lat="45.86345" lon="4.70343">
        <ele>187.60000610352</ele>
        <time>2014-04-19T08:17:26.000Z</time>
      </trkpt>
      <trkpt lat="45.86338" lon="4.70332">
        <ele>187.19999694824</ele>
        <time>2014-04-19T08:17:32.000Z</time>
      </trkpt>
      <trkpt lat="45.86333" lon="4.7032">
        <ele>186.80000305176</ele>
        <time>2014-04-19T08:17:39.000Z</time>
      </trkpt>
      <trkpt lat="45.86333" lon="4.70301">
        <ele>186.39999389648</ele>
        <time>2014-04-19T08:17:43.000Z</time>
      </trkpt>
      <trkpt lat="45.86338" lon="4.70266">
        <ele>186</ele>
        <time>2014-04-19T08:17:48.000Z</time>
      </trkpt>
      <trkpt lat="45.86345" lon="4.70246">
        <ele>185.80000305176</ele>
        <time>2014-04-19T08:17:51.000Z</time>
      </trkpt>
      <trkpt lat="45.8635" lon="4.70234">
        <ele>185.60000610352</ele>
        <time>2014-04-19T08:17:53.000Z</time>
      </trkpt>
      <trkpt lat="45.86354" lon="4.70229">
        <ele>185.60000610352</ele>
        <time>2014-04-19T08:17:54.000Z</time>
      </trkpt>
      <trkpt lat="45.8636" lon="4.70219">
        <ele>185.39999389648</ele>
        <time>2014-04-19T08:17:56.000Z</time>
      </trkpt>
      <trkpt lat="45.86366" lon="4.70206">
        <ele>185</ele>
        <time>2014-04-19T08:17:58.000Z</time>
      </trkpt>
      <trkpt lat="45.86383" lon="4.70166">
        <ele>184.60000610352</ele>
        <time>2014-04-19T08:18:03.000Z</time>
      </trkpt>
      <trkpt lat="45.86389" lon="4.70131">
        <ele>184.39999389648</ele>
        <time>2014-04-19T08:18:06.000Z</time>
      </trkpt>
      <trkpt lat="45.86397" lon="4.7007">
        <ele>184.19999694824</ele>
        <time>2014-04-19T08:18:12.000Z</time>
      </trkpt>
      <trkpt lat="45.86403" lon="4.70025">
        <ele>184.60000610352</ele>
        <time>2014-04-19T08:18:17.000Z</time>
      </trkpt>
      <trkpt lat="45.86406" lon="4.69992">
        <ele>185</ele>
        <time>2014-04-19T08:18:22.000Z</time>
      </trkpt>
      <trkpt lat="45.86407" lon="4.69975">
        <ele>185.39999389648</ele>
        <time>2014-04-19T08:18:27.000Z</time>
      </trkpt>
      <trkpt lat="45.86407" lon="4.69955">
        <ele>186.39999389648</ele>
        <time>2014-04-19T08:18:35.000Z</time>
      </trkpt>
      <trkpt lat="45.86406" lon="4.69943">
        <ele>187.19999694824</ele>
        <time>2014-04-19T08:18:41.000Z</time>
      </trkpt>
      <trkpt lat="45.86406" lon="4.69923">
        <ele>188.19999694824</ele>
        <time>2014-04-19T08:18:49.000Z</time>
      </trkpt>
      <trkpt lat="45.86405" lon="4.69906">
        <ele>189.39999389648</ele>
        <time>2014-04-19T08:18:57.000Z</time>
      </trkpt>
      <trkpt lat="45.86402" lon="4.69888">
        <ele>190.19999694824</ele>
        <time>2014-04-19T08:19:05.000Z</time>
      </trkpt>
      <trkpt lat="45.864" lon="4.6987">
        <ele>191</ele>
        <time>2014-04-19T08:19:12.000Z</time>
      </trkpt>
      <trkpt lat="45.86397" lon="4.69858">
        <ele>191.19999694824</ele>
        <time>2014-04-19T08:19:19.000Z</time>
      </trkpt>
      <trkpt lat="45.86391" lon="4.69844">
        <ele>191</ele>
        <time>2014-04-19T08:19:26.000Z</time>
      </trkpt>
      <trkpt lat="45.86379" lon="4.69825">
        <ele>190.80000305176</ele>
        <time>2014-04-19T08:19:34.000Z</time>
      </trkpt>
      <trkpt lat="45.8637" lon="4.69809">
        <ele>190.60000610352</ele>
        <time>2014-04-19T08:19:41.000Z</time>
      </trkpt>
      <trkpt lat="45.8636" lon="4.69789">
        <ele>190.60000610352</ele>
        <time>2014-04-19T08:19:49.000Z</time>
      </trkpt>
      <trkpt lat="45.86354" lon="4.69778">
        <ele>191</ele>
        <time>2014-04-19T08:19:55.000Z</time>
      </trkpt>
      <trkpt lat="45.86344" lon="4.69767">
        <ele>191</ele>
        <time>2014-04-19T08:20:02.000Z</time>
      </trkpt>
      <trkpt lat="45.86338" lon="4.69759">
        <ele>191</ele>
        <time>2014-04-19T08:20:10.000Z</time>
      </trkpt>
      <trkpt lat="45.86336" lon="4.69757">
        <ele>191</ele>
        <time>2014-04-19T08:20:14.000Z</time>
      </trkpt>
      <trkpt lat="45.8631" lon="4.6975">
        <ele>197.39999389648</ele>
        <time>2014-04-19T08:31:13.000Z</time>
      </trkpt>
      <trkpt lat="45.86309" lon="4.6975">
        <ele>197.39999389648</ele>
        <time>2014-04-19T08:31:14.000Z</time>
      </trkpt>
      <trkpt lat="45.86303" lon="4.69752">
        <ele>197</ele>
        <time>2014-04-19T08:31:19.000Z</time>
      </trkpt>
      <trkpt lat="45.86302" lon="4.69752">
        <ele>197</ele>
        <time>2014-04-19T08:31:20.000Z</time>
      </trkpt>
      <trkpt lat="45.86298" lon="4.69753">
        <ele>196.60000610352</ele>
        <time>2014-04-19T08:31:25.000Z</time>
      </trkpt>
      <trkpt lat="45.86298" lon="4.69752">
        <ele>196.60000610352</ele>
        <time>2014-04-19T08:31:26.000Z</time>
      </trkpt>
      <trkpt lat="45.86298" lon="4.69748">
        <ele>196.39999389648</ele>
        <time>2014-04-19T08:31:29.000Z</time>
      </trkpt>
      <trkpt lat="45.86298" lon="4.69747">
        <ele>196.19999694824</ele>
        <time>2014-04-19T08:31:30.000Z</time>
      </trkpt>
      <trkpt lat="45.86297" lon="4.69747">
        <ele>196.19999694824</ele>
        <time>2014-04-19T08:31:32.000Z</time>
      </trkpt>
      <trkpt lat="45.86312" lon="4.69748">
        <ele>196.80000305176</ele>
        <time>2014-04-19T08:32:25.000Z</time>
      </trkpt>
      <trkpt lat="45.86313" lon="4.69746">
        <ele>196.80000305176</ele>
        <time>2014-04-19T08:32:27.000Z</time>
      </trkpt>
      <trkpt lat="45.86314" lon="4.69746">
        <ele>196.80000305176</ele>
        <time>2014-04-19T08:32:29.000Z</time>
      </trkpt>
      <trkpt lat="45.86315" lon="4.69748">
        <ele>198</ele>
        <time>2014-04-19T08:34:54.000Z</time>
      </trkpt>
      <trkpt lat="45.86315" lon="4.69747">
        <ele>198.19999694824</ele>
        <time>2014-04-19T08:34:55.000Z</time>
      </trkpt>
      <trkpt lat="45.86342" lon="4.69691">
        <ele>198.19999694824</ele>
        <time>2014-04-19T08:37:25.000Z</time>
      </trkpt>
      <trkpt lat="45.86343" lon="4.6969">
        <ele>198.19999694824</ele>
        <time>2014-04-19T08:37:26.000Z</time>
      </trkpt>
      <trkpt lat="45.86354" lon="4.69675">
        <ele>198.19999694824</ele>
        <time>2014-04-19T08:37:37.000Z</time>
      </trkpt>
      <trkpt lat="45.86364" lon="4.69661">
        <ele>198.39999389648</ele>
        <time>2014-04-19T08:37:48.000Z</time>
      </trkpt>
      <trkpt lat="45.86378" lon="4.69642">
        <ele>198.60000610352</ele>
        <time>2014-04-19T08:38:03.000Z</time>
      </trkpt>
      <trkpt lat="45.86388" lon="4.69627">
        <ele>198.60000610352</ele>
        <time>2014-04-19T08:38:14.000Z</time>
      </trkpt>
      <trkpt lat="45.86393" lon="4.69614">
        <ele>199</ele>
        <time>2014-04-19T08:38:24.000Z</time>
      </trkpt>
      <trkpt lat="45.86396" lon="4.69598">
        <ele>199.60000610352</ele>
        <time>2014-04-19T08:38:34.000Z</time>
      </trkpt>
      <trkpt lat="45.86394" lon="4.69587">
        <ele>200</ele>
        <time>2014-04-19T08:38:41.000Z</time>
      </trkpt>
      <trkpt lat="45.86395" lon="4.69571">
        <ele>199.80000305176</ele>
        <time>2014-04-19T08:38:52.000Z</time>
      </trkpt>
      <trkpt lat="45.86397" lon="4.69556">
        <ele>199</ele>
        <time>2014-04-19T08:39:03.000Z</time>
      </trkpt>
      <trkpt lat="45.86394" lon="4.69542">
        <ele>198.39999389648</ele>
        <time>2014-04-19T08:39:12.000Z</time>
      </trkpt>
      <trkpt lat="45.86393" lon="4.69526">
        <ele>197.39999389648</ele>
        <time>2014-04-19T08:39:22.000Z</time>
      </trkpt>
      <trkpt lat="45.86389" lon="4.69506">
        <ele>197.19999694824</ele>
        <time>2014-04-19T08:39:33.000Z</time>
      </trkpt>
      <trkpt lat="45.86386" lon="4.69486">
        <ele>197.39999389648</ele>
        <time>2014-04-19T08:39:44.000Z</time>
      </trkpt>
      <trkpt lat="45.86387" lon="4.69466">
        <ele>199.80000305176</ele>
        <time>2014-04-19T08:39:55.000Z</time>
      </trkpt>
      <trkpt lat="45.86392" lon="4.69461">
        <ele>202.39999389648</ele>
        <time>2014-04-19T08:40:03.000Z</time>
      </trkpt>
      <trkpt lat="45.86404" lon="4.69464">
        <ele>205.60000610352</ele>
        <time>2014-04-19T08:40:14.000Z</time>
      </trkpt>
      <trkpt lat="45.86414" lon="4.69464">
        <ele>207.19999694824</ele>
        <time>2014-04-19T08:40:23.000Z</time>
      </trkpt>
      <trkpt lat="45.86429" lon="4.69461">
        <ele>208.80000305176</ele>
        <time>2014-04-19T08:40:35.000Z</time>
      </trkpt>
      <trkpt lat="45.86446" lon="4.69456">
        <ele>209.80000305176</ele>
        <time>2014-04-19T08:40:47.000Z</time>
      </trkpt>
      <trkpt lat="45.86461" lon="4.69454">
        <ele>211.60000610352</ele>
        <time>2014-04-19T08:40:58.000Z</time>
      </trkpt>
      <trkpt lat="45.86468" lon="4.69453">
        <ele>213</ele>
        <time>2014-04-19T08:41:05.000Z</time>
      </trkpt>
      <trkpt lat="45.86471" lon="4.69453">
        <ele>214</ele>
        <time>2014-04-19T08:41:10.000Z</time>
      </trkpt>
      <trkpt lat="45.86471" lon="4.69413">
        <ele>222.19999694824</ele>
        <time>2014-04-19T08:42:49.000Z</time>
      </trkpt>
      <trkpt lat="45.86471" lon="4.69412">
        <ele>222.19999694824</ele>
        <time>2014-04-19T08:42:50.000Z</time>
      </trkpt>
      <trkpt lat="45.86464" lon="4.694">
        <ele>222</ele>
        <time>2014-04-19T08:42:59.000Z</time>
      </trkpt>
      <trkpt lat="45.86458" lon="4.69392">
        <ele>222</ele>
        <time>2014-04-19T08:43:07.000Z</time>
      </trkpt>
      <trkpt lat="45.86458" lon="4.69391">
        <ele>222</ele>
        <time>2014-04-19T08:43:09.000Z</time>
      </trkpt>
      <trkpt lat="45.8652" lon="4.69327">
        <ele>221.80000305176</ele>
        <time>2014-04-19T08:44:20.000Z</time>
      </trkpt>
      <trkpt lat="45.86522" lon="4.69325">
        <ele>221.80000305176</ele>
        <time>2014-04-19T08:44:22.000Z</time>
      </trkpt>
      <trkpt lat="45.86529" lon="4.69318">
        <ele>221.80000305176</ele>
        <time>2014-04-19T08:44:29.000Z</time>
      </trkpt>
      <trkpt lat="45.86536" lon="4.69309">
        <ele>221.80000305176</ele>
        <time>2014-04-19T08:44:37.000Z</time>
      </trkpt>
      <trkpt lat="45.86537" lon="4.69308">
        <ele>221.60000610352</ele>
        <time>2014-04-19T08:44:38.000Z</time>
      </trkpt>
      <trkpt lat="45.86542" lon="4.69301">
        <ele>221.60000610352</ele>
        <time>2014-04-19T08:44:44.000Z</time>
      </trkpt>
      <trkpt lat="45.86548" lon="4.69296">
        <ele>221.60000610352</ele>
        <time>2014-04-19T08:44:49.000Z</time>
      </trkpt>
      <trkpt lat="45.86555" lon="4.69287">
        <ele>221.60000610352</ele>
        <time>2014-04-19T08:44:57.000Z</time>
      </trkpt>
      <trkpt lat="45.86562" lon="4.69279">
        <ele>221.80000305176</ele>
        <time>2014-04-19T08:45:05.000Z</time>
      </trkpt>
      <trkpt lat="45.86571" lon="4.69271">
        <ele>222</ele>
        <time>2014-04-19T08:45:15.000Z</time>
      </trkpt>
      <trkpt lat="45.86579" lon="4.69263">
        <ele>222.39999389648</ele>
        <time>2014-04-19T08:45:24.000Z</time>
      </trkpt>
      <trkpt lat="45.8658" lon="4.69262">
        <ele>222.60000610352</ele>
        <time>2014-04-19T08:45:26.000Z</time>
      </trkpt>
      <trkpt lat="45.86582" lon="4.6926">
        <ele>222.60000610352</ele>
        <time>2014-04-19T08:45:29.000Z</time>
      </trkpt>
      <trkpt lat="45.86587" lon="4.69255">
        <ele>222.80000305176</ele>
        <time>2014-04-19T08:45:35.000Z</time>
      </trkpt>
      <trkpt lat="45.86588" lon="4.69253">
        <ele>222.80000305176</ele>
        <time>2014-04-19T08:45:37.000Z</time>
      </trkpt>
      <trkpt lat="45.86594" lon="4.69247">
        <ele>223</ele>
        <time>2014-04-19T08:45:44.000Z</time>
      </trkpt>
      <trkpt lat="45.86598" lon="4.69241">
        <ele>223.19999694824</ele>
        <time>2014-04-19T08:45:53.000Z</time>
      </trkpt>
      <trkpt lat="45.86599" lon="4.69238">
        <ele>223.19999694824</ele>
        <time>2014-04-19T08:45:59.000Z</time>
      </trkpt>
      <trkpt lat="45.86684" lon="4.69146">
        <ele>224.80000305176</ele>
        <time>2014-04-19T08:47:41.000Z</time>
      </trkpt>
      <trkpt lat="45.86684" lon="4.69145">
        <ele>224.80000305176</ele>
        <time>2014-04-19T08:47:42.000Z</time>
      </trkpt>
      <trkpt lat="45.86684" lon="4.69132">
        <ele>224.60000610352</ele>
        <time>2014-04-19T08:47:50.000Z</time>
      </trkpt>
      <trkpt lat="45.86682" lon="4.69118">
        <ele>224.60000610352</ele>
        <time>2014-04-19T08:47:58.000Z</time>
      </trkpt>
      <trkpt lat="45.86678" lon="4.69103">
        <ele>224.60000610352</ele>
        <time>2014-04-19T08:48:07.000Z</time>
      </trkpt>
      <trkpt lat="45.86675" lon="4.69089">
        <ele>224.60000610352</ele>
        <time>2014-04-19T08:48:15.000Z</time>
      </trkpt>
      <trkpt lat="45.86672" lon="4.69076">
        <ele>224.80000305176</ele>
        <time>2014-04-19T08:48:23.000Z</time>
      </trkpt>
      <trkpt lat="45.86672" lon="4.69062">
        <ele>225.80000305176</ele>
        <time>2014-04-19T08:48:33.000Z</time>
      </trkpt>
      <trkpt lat="45.86672" lon="4.69061">
        <ele>226</ele>
        <time>2014-04-19T08:48:34.000Z</time>
      </trkpt>
      <trkpt lat="45.86674" lon="4.69059">
        <ele>226.39999389648</ele>
        <time>2014-04-19T08:48:38.000Z</time>
      </trkpt>
      <trkpt lat="45.86675" lon="4.69059">
        <ele>226.60000610352</ele>
        <time>2014-04-19T08:48:40.000Z</time>
      </trkpt>
      <trkpt lat="45.87084" lon="4.68647">
        <ele>310.60000610352</ele>
        <time>2014-04-19T09:05:50.000Z</time>
      </trkpt>
      <trkpt lat="45.87086" lon="4.68646">
        <ele>310.79998779297</ele>
        <time>2014-04-19T09:05:52.000Z</time>
      </trkpt>
      <trkpt lat="45.87099" lon="4.68639">
        <ele>311.60000610352</ele>
        <time>2014-04-19T09:06:04.000Z</time>
      </trkpt>
      <trkpt lat="45.87106" lon="4.68637">
        <ele>311.79998779297</ele>
        <time>2014-04-19T09:06:12.000Z</time>
      </trkpt>
      <trkpt lat="45.87118" lon="4.68633">
        <ele>312.39999389648</ele>
        <time>2014-04-19T09:06:22.000Z</time>
      </trkpt>
      <trkpt lat="45.87129" lon="4.6863">
        <ele>313</ele>
        <time>2014-04-19T09:06:31.000Z</time>
      </trkpt>
      <trkpt lat="45.87141" lon="4.68626">
        <ele>314</ele>
        <time>2014-04-19T09:06:42.000Z</time>
      </trkpt>
      <trkpt lat="45.87152" lon="4.68622">
        <ele>315</ele>
        <time>2014-04-19T09:06:53.000Z</time>
      </trkpt>
      <trkpt lat="45.87156" lon="4.68619">
        <ele>315.39999389648</ele>
        <time>2014-04-19T09:06:59.000Z</time>
      </trkpt>
      <trkpt lat="45.87161" lon="4.68615">
        <ele>316.20001220703</ele>
        <time>2014-04-19T09:07:07.000Z</time>
      </trkpt>
      <trkpt lat="45.87161" lon="4.68612">
        <ele>316.60000610352</ele>
        <time>2014-04-19T09:07:11.000Z</time>
      </trkpt>
      <trkpt lat="45.8718" lon="4.68582">
        <ele>317.60000610352</ele>
        <time>2014-04-19T09:08:36.000Z</time>
      </trkpt>
      <trkpt lat="45.87186" lon="4.68577">
        <ele>317.60000610352</ele>
        <time>2014-04-19T09:08:43.000Z</time>
      </trkpt>
      <trkpt lat="45.87187" lon="4.68576">
        <ele>317.39999389648</ele>
        <time>2014-04-19T09:08:46.000Z</time>
      </trkpt>
      <trkpt lat="45.87166" lon="4.68596">
        <ele>317.39999389648</ele>
        <time>2014-04-19T09:09:12.000Z</time>
      </trkpt>
      <trkpt lat="45.87165" lon="4.68598">
        <ele>317.39999389648</ele>
        <time>2014-04-19T09:09:13.000Z</time>
      </trkpt>
      <trkpt lat="45.87164" lon="4.68603">
        <ele>317.60000610352</ele>
        <time>2014-04-19T09:09:16.000Z</time>
      </trkpt>
      <trkpt lat="45.87164" lon="4.68608">
        <ele>318</ele>
        <time>2014-04-19T09:09:19.000Z</time>
      </trkpt>
      <trkpt lat="45.87169" lon="4.68617">
        <ele>318.39999389648</ele>
        <time>2014-04-19T09:09:27.000Z</time>
      </trkpt>
      <trkpt lat="45.8718" lon="4.68622">
        <ele>318.79998779297</ele>
        <time>2014-04-19T09:09:35.000Z</time>
      </trkpt>
      <trkpt lat="45.87199" lon="4.68625">
        <ele>319.39999389648</ele>
        <time>2014-04-19T09:09:45.000Z</time>
      </trkpt>
      <trkpt lat="45.87218" lon="4.68621">
        <ele>319.79998779297</ele>
        <time>2014-04-19T09:09:55.000Z</time>
      </trkpt>
      <trkpt lat="45.87226" lon="4.68616">
        <ele>320</ele>
        <time>2014-04-19T09:10:01.000Z</time>
      </trkpt>
      <trkpt lat="45.87237" lon="4.68609">
        <ele>320.60000610352</ele>
        <time>2014-04-19T09:10:08.000Z</time>
      </trkpt>
      <trkpt lat="45.87246" lon="4.68603">
        <ele>321.20001220703</ele>
        <time>2014-04-19T09:10:15.000Z</time>
      </trkpt>
      <trkpt lat="45.87253" lon="4.68599">
        <ele>322</ele>
        <time>2014-04-19T09:10:22.000Z</time>
      </trkpt>
      <trkpt lat="45.87264" lon="4.68592">
        <ele>323.39999389648</ele>
        <time>2014-04-19T09:10:33.000Z</time>
      </trkpt>
      <trkpt lat="45.87275" lon="4.68585">
        <ele>324.79998779297</ele>
        <time>2014-04-19T09:10:43.000Z</time>
      </trkpt>
      <trkpt lat="45.87284" lon="4.68576">
        <ele>325.79998779297</ele>
        <time>2014-04-19T09:10:50.000Z</time>
      </trkpt>
      <trkpt lat="45.87298" lon="4.68564">
        <ele>327.39999389648</ele>
        <time>2014-04-19T09:10:59.000Z</time>
      </trkpt>
      <trkpt lat="45.87307" lon="4.68554">
        <ele>329</ele>
        <time>2014-04-19T09:11:06.000Z</time>
      </trkpt>
      <trkpt lat="45.87316" lon="4.68547">
        <ele>330.60000610352</ele>
        <time>2014-04-19T09:11:14.000Z</time>
      </trkpt>
      <trkpt lat="45.87323" lon="4.68539">
        <ele>331.79998779297</ele>
        <time>2014-04-19T09:11:21.000Z</time>
      </trkpt>
      <trkpt lat="45.87332" lon="4.68527">
        <ele>333</ele>
        <time>2014-04-19T09:11:28.000Z</time>
      </trkpt>
      <trkpt lat="45.87344" lon="4.68516">
        <ele>334.20001220703</ele>
        <time>2014-04-19T09:11:34.000Z</time>
      </trkpt>
      <trkpt lat="45.87355" lon="4.68506">
        <ele>335.60000610352</ele>
        <time>2014-04-19T09:11:41.000Z</time>
      </trkpt>
      <trkpt lat="45.87369" lon="4.68496">
        <ele>337.79998779297</ele>
        <time>2014-04-19T09:11:50.000Z</time>
      </trkpt>
      <trkpt lat="45.87377" lon="4.68486">
        <ele>339.39999389648</ele>
        <time>2014-04-19T09:11:57.000Z</time>
      </trkpt>
      <trkpt lat="45.87386" lon="4.68475">
        <ele>341.39999389648</ele>
        <time>2014-04-19T09:12:07.000Z</time>
      </trkpt>
      <trkpt lat="45.87397" lon="4.68464">
        <ele>342.79998779297</ele>
        <time>2014-04-19T09:12:17.000Z</time>
      </trkpt>
      <trkpt lat="45.87409" lon="4.68452">
        <ele>343.79998779297</ele>
        <time>2014-04-19T09:12:28.000Z</time>
      </trkpt>
      <trkpt lat="45.8742" lon="4.68439">
        <ele>344.39999389648</ele>
        <time>2014-04-19T09:12:39.000Z</time>
      </trkpt>
      <trkpt lat="45.87431" lon="4.68428">
        <ele>344.79998779297</ele>
        <time>2014-04-19T09:12:47.000Z</time>
      </trkpt>
      <trkpt lat="45.87442" lon="4.68419">
        <ele>345</ele>
        <time>2014-04-19T09:12:57.000Z</time>
      </trkpt>
      <trkpt lat="45.87451" lon="4.68414">
        <ele>344.60000610352</ele>
        <time>2014-04-19T09:13:05.000Z</time>
      </trkpt>
      <trkpt lat="45.87456" lon="4.68408">
        <ele>344.39999389648</ele>
        <time>2014-04-19T09:13:12.000Z</time>
      </trkpt>
      <trkpt lat="45.87465" lon="4.68403">
        <ele>343.79998779297</ele>
        <time>2014-04-19T09:13:20.000Z</time>
      </trkpt>
      <trkpt lat="45.87475" lon="4.68395">
        <ele>343</ele>
        <time>2014-04-19T09:13:28.000Z</time>
      </trkpt>
      <trkpt lat="45.87484" lon="4.68382">
        <ele>342.20001220703</ele>
        <time>2014-04-19T09:13:35.000Z</time>
      </trkpt>
      <trkpt lat="45.8749" lon="4.68367">
        <ele>341.79998779297</ele>
        <time>2014-04-19T09:13:42.000Z</time>
      </trkpt>
      <trkpt lat="45.87497" lon="4.68353">
        <ele>341.20001220703</ele>
        <time>2014-04-19T09:13:49.000Z</time>
      </trkpt>
      <trkpt lat="45.87507" lon="4.68338">
        <ele>340.60000610352</ele>
        <time>2014-04-19T09:13:58.000Z</time>
      </trkpt>
      <trkpt lat="45.87516" lon="4.68322">
        <ele>340.20001220703</ele>
        <time>2014-04-19T09:14:06.000Z</time>
      </trkpt>
      <trkpt lat="45.87522" lon="4.68309">
        <ele>340</ele>
        <time>2014-04-19T09:14:14.000Z</time>
      </trkpt>
      <trkpt lat="45.87529" lon="4.68296">
        <ele>339.79998779297</ele>
        <time>2014-04-19T09:14:20.000Z</time>
      </trkpt>
      <trkpt lat="45.87537" lon="4.68284">
        <ele>339.39999389648</ele>
        <time>2014-04-19T09:14:27.000Z</time>
      </trkpt>
      <trkpt lat="45.87542" lon="4.68275">
        <ele>339.20001220703</ele>
        <time>2014-04-19T09:14:34.000Z</time>
      </trkpt>
      <trkpt lat="45.87551" lon="4.68258">
        <ele>339</ele>
        <time>2014-04-19T09:14:44.000Z</time>
      </trkpt>
      <trkpt lat="45.87557" lon="4.68241">
        <ele>338.79998779297</ele>
        <time>2014-04-19T09:14:52.000Z</time>
      </trkpt>
      <trkpt lat="45.87564" lon="4.6822">
        <ele>338.60000610352</ele>
        <time>2014-04-19T09:15:02.000Z</time>
      </trkpt>
      <trkpt lat="45.87568" lon="4.68205">
        <ele>338.79998779297</ele>
        <time>2014-04-19T09:15:09.000Z</time>
      </trkpt>
      <trkpt lat="45.87572" lon="4.68186">
        <ele>339</ele>
        <time>2014-04-19T09:15:21.000Z</time>
      </trkpt>
      <trkpt lat="45.87576" lon="4.68171">
        <ele>339</ele>
        <time>2014-04-19T09:15:29.000Z</time>
      </trkpt>
      <trkpt lat="45.87579" lon="4.68162">
        <ele>339</ele>
        <time>2014-04-19T09:15:37.000Z</time>
      </trkpt>
      <trkpt lat="45.87579" lon="4.68162">
        <ele>339.20001220703</ele>
        <time>2014-04-19T09:15:39.000Z</time>
      </trkpt>
      <trkpt lat="45.8759" lon="4.68143">
        <ele>339.20001220703</ele>
        <time>2014-04-19T09:16:15.000Z</time>
      </trkpt>
      <trkpt lat="45.8759" lon="4.68141">
        <ele>339.20001220703</ele>
        <time>2014-04-19T09:16:16.000Z</time>
      </trkpt>
      <trkpt lat="45.87594" lon="4.68119">
        <ele>339.20001220703</ele>
        <time>2014-04-19T09:16:28.000Z</time>
      </trkpt>
      <trkpt lat="45.876" lon="4.68093">
        <ele>339</ele>
        <time>2014-04-19T09:16:43.000Z</time>
      </trkpt>
      <trkpt lat="45.87605" lon="4.68069">
        <ele>338.79998779297</ele>
        <time>2014-04-19T09:16:56.000Z</time>
      </trkpt>
      <trkpt lat="45.87612" lon="4.68044">
        <ele>338.60000610352</ele>
        <time>2014-04-19T09:17:04.000Z</time>
      </trkpt>
      <trkpt lat="45.87615" lon="4.6802">
        <ele>338.60000610352</ele>
        <time>2014-04-19T09:17:11.000Z</time>
      </trkpt>
      <trkpt lat="45.87617" lon="4.68013">
        <ele>338.60000610352</ele>
        <time>2014-04-19T09:17:15.000Z</time>
      </trkpt>
      <trkpt lat="45.87619" lon="4.68007">
        <ele>338.60000610352</ele>
        <time>2014-04-19T09:17:19.000Z</time>
      </trkpt>
      <trkpt lat="45.87626" lon="4.67984">
        <ele>338.39999389648</ele>
        <time>2014-04-19T09:17:30.000Z</time>
      </trkpt>
      <trkpt lat="45.87633" lon="4.6797">
        <ele>338.60000610352</ele>
        <time>2014-04-19T09:17:38.000Z</time>
      </trkpt>
      <trkpt lat="45.87639" lon="4.67951">
        <ele>340</ele>
        <time>2014-04-19T09:17:45.000Z</time>
      </trkpt>
      <trkpt lat="45.87644" lon="4.6794">
        <ele>340.79998779297</ele>
        <time>2014-04-19T09:17:51.000Z</time>
      </trkpt>
      <trkpt lat="45.87652" lon="4.67923">
        <ele>342.20001220703</ele>
        <time>2014-04-19T09:18:01.000Z</time>
      </trkpt>
      <trkpt lat="45.87658" lon="4.67907">
        <ele>343.20001220703</ele>
        <time>2014-04-19T09:18:09.000Z</time>
      </trkpt>
      <trkpt lat="45.87659" lon="4.67906">
        <ele>343.20001220703</ele>
        <time>2014-04-19T09:18:10.000Z</time>
      </trkpt>
      <trkpt lat="45.87662" lon="4.67895">
        <ele>344</ele>
        <time>2014-04-19T09:18:15.000Z</time>
      </trkpt>
      <trkpt lat="45.87668" lon="4.67878">
        <ele>345</ele>
        <time>2014-04-19T09:18:21.000Z</time>
      </trkpt>
      <trkpt lat="45.87672" lon="4.67871">
        <ele>345.60000610352</ele>
        <time>2014-04-19T09:18:25.000Z</time>
      </trkpt>
      <trkpt lat="45.87672" lon="4.6787">
        <ele>345.60000610352</ele>
        <time>2014-04-19T09:18:26.000Z</time>
      </trkpt>
      <trkpt lat="45.87678" lon="4.67865">
        <ele>346.39999389648</ele>
        <time>2014-04-19T09:18:33.000Z</time>
      </trkpt>
      <trkpt lat="45.87688" lon="4.67861">
        <ele>347.39999389648</ele>
        <time>2014-04-19T09:18:40.000Z</time>
      </trkpt>
      <trkpt lat="45.87702" lon="4.67855">
        <ele>348.39999389648</ele>
        <time>2014-04-19T09:18:48.000Z</time>
      </trkpt>
      <trkpt lat="45.87712" lon="4.6785">
        <ele>349.39999389648</ele>
        <time>2014-04-19T09:18:55.000Z</time>
      </trkpt>
      <trkpt lat="45.87727" lon="4.67846">
        <ele>351.20001220703</ele>
        <time>2014-04-19T09:19:05.000Z</time>
      </trkpt>
      <trkpt lat="45.87736" lon="4.67842">
        <ele>352.20001220703</ele>
        <time>2014-04-19T09:19:12.000Z</time>
      </trkpt>
      <trkpt lat="45.8775" lon="4.67837">
        <ele>353.79998779297</ele>
        <time>2014-04-19T09:19:23.000Z</time>
      </trkpt>
      <trkpt lat="45.87765" lon="4.67833">
        <ele>354.79998779297</ele>
        <time>2014-04-19T09:19:31.000Z</time>
      </trkpt>
      <trkpt lat="45.87774" lon="4.6783">
        <ele>355.60000610352</ele>
        <time>2014-04-19T09:19:39.000Z</time>
      </trkpt>
      <trkpt lat="45.87793" lon="4.67827">
        <ele>356.60000610352</ele>
        <time>2014-04-19T09:19:54.000Z</time>
      </trkpt>
      <trkpt lat="45.87807" lon="4.67827">
        <ele>357</ele>
        <time>2014-04-19T09:20:00.000Z</time>
      </trkpt>
      <trkpt lat="45.87815" lon="4.67825">
        <ele>357.39999389648</ele>
        <time>2014-04-19T09:20:06.000Z</time>
      </trkpt>
      <trkpt lat="45.87825" lon="4.67821">
        <ele>357.79998779297</ele>
        <time>2014-04-19T09:20:13.000Z</time>
      </trkpt>
      <trkpt lat="45.87837" lon="4.67814">
        <ele>358</ele>
        <time>2014-04-19T09:20:20.000Z</time>
      </trkpt>
      <trkpt lat="45.87848" lon="4.67799">
        <ele>358.39999389648</ele>
        <time>2014-04-19T09:20:26.000Z</time>
      </trkpt>
      <trkpt lat="45.87855" lon="4.67788">
        <ele>358.79998779297</ele>
        <time>2014-04-19T09:20:31.000Z</time>
      </trkpt>
      <trkpt lat="45.87856" lon="4.67774">
        <ele>359.60000610352</ele>
        <time>2014-04-19T09:20:39.000Z</time>
      </trkpt>
      <trkpt lat="45.87863" lon="4.67764">
        <ele>361</ele>
        <time>2014-04-19T09:20:47.000Z</time>
      </trkpt>
      <trkpt lat="45.87872" lon="4.67753">
        <ele>362</ele>
        <time>2014-04-19T09:20:52.000Z</time>
      </trkpt>
      <trkpt lat="45.87877" lon="4.67743">
        <ele>363.39999389648</ele>
        <time>2014-04-19T09:20:59.000Z</time>
      </trkpt>
      <trkpt lat="45.87884" lon="4.67731">
        <ele>364.79998779297</ele>
        <time>2014-04-19T09:21:07.000Z</time>
      </trkpt>
      <trkpt lat="45.87889" lon="4.67718">
        <ele>366.20001220703</ele>
        <time>2014-04-19T09:21:16.000Z</time>
      </trkpt>
      <trkpt lat="45.87895" lon="4.67696">
        <ele>367.39999389648</ele>
        <time>2014-04-19T09:21:30.000Z</time>
      </trkpt>
      <trkpt lat="45.87896" lon="4.67676">
        <ele>367.20001220703</ele>
        <time>2014-04-19T09:21:42.000Z</time>
      </trkpt>
      <trkpt lat="45.87899" lon="4.6766">
        <ele>366.60000610352</ele>
        <time>2014-04-19T09:21:52.000Z</time>
      </trkpt>
      <trkpt lat="45.87908" lon="4.67649">
        <ele>365.79998779297</ele>
        <time>2014-04-19T09:22:02.000Z</time>
      </trkpt>
      <trkpt lat="45.87916" lon="4.67641">
        <ele>365.20001220703</ele>
        <time>2014-04-19T09:22:09.000Z</time>
      </trkpt>
      <trkpt lat="45.87926" lon="4.67626">
        <ele>364.39999389648</ele>
        <time>2014-04-19T09:22:16.000Z</time>
      </trkpt>
      <trkpt lat="45.87931" lon="4.67616">
        <ele>363.79998779297</ele>
        <time>2014-04-19T09:22:23.000Z</time>
      </trkpt>
      <trkpt lat="45.87941" lon="4.676">
        <ele>362.60000610352</ele>
        <time>2014-04-19T09:22:34.000Z</time>
      </trkpt>
      <trkpt lat="45.87952" lon="4.67587">
        <ele>361.79998779297</ele>
        <time>2014-04-19T09:22:43.000Z</time>
      </trkpt>
      <trkpt lat="45.87967" lon="4.67575">
        <ele>361.20001220703</ele>
        <time>2014-04-19T09:22:50.000Z</time>
      </trkpt>
      <trkpt lat="45.87975" lon="4.67569">
        <ele>360.79998779297</ele>
        <time>2014-04-19T09:22:56.000Z</time>
      </trkpt>
      <trkpt lat="45.87983" lon="4.6756">
        <ele>360.60000610352</ele>
        <time>2014-04-19T09:23:02.000Z</time>
      </trkpt>
      <trkpt lat="45.87991" lon="4.67539">
        <ele>360.39999389648</ele>
        <time>2014-04-19T09:23:08.000Z</time>
      </trkpt>
      <trkpt lat="45.87991" lon="4.67529">
        <ele>360.39999389648</ele>
        <time>2014-04-19T09:23:12.000Z</time>
      </trkpt>
      <trkpt lat="45.87992" lon="4.67515">
        <ele>360.20001220703</ele>
        <time>2014-04-19T09:23:19.000Z</time>
      </trkpt>
      <trkpt lat="45.87992" lon="4.67502">
        <ele>360.39999389648</ele>
        <time>2014-04-19T09:23:23.000Z</time>
      </trkpt>
      <trkpt lat="45.87992" lon="4.6749">
        <ele>360.39999389648</ele>
        <time>2014-04-19T09:23:30.000Z</time>
      </trkpt>
      <trkpt lat="45.87998" lon="4.67492">
        <ele>360.39999389648</ele>
        <time>2014-04-19T09:23:36.000Z</time>
      </trkpt>
      <trkpt lat="45.88005" lon="4.67498">
        <ele>360.39999389648</ele>
        <time>2014-04-19T09:23:43.000Z</time>
      </trkpt>
      <trkpt lat="45.88015" lon="4.67502">
        <ele>360.20001220703</ele>
        <time>2014-04-19T09:23:52.000Z</time>
      </trkpt>
      <trkpt lat="45.88028" lon="4.67504">
        <ele>360</ele>
        <time>2014-04-19T09:24:02.000Z</time>
      </trkpt>
      <trkpt lat="45.88039" lon="4.67508">
        <ele>359.79998779297</ele>
        <time>2014-04-19T09:24:11.000Z</time>
      </trkpt>
      <trkpt lat="45.88051" lon="4.67513">
        <ele>359.39999389648</ele>
        <time>2014-04-19T09:24:19.000Z</time>
      </trkpt>
      <trkpt lat="45.88061" lon="4.67516">
        <ele>359.20001220703</ele>
        <time>2014-04-19T09:24:26.000Z</time>
      </trkpt>
      <trkpt lat="45.88072" lon="4.6752">
        <ele>358.79998779297</ele>
        <time>2014-04-19T09:24:33.000Z</time>
      </trkpt>
      <trkpt lat="45.88083" lon="4.67523">
        <ele>358.39999389648</ele>
        <time>2014-04-19T09:24:40.000Z</time>
      </trkpt>
      <trkpt lat="45.88095" lon="4.67527">
        <ele>358</ele>
        <time>2014-04-19T09:24:47.000Z</time>
      </trkpt>
      <trkpt lat="45.88107" lon="4.67532">
        <ele>357.39999389648</ele>
        <time>2014-04-19T09:24:55.000Z</time>
      </trkpt>
      <trkpt lat="45.88121" lon="4.67537">
        <ele>356.79998779297</ele>
        <time>2014-04-19T09:25:04.000Z</time>
      </trkpt>
      <trkpt lat="45.88124" lon="4.67535">
        <ele>356.60000610352</ele>
        <time>2014-04-19T09:25:07.000Z</time>
      </trkpt>
      <trkpt lat="45.88126" lon="4.67531">
        <ele>356.39999389648</ele>
        <time>2014-04-19T09:25:09.000Z</time>
      </trkpt>
      <trkpt lat="45.88129" lon="4.67524">
        <ele>356</ele>
        <time>2014-04-19T09:25:13.000Z</time>
      </trkpt>
      <trkpt lat="45.88131" lon="4.67515">
        <ele>355.60000610352</ele>
        <time>2014-04-19T09:25:18.000Z</time>
      </trkpt>
      <trkpt lat="45.88137" lon="4.67495">
        <ele>354.60000610352</ele>
        <time>2014-04-19T09:25:27.000Z</time>
      </trkpt>
      <trkpt lat="45.88143" lon="4.67476">
        <ele>353.79998779297</ele>
        <time>2014-04-19T09:25:35.000Z</time>
      </trkpt>
      <trkpt lat="45.88148" lon="4.6746">
        <ele>353</ele>
        <time>2014-04-19T09:25:43.000Z</time>
      </trkpt>
      <trkpt lat="45.88151" lon="4.67446">
        <ele>352.20001220703</ele>
        <time>2014-04-19T09:25:50.000Z</time>
      </trkpt>
      <trkpt lat="45.88155" lon="4.67424">
        <ele>351.39999389648</ele>
        <time>2014-04-19T09:25:57.000Z</time>
      </trkpt>
      <trkpt lat="45.8816" lon="4.67411">
        <ele>350.79998779297</ele>
        <time>2014-04-19T09:26:04.000Z</time>
      </trkpt>
      <trkpt lat="45.88164" lon="4.67396">
        <ele>350.20001220703</ele>
        <time>2014-04-19T09:26:11.000Z</time>
      </trkpt>
      <trkpt lat="45.88169" lon="4.67382">
        <ele>349.79998779297</ele>
        <time>2014-04-19T09:26:17.000Z</time>
      </trkpt>
      <trkpt lat="45.8817" lon="4.6738">
        <ele>349.60000610352</ele>
        <time>2014-04-19T09:26:20.000Z</time>
      </trkpt>
      <trkpt lat="45.88172" lon="4.67377">
        <ele>349.39999389648</ele>
        <time>2014-04-19T09:26:22.000Z</time>
      </trkpt>
      <trkpt lat="45.88173" lon="4.67374">
        <ele>349.39999389648</ele>
        <time>2014-04-19T09:26:24.000Z</time>
      </trkpt>
      <trkpt lat="45.88182" lon="4.67369">
        <ele>349.20001220703</ele>
        <time>2014-04-19T09:26:29.000Z</time>
      </trkpt>
      <trkpt lat="45.88191" lon="4.67369">
        <ele>349</ele>
        <time>2014-04-19T09:26:34.000Z</time>
      </trkpt>
      <trkpt lat="45.88205" lon="4.67369">
        <ele>348.79998779297</ele>
        <time>2014-04-19T09:26:42.000Z</time>
      </trkpt>
      <trkpt lat="45.88215" lon="4.67369">
        <ele>348.60000610352</ele>
        <time>2014-04-19T09:26:49.000Z</time>
      </trkpt>
      <trkpt lat="45.88226" lon="4.67372">
        <ele>348.39999389648</ele>
        <time>2014-04-19T09:26:56.000Z</time>
      </trkpt>
      <trkpt lat="45.88231" lon="4.67372">
        <ele>348.39999389648</ele>
        <time>2014-04-19T09:26:59.000Z</time>
      </trkpt>
      <trkpt lat="45.8824" lon="4.67374">
        <ele>348.20001220703</ele>
        <time>2014-04-19T09:27:04.000Z</time>
      </trkpt>
      <trkpt lat="45.88251" lon="4.67374">
        <ele>348</ele>
        <time>2014-04-19T09:27:10.000Z</time>
      </trkpt>
      <trkpt lat="45.88265" lon="4.67376">
        <ele>347.79998779297</ele>
        <time>2014-04-19T09:27:19.000Z</time>
      </trkpt>
      <trkpt lat="45.8828" lon="4.67379">
        <ele>347.60000610352</ele>
        <time>2014-04-19T09:27:30.000Z</time>
      </trkpt>
      <trkpt lat="45.88294" lon="4.67384">
        <ele>347.39999389648</ele>
        <time>2014-04-19T09:27:40.000Z</time>
      </trkpt>
      <trkpt lat="45.88307" lon="4.67389">
        <ele>347</ele>
        <time>2014-04-19T09:27:49.000Z</time>
      </trkpt>
      <trkpt lat="45.88316" lon="4.67393">
        <ele>346.79998779297</ele>
        <time>2014-04-19T09:27:55.000Z</time>
      </trkpt>
      <trkpt lat="45.88328" lon="4.67399">
        <ele>346.60000610352</ele>
        <time>2014-04-19T09:28:03.000Z</time>
      </trkpt>
      <trkpt lat="45.88338" lon="4.67404">
        <ele>346.39999389648</ele>
        <time>2014-04-19T09:28:10.000Z</time>
      </trkpt>
      <trkpt lat="45.88353" lon="4.67411">
        <ele>346.20001220703</ele>
        <time>2014-04-19T09:28:20.000Z</time>
      </trkpt>
      <trkpt lat="45.88364" lon="4.67417">
        <ele>345.79998779297</ele>
        <time>2014-04-19T09:28:28.000Z</time>
      </trkpt>
      <trkpt lat="45.88376" lon="4.67423">
        <ele>345.20001220703</ele>
        <time>2014-04-19T09:28:37.000Z</time>
      </trkpt>
      <trkpt lat="45.88391" lon="4.6743">
        <ele>344.39999389648</ele>
        <time>2014-04-19T09:28:47.000Z</time>
      </trkpt>
      <trkpt lat="45.88403" lon="4.67437">
        <ele>343.79998779297</ele>
        <time>2014-04-19T09:28:55.000Z</time>
      </trkpt>
      <trkpt lat="45.88418" lon="4.67443">
        <ele>342.79998779297</ele>
        <time>2014-04-19T09:29:06.000Z</time>
      </trkpt>
      <trkpt lat="45.8843" lon="4.67446">
        <ele>342.20001220703</ele>
        <time>2014-04-19T09:29:13.000Z</time>
      </trkpt>
      <trkpt lat="45.88437" lon="4.67447">
        <ele>341.79998779297</ele>
        <time>2014-04-19T09:29:19.000Z</time>
      </trkpt>
      <trkpt lat="45.88445" lon="4.67448">
        <ele>341.39999389648</ele>
        <time>2014-04-19T09:29:24.000Z</time>
      </trkpt>
      <trkpt lat="45.88458" lon="4.6745">
        <ele>340.39999389648</ele>
        <time>2014-04-19T09:29:34.000Z</time>
      </trkpt>
      <trkpt lat="45.88474" lon="4.6745">
        <ele>339.39999389648</ele>
        <time>2014-04-19T09:29:46.000Z</time>
      </trkpt>
      <trkpt lat="45.88483" lon="4.67441">
        <ele>338.79998779297</ele>
        <time>2014-04-19T09:29:54.000Z</time>
      </trkpt>
      <trkpt lat="45.88493" lon="4.67432">
        <ele>338.39999389648</ele>
        <time>2014-04-19T09:30:03.000Z</time>
      </trkpt>
      <trkpt lat="45.88504" lon="4.67435">
        <ele>338</ele>
        <time>2014-04-19T09:30:09.000Z</time>
      </trkpt>
      <trkpt lat="45.88519" lon="4.67442">
        <ele>337.39999389648</ele>
        <time>2014-04-19T09:30:20.000Z</time>
      </trkpt>
      <trkpt lat="45.88519" lon="4.67442">
        <ele>337.39999389648</ele>
        <time>2014-04-19T09:30:22.000Z</time>
      </trkpt>
      <trkpt lat="45.88529" lon="4.67446">
        <ele>336.79998779297</ele>
        <time>2014-04-19T09:30:34.000Z</time>
      </trkpt>
      <trkpt lat="45.88531" lon="4.67447">
        <ele>336.79998779297</ele>
        <time>2014-04-19T09:30:35.000Z</time>
      </trkpt>
      <trkpt lat="45.88545" lon="4.67454">
        <ele>336.39999389648</ele>
        <time>2014-04-19T09:30:45.000Z</time>
      </trkpt>
      <trkpt lat="45.88555" lon="4.6746">
        <ele>336.20001220703</ele>
        <time>2014-04-19T09:30:51.000Z</time>
      </trkpt>
      <trkpt lat="45.88568" lon="4.67466">
        <ele>335.79998779297</ele>
        <time>2014-04-19T09:31:01.000Z</time>
      </trkpt>
      <trkpt lat="45.8858" lon="4.67472">
        <ele>335.79998779297</ele>
        <time>2014-04-19T09:31:08.000Z</time>
      </trkpt>
      <trkpt lat="45.88591" lon="4.67478">
        <ele>335.79998779297</ele>
        <time>2014-04-19T09:31:16.000Z</time>
      </trkpt>
      <trkpt lat="45.8861" lon="4.6749">
        <ele>336.20001220703</ele>
        <time>2014-04-19T09:31:31.000Z</time>
      </trkpt>
      <trkpt lat="45.88624" lon="4.675">
        <ele>336.60000610352</ele>
        <time>2014-04-19T09:31:43.000Z</time>
      </trkpt>
      <trkpt lat="45.88628" lon="4.67498">
        <ele>336.39999389648</ele>
        <time>2014-04-19T09:31:48.000Z</time>
      </trkpt>
      <trkpt lat="45.88629" lon="4.67497">
        <ele>336.39999389648</ele>
        <time>2014-04-19T09:31:49.000Z</time>
      </trkpt>
      <trkpt lat="45.88631" lon="4.6749">
        <ele>336.39999389648</ele>
        <time>2014-04-19T09:31:55.000Z</time>
      </trkpt>
      <trkpt lat="45.88632" lon="4.67488">
        <ele>336.39999389648</ele>
        <time>2014-04-19T09:31:56.000Z</time>
      </trkpt>
      <trkpt lat="45.88637" lon="4.67474">
        <ele>336.39999389648</ele>
        <time>2014-04-19T09:32:06.000Z</time>
      </trkpt>
      <trkpt lat="45.88641" lon="4.67469">
        <ele>336.39999389648</ele>
        <time>2014-04-19T09:32:10.000Z</time>
      </trkpt>
      <trkpt lat="45.88641" lon="4.67465">
        <ele>336.39999389648</ele>
        <time>2014-04-19T09:32:12.000Z</time>
      </trkpt>
      <trkpt lat="45.88642" lon="4.67456">
        <ele>336.39999389648</ele>
        <time>2014-04-19T09:32:15.000Z</time>
      </trkpt>
      <trkpt lat="45.88642" lon="4.67448">
        <ele>336.39999389648</ele>
        <time>2014-04-19T09:32:18.000Z</time>
      </trkpt>
      <trkpt lat="45.88643" lon="4.67431">
        <ele>337</ele>
        <time>2014-04-19T09:32:25.000Z</time>
      </trkpt>
      <trkpt lat="45.88644" lon="4.67418">
        <ele>338</ele>
        <time>2014-04-19T09:32:31.000Z</time>
      </trkpt>
      <trkpt lat="45.88643" lon="4.67401">
        <ele>339.60000610352</ele>
        <time>2014-04-19T09:32:41.000Z</time>
      </trkpt>
      <trkpt lat="45.88642" lon="4.67378">
        <ele>342.39999389648</ele>
        <time>2014-04-19T09:32:54.000Z</time>
      </trkpt>
      <trkpt lat="45.8864" lon="4.67354">
        <ele>344.79998779297</ele>
        <time>2014-04-19T09:33:05.000Z</time>
      </trkpt>
      <trkpt lat="45.88638" lon="4.67321">
        <ele>346.39999389648</ele>
        <time>2014-04-19T09:33:12.000Z</time>
      </trkpt>
      <trkpt lat="45.88637" lon="4.67297">
        <ele>348</ele>
        <time>2014-04-19T09:33:18.000Z</time>
      </trkpt>
      <trkpt lat="45.88637" lon="4.67277">
        <ele>349.20001220703</ele>
        <time>2014-04-19T09:33:23.000Z</time>
      </trkpt>
      <trkpt lat="45.88637" lon="4.67268">
        <ele>350.39999389648</ele>
        <time>2014-04-19T09:33:28.000Z</time>
      </trkpt>
      <trkpt lat="45.88637" lon="4.67252">
        <ele>352.60000610352</ele>
        <time>2014-04-19T09:33:38.000Z</time>
      </trkpt>
      <trkpt lat="45.88638" lon="4.67239">
        <ele>354.20001220703</ele>
        <time>2014-04-19T09:33:45.000Z</time>
      </trkpt>
      <trkpt lat="45.88638" lon="4.67222">
        <ele>355.60000610352</ele>
        <time>2014-04-19T09:33:50.000Z</time>
      </trkpt>
      <trkpt lat="45.88639" lon="4.67195">
        <ele>357.60000610352</ele>
        <time>2014-04-19T09:33:57.000Z</time>
      </trkpt>
      <trkpt lat="45.88642" lon="4.67181">
        <ele>359.39999389648</ele>
        <time>2014-04-19T09:34:03.000Z</time>
      </trkpt>
      <trkpt lat="45.88646" lon="4.67164">
        <ele>362</ele>
        <time>2014-04-19T09:34:11.000Z</time>
      </trkpt>
      <trkpt lat="45.8865" lon="4.67158">
        <ele>363.39999389648</ele>
        <time>2014-04-19T09:34:16.000Z</time>
      </trkpt>
      <trkpt lat="45.88663" lon="4.67149">
        <ele>365.60000610352</ele>
        <time>2014-04-19T09:34:23.000Z</time>
      </trkpt>
      <trkpt lat="45.8867" lon="4.67145">
        <ele>367.20001220703</ele>
        <time>2014-04-19T09:34:28.000Z</time>
      </trkpt>
      <trkpt lat="45.8868" lon="4.67142">
        <ele>369.39999389648</ele>
        <time>2014-04-19T09:34:36.000Z</time>
      </trkpt>
      <trkpt lat="45.88693" lon="4.6714">
        <ele>371.79998779297</ele>
        <time>2014-04-19T09:34:43.000Z</time>
      </trkpt>
      <trkpt lat="45.88708" lon="4.67142">
        <ele>374.60000610352</ele>
        <time>2014-04-19T09:34:51.000Z</time>
      </trkpt>
      <trkpt lat="45.88718" lon="4.67144">
        <ele>377.39999389648</ele>
        <time>2014-04-19T09:34:59.000Z</time>
      </trkpt>
      <trkpt lat="45.88732" lon="4.67149">
        <ele>381</ele>
        <time>2014-04-19T09:35:09.000Z</time>
      </trkpt>
      <trkpt lat="45.88743" lon="4.67155">
        <ele>382.60000610352</ele>
        <time>2014-04-19T09:35:14.000Z</time>
      </trkpt>
      <trkpt lat="45.88755" lon="4.6716">
        <ele>385.20001220703</ele>
        <time>2014-04-19T09:35:22.000Z</time>
      </trkpt>
      <trkpt lat="45.88766" lon="4.67157">
        <ele>386.79998779297</ele>
        <time>2014-04-19T09:35:28.000Z</time>
      </trkpt>
      <trkpt lat="45.88768" lon="4.67149">
        <ele>388</ele>
        <time>2014-04-19T09:35:33.000Z</time>
      </trkpt>
      <trkpt lat="45.8877" lon="4.67131">
        <ele>390.20001220703</ele>
        <time>2014-04-19T09:35:43.000Z</time>
      </trkpt>
      <trkpt lat="45.88771" lon="4.6711">
        <ele>392.20001220703</ele>
        <time>2014-04-19T09:35:54.000Z</time>
      </trkpt>
      <trkpt lat="45.88773" lon="4.67088">
        <ele>393.79998779297</ele>
        <time>2014-04-19T09:36:06.000Z</time>
      </trkpt>
      <trkpt lat="45.88777" lon="4.67065">
        <ele>395.20001220703</ele>
        <time>2014-04-19T09:36:18.000Z</time>
      </trkpt>
      <trkpt lat="45.88781" lon="4.67045">
        <ele>396.60000610352</ele>
        <time>2014-04-19T09:36:28.000Z</time>
      </trkpt>
      <trkpt lat="45.8878" lon="4.6703">
        <ele>397.79998779297</ele>
        <time>2014-04-19T09:36:36.000Z</time>
      </trkpt>
      <trkpt lat="45.8878" lon="4.67017">
        <ele>398.60000610352</ele>
        <time>2014-04-19T09:36:43.000Z</time>
      </trkpt>
      <trkpt lat="45.88779" lon="4.67">
        <ele>399.60000610352</ele>
        <time>2014-04-19T09:36:52.000Z</time>
      </trkpt>
      <trkpt lat="45.88778" lon="4.66983">
        <ele>400.60000610352</ele>
        <time>2014-04-19T09:37:00.000Z</time>
      </trkpt>
      <trkpt lat="45.88776" lon="4.66967">
        <ele>401.60000610352</ele>
        <time>2014-04-19T09:37:08.000Z</time>
      </trkpt>
      <trkpt lat="45.88781" lon="4.66951">
        <ele>403</ele>
        <time>2014-04-19T09:37:18.000Z</time>
      </trkpt>
      <trkpt lat="45.88791" lon="4.66951">
        <ele>403.79998779297</ele>
        <time>2014-04-19T09:37:25.000Z</time>
      </trkpt>
      <trkpt lat="45.88804" lon="4.66951">
        <ele>404.20001220703</ele>
        <time>2014-04-19T09:37:33.000Z</time>
      </trkpt>
      <trkpt lat="45.88818" lon="4.66951">
        <ele>404.60000610352</ele>
        <time>2014-04-19T09:37:43.000Z</time>
      </trkpt>
      <trkpt lat="45.88834" lon="4.66944">
        <ele>404.79998779297</ele>
        <time>2014-04-19T09:37:56.000Z</time>
      </trkpt>
      <trkpt lat="45.88848" lon="4.66936">
        <ele>405.20001220703</ele>
        <time>2014-04-19T09:38:06.000Z</time>
      </trkpt>
      <trkpt lat="45.88858" lon="4.6693">
        <ele>405.39999389648</ele>
        <time>2014-04-19T09:38:13.000Z</time>
      </trkpt>
      <trkpt lat="45.88871" lon="4.66922">
        <ele>405.60000610352</ele>
        <time>2014-04-19T09:38:20.000Z</time>
      </trkpt>
      <trkpt lat="45.88879" lon="4.66915">
        <ele>405.60000610352</ele>
        <time>2014-04-19T09:38:27.000Z</time>
      </trkpt>
      <trkpt lat="45.88894" lon="4.66906">
        <ele>406</ele>
        <time>2014-04-19T09:38:38.000Z</time>
      </trkpt>
      <trkpt lat="45.8891" lon="4.66898">
        <ele>406</ele>
        <time>2014-04-19T09:38:47.000Z</time>
      </trkpt>
      <trkpt lat="45.8892" lon="4.66893">
        <ele>406.20001220703</ele>
        <time>2014-04-19T09:38:54.000Z</time>
      </trkpt>
      <trkpt lat="45.88928" lon="4.66889">
        <ele>406.20001220703</ele>
        <time>2014-04-19T09:39:01.000Z</time>
      </trkpt>
      <trkpt lat="45.8894" lon="4.66884">
        <ele>406.79998779297</ele>
        <time>2014-04-19T09:39:08.000Z</time>
      </trkpt>
      <trkpt lat="45.88955" lon="4.66872">
        <ele>409.20001220703</ele>
        <time>2014-04-19T09:39:19.000Z</time>
      </trkpt>
      <trkpt lat="45.88966" lon="4.66865">
        <ele>410.39999389648</ele>
        <time>2014-04-19T09:39:26.000Z</time>
      </trkpt>
      <trkpt lat="45.88978" lon="4.66853">
        <ele>412</ele>
        <time>2014-04-19T09:39:34.000Z</time>
      </trkpt>
      <trkpt lat="45.88988" lon="4.66839">
        <ele>413.79998779297</ele>
        <time>2014-04-19T09:39:45.000Z</time>
      </trkpt>
      <trkpt lat="45.88997" lon="4.66824">
        <ele>414</ele>
        <time>2014-04-19T09:39:57.000Z</time>
      </trkpt>
      <trkpt lat="45.89007" lon="4.66812">
        <ele>413.79998779297</ele>
        <time>2014-04-19T09:40:04.000Z</time>
      </trkpt>
      <trkpt lat="45.89012" lon="4.66807">
        <ele>413.60000610352</ele>
        <time>2014-04-19T09:40:10.000Z</time>
      </trkpt>
      <trkpt lat="45.89014" lon="4.66807">
        <ele>413.39999389648</ele>
        <time>2014-04-19T09:40:14.000Z</time>
      </trkpt>
      <trkpt lat="45.89017" lon="4.66807">
        <ele>413.20001220703</ele>
        <time>2014-04-19T09:40:17.000Z</time>
      </trkpt>
      <trkpt lat="45.89025" lon="4.66806">
        <ele>413.20001220703</ele>
        <time>2014-04-19T09:40:25.000Z</time>
      </trkpt>
      <trkpt lat="45.8903" lon="4.66808">
        <ele>413.60000610352</ele>
        <time>2014-04-19T09:40:31.000Z</time>
      </trkpt>
      <trkpt lat="45.89038" lon="4.66808">
        <ele>413.79998779297</ele>
        <time>2014-04-19T09:40:38.000Z</time>
      </trkpt>
      <trkpt lat="45.89046" lon="4.66805">
        <ele>414</ele>
        <time>2014-04-19T09:40:46.000Z</time>
      </trkpt>
      <trkpt lat="45.89054" lon="4.66798">
        <ele>413.79998779297</ele>
        <time>2014-04-19T09:40:55.000Z</time>
      </trkpt>
      <trkpt lat="45.89055" lon="4.66796">
        <ele>413.79998779297</ele>
        <time>2014-04-19T09:40:56.000Z</time>
      </trkpt>
      <trkpt lat="45.8906" lon="4.66794">
        <ele>413.60000610352</ele>
        <time>2014-04-19T09:41:01.000Z</time>
      </trkpt>
      <trkpt lat="45.89068" lon="4.66785">
        <ele>413.39999389648</ele>
        <time>2014-04-19T09:41:10.000Z</time>
      </trkpt>
      <trkpt lat="45.89074" lon="4.66777">
        <ele>413.20001220703</ele>
        <time>2014-04-19T09:41:18.000Z</time>
      </trkpt>
      <trkpt lat="45.89071" lon="4.66765">
        <ele>412.79998779297</ele>
        <time>2014-04-19T09:41:25.000Z</time>
      </trkpt>
      <trkpt lat="45.89065" lon="4.66757">
        <ele>412.20001220703</ele>
        <time>2014-04-19T09:41:33.000Z</time>
      </trkpt>
      <trkpt lat="45.89063" lon="4.66754">
        <ele>412</ele>
        <time>2014-04-19T09:41:37.000Z</time>
      </trkpt>
      <trkpt lat="45.89061" lon="4.66749">
        <ele>411.79998779297</ele>
        <time>2014-04-19T09:41:41.000Z</time>
      </trkpt>
      <trkpt lat="45.89053" lon="4.66742">
        <ele>411.39999389648</ele>
        <time>2014-04-19T09:41:47.000Z</time>
      </trkpt>
      <trkpt lat="45.89045" lon="4.66736">
        <ele>411.20001220703</ele>
        <time>2014-04-19T09:41:54.000Z</time>
      </trkpt>
      <trkpt lat="45.89036" lon="4.66727">
        <ele>411</ele>
        <time>2014-04-19T09:42:03.000Z</time>
      </trkpt>
      <trkpt lat="45.89026" lon="4.6672">
        <ele>410.79998779297</ele>
        <time>2014-04-19T09:42:13.000Z</time>
      </trkpt>
      <trkpt lat="45.89014" lon="4.66714">
        <ele>410.79998779297</ele>
        <time>2014-04-19T09:42:21.000Z</time>
      </trkpt>
      <trkpt lat="45.89001" lon="4.66707">
        <ele>410.60000610352</ele>
        <time>2014-04-19T09:42:28.000Z</time>
      </trkpt>
      <trkpt lat="45.88991" lon="4.66704">
        <ele>410.39999389648</ele>
        <time>2014-04-19T09:42:36.000Z</time>
      </trkpt>
      <trkpt lat="45.88976" lon="4.66695">
        <ele>410.20001220703</ele>
        <time>2014-04-19T09:42:49.000Z</time>
      </trkpt>
      <trkpt lat="45.88967" lon="4.66688">
        <ele>410</ele>
        <time>2014-04-19T09:42:56.000Z</time>
      </trkpt>
      <trkpt lat="45.88951" lon="4.66677">
        <ele>409.60000610352</ele>
        <time>2014-04-19T09:43:09.000Z</time>
      </trkpt>
      <trkpt lat="45.88938" lon="4.66668">
        <ele>409.39999389648</ele>
        <time>2014-04-19T09:43:17.000Z</time>
      </trkpt>
      <trkpt lat="45.88931" lon="4.66663">
        <ele>409.20001220703</ele>
        <time>2014-04-19T09:43:23.000Z</time>
      </trkpt>
      <trkpt lat="45.88919" lon="4.66649">
        <ele>408.79998779297</ele>
        <time>2014-04-19T09:43:35.000Z</time>
      </trkpt>
      <trkpt lat="45.8891" lon="4.66638">
        <ele>408.39999389648</ele>
        <time>2014-04-19T09:43:45.000Z</time>
      </trkpt>
      <trkpt lat="45.889" lon="4.66623">
        <ele>408</ele>
        <time>2014-04-19T09:43:53.000Z</time>
      </trkpt>
      <trkpt lat="45.88892" lon="4.66608">
        <ele>407.39999389648</ele>
        <time>2014-04-19T09:44:03.000Z</time>
      </trkpt>
      <trkpt lat="45.88882" lon="4.66589">
        <ele>406.39999389648</ele>
        <time>2014-04-19T09:44:16.000Z</time>
      </trkpt>
      <trkpt lat="45.88872" lon="4.66572">
        <ele>405.60000610352</ele>
        <time>2014-04-19T09:44:27.000Z</time>
      </trkpt>
      <trkpt lat="45.88858" lon="4.66554">
        <ele>404.60000610352</ele>
        <time>2014-04-19T09:44:40.000Z</time>
      </trkpt>
      <trkpt lat="45.88851" lon="4.66545">
        <ele>404</ele>
        <time>2014-04-19T09:44:47.000Z</time>
      </trkpt>
      <trkpt lat="45.88841" lon="4.66535">
        <ele>403.20001220703</ele>
        <time>2014-04-19T09:44:56.000Z</time>
      </trkpt>
      <trkpt lat="45.8883" lon="4.66519">
        <ele>402.39999389648</ele>
        <time>2014-04-19T09:45:05.000Z</time>
      </trkpt>
      <trkpt lat="45.88823" lon="4.66505">
        <ele>401.60000610352</ele>
        <time>2014-04-19T09:45:12.000Z</time>
      </trkpt>
      <trkpt lat="45.88817" lon="4.66488">
        <ele>400.79998779297</ele>
        <time>2014-04-19T09:45:20.000Z</time>
      </trkpt>
      <trkpt lat="45.88814" lon="4.66473">
        <ele>399.79998779297</ele>
        <time>2014-04-19T09:45:28.000Z</time>
      </trkpt>
      <trkpt lat="45.8881" lon="4.66458">
        <ele>398.60000610352</ele>
        <time>2014-04-19T09:45:35.000Z</time>
      </trkpt>
      <trkpt lat="45.88804" lon="4.66445">
        <ele>397.79998779297</ele>
        <time>2014-04-19T09:45:41.000Z</time>
      </trkpt>
      <trkpt lat="45.88801" lon="4.66433">
        <ele>397</ele>
        <time>2014-04-19T09:45:47.000Z</time>
      </trkpt>
      <trkpt lat="45.88796" lon="4.66415">
        <ele>395.79998779297</ele>
        <time>2014-04-19T09:45:55.000Z</time>
      </trkpt>
      <trkpt lat="45.88794" lon="4.66408">
        <ele>395</ele>
        <time>2014-04-19T09:46:00.000Z</time>
      </trkpt>
      <trkpt lat="45.88791" lon="4.66392">
        <ele>393.79998779297</ele>
        <time>2014-04-19T09:46:08.000Z</time>
      </trkpt>
      <trkpt lat="45.88787" lon="4.66374">
        <ele>392.79998779297</ele>
        <time>2014-04-19T09:46:15.000Z</time>
      </trkpt>
      <trkpt lat="45.88784" lon="4.6636">
        <ele>391.79998779297</ele>
        <time>2014-04-19T09:46:21.000Z</time>
      </trkpt>
      <trkpt lat="45.88781" lon="4.6635">
        <ele>390.60000610352</ele>
        <time>2014-04-19T09:46:28.000Z</time>
      </trkpt>
      <trkpt lat="45.88776" lon="4.66336">
        <ele>389.60000610352</ele>
        <time>2014-04-19T09:46:34.000Z</time>
      </trkpt>
      <trkpt lat="45.8877" lon="4.66326">
        <ele>388.60000610352</ele>
        <time>2014-04-19T09:46:40.000Z</time>
      </trkpt>
      <trkpt lat="45.88763" lon="4.66311">
        <ele>387</ele>
        <time>2014-04-19T09:46:50.000Z</time>
      </trkpt>
      <trkpt lat="45.88758" lon="4.66293">
        <ele>385.39999389648</ele>
        <time>2014-04-19T09:47:00.000Z</time>
      </trkpt>
      <trkpt lat="45.8876" lon="4.66291">
        <ele>385.20001220703</ele>
        <time>2014-04-19T09:47:01.000Z</time>
      </trkpt>
      <trkpt lat="45.88768" lon="4.6629">
        <ele>384.79998779297</ele>
        <time>2014-04-19T09:47:04.000Z</time>
      </trkpt>
      <trkpt lat="45.88785" lon="4.66291">
        <ele>383.60000610352</ele>
        <time>2014-04-19T09:47:10.000Z</time>
      </trkpt>
      <trkpt lat="45.88789" lon="4.66291">
        <ele>383.60000610352</ele>
        <time>2014-04-19T09:47:11.000Z</time>
      </trkpt>
      <trkpt lat="45.88818" lon="4.66291">
        <ele>382.20001220703</ele>
        <time>2014-04-19T09:47:18.000Z</time>
      </trkpt>
      <trkpt lat="45.88838" lon="4.66291">
        <ele>381.20001220703</ele>
        <time>2014-04-19T09:47:25.000Z</time>
      </trkpt>
      <trkpt lat="45.88839" lon="4.6629">
        <ele>380.79998779297</ele>
        <time>2014-04-19T09:47:27.000Z</time>
      </trkpt>
      <trkpt lat="45.88838" lon="4.6629">
        <ele>380.60000610352</ele>
        <time>2014-04-19T09:47:29.000Z</time>
      </trkpt>
      <trkpt lat="45.88817" lon="4.6627">
        <ele>369.20001220703</ele>
        <time>2014-04-19T09:50:02.000Z</time>
      </trkpt>
      <trkpt lat="45.88818" lon="4.66264">
        <ele>369</ele>
        <time>2014-04-19T09:50:04.000Z</time>
      </trkpt>
      <trkpt lat="45.88818" lon="4.66255">
        <ele>368.79998779297</ele>
        <time>2014-04-19T09:50:09.000Z</time>
      </trkpt>
      <trkpt lat="45.8882" lon="4.66235">
        <ele>368.20001220703</ele>
        <time>2014-04-19T09:50:16.000Z</time>
      </trkpt>
      <trkpt lat="45.8882" lon="4.66218">
        <ele>367.60000610352</ele>
        <time>2014-04-19T09:50:23.000Z</time>
      </trkpt>
      <trkpt lat="45.88822" lon="4.66195">
        <ele>366.60000610352</ele>
        <time>2014-04-19T09:50:32.000Z</time>
      </trkpt>
      <trkpt lat="45.88823" lon="4.66185">
        <ele>366</ele>
        <time>2014-04-19T09:50:39.000Z</time>
      </trkpt>
      <trkpt lat="45.88823" lon="4.66177">
        <ele>365.60000610352</ele>
        <time>2014-04-19T09:50:43.000Z</time>
      </trkpt>
      <trkpt lat="45.88825" lon="4.66159">
        <ele>364.60000610352</ele>
        <time>2014-04-19T09:50:52.000Z</time>
      </trkpt>
      <trkpt lat="45.88826" lon="4.6614">
        <ele>363.79998779297</ele>
        <time>2014-04-19T09:51:02.000Z</time>
      </trkpt>
      <trkpt lat="45.88829" lon="4.66117">
        <ele>362.79998779297</ele>
        <time>2014-04-19T09:51:14.000Z</time>
      </trkpt>
      <trkpt lat="45.88836" lon="4.66102">
        <ele>362.39999389648</ele>
        <time>2014-04-19T09:51:19.000Z</time>
      </trkpt>
      <trkpt lat="45.88845" lon="4.6609">
        <ele>362</ele>
        <time>2014-04-19T09:51:26.000Z</time>
      </trkpt>
      <trkpt lat="45.88853" lon="4.66079">
        <ele>361.39999389648</ele>
        <time>2014-04-19T09:51:33.000Z</time>
      </trkpt>
      <trkpt lat="45.88864" lon="4.6606">
        <ele>360.20001220703</ele>
        <time>2014-04-19T09:51:46.000Z</time>
      </trkpt>
      <trkpt lat="45.88873" lon="4.66049">
        <ele>359</ele>
        <time>2014-04-19T09:51:57.000Z</time>
      </trkpt>
      <trkpt lat="45.88881" lon="4.66038">
        <ele>358.39999389648</ele>
        <time>2014-04-19T09:52:04.000Z</time>
      </trkpt>
      <trkpt lat="45.88889" lon="4.66028">
        <ele>357.60000610352</ele>
        <time>2014-04-19T09:52:11.000Z</time>
      </trkpt>
      <trkpt lat="45.88894" lon="4.66024">
        <ele>357</ele>
        <time>2014-04-19T09:52:18.000Z</time>
      </trkpt>
      <trkpt lat="45.88896" lon="4.65999">
        <ele>354</ele>
        <time>2014-04-19T09:53:19.000Z</time>
      </trkpt>
      <trkpt lat="45.88892" lon="4.65992">
        <ele>353.79998779297</ele>
        <time>2014-04-19T09:53:26.000Z</time>
      </trkpt>
      <trkpt lat="45.88885" lon="4.65979">
        <ele>353.39999389648</ele>
        <time>2014-04-19T09:53:37.000Z</time>
      </trkpt>
      <trkpt lat="45.88877" lon="4.65972">
        <ele>353</ele>
        <time>2014-04-19T09:53:44.000Z</time>
      </trkpt>
      <trkpt lat="45.88867" lon="4.65965">
        <ele>352.60000610352</ele>
        <time>2014-04-19T09:53:52.000Z</time>
      </trkpt>
      <trkpt lat="45.88859" lon="4.65955">
        <ele>352.20001220703</ele>
        <time>2014-04-19T09:54:00.000Z</time>
      </trkpt>
      <trkpt lat="45.88851" lon="4.65945">
        <ele>351.79998779297</ele>
        <time>2014-04-19T09:54:08.000Z</time>
      </trkpt>
      <trkpt lat="45.88844" lon="4.65938">
        <ele>351.20001220703</ele>
        <time>2014-04-19T09:54:15.000Z</time>
      </trkpt>
      <trkpt lat="45.88836" lon="4.6593">
        <ele>350.79998779297</ele>
        <time>2014-04-19T09:54:22.000Z</time>
      </trkpt>
      <trkpt lat="45.88826" lon="4.65921">
        <ele>350.20001220703</ele>
        <time>2014-04-19T09:54:28.000Z</time>
      </trkpt>
      <trkpt lat="45.88819" lon="4.65917">
        <ele>349.79998779297</ele>
        <time>2014-04-19T09:54:33.000Z</time>
      </trkpt>
      <trkpt lat="45.88809" lon="4.65915">
        <ele>349</ele>
        <time>2014-04-19T09:54:40.000Z</time>
      </trkpt>
      <trkpt lat="45.88798" lon="4.65915">
        <ele>348.20001220703</ele>
        <time>2014-04-19T09:54:48.000Z</time>
      </trkpt>
      <trkpt lat="45.88783" lon="4.65916">
        <ele>347.39999389648</ele>
        <time>2014-04-19T09:54:57.000Z</time>
      </trkpt>
      <trkpt lat="45.88767" lon="4.65917">
        <ele>346.60000610352</ele>
        <time>2014-04-19T09:55:05.000Z</time>
      </trkpt>
      <trkpt lat="45.88754" lon="4.65917">
        <ele>346</ele>
        <time>2014-04-19T09:55:13.000Z</time>
      </trkpt>
      <trkpt lat="45.88741" lon="4.65913">
        <ele>345.20001220703</ele>
        <time>2014-04-19T09:55:22.000Z</time>
      </trkpt>
      <trkpt lat="45.88736" lon="4.65901">
        <ele>344.39999389648</ele>
        <time>2014-04-19T09:55:30.000Z</time>
      </trkpt>
      <trkpt lat="45.88733" lon="4.65887">
        <ele>344</ele>
        <time>2014-04-19T09:55:36.000Z</time>
      </trkpt>
      <trkpt lat="45.88731" lon="4.65868">
        <ele>343.20001220703</ele>
        <time>2014-04-19T09:55:43.000Z</time>
      </trkpt>
      <trkpt lat="45.88731" lon="4.6586">
        <ele>342.79998779297</ele>
        <time>2014-04-19T09:55:48.000Z</time>
      </trkpt>
      <trkpt lat="45.8873" lon="4.65848">
        <ele>342</ele>
        <time>2014-04-19T09:55:55.000Z</time>
      </trkpt>
      <trkpt lat="45.88729" lon="4.65833">
        <ele>341.39999389648</ele>
        <time>2014-04-19T09:56:01.000Z</time>
      </trkpt>
      <trkpt lat="45.88728" lon="4.65821">
        <ele>340.60000610352</ele>
        <time>2014-04-19T09:56:08.000Z</time>
      </trkpt>
      <trkpt lat="45.88727" lon="4.65804">
        <ele>339.39999389648</ele>
        <time>2014-04-19T09:56:17.000Z</time>
      </trkpt>
      <trkpt lat="45.88726" lon="4.65792">
        <ele>338.60000610352</ele>
        <time>2014-04-19T09:56:23.000Z</time>
      </trkpt>
      <trkpt lat="45.88726" lon="4.65781">
        <ele>338</ele>
        <time>2014-04-19T09:56:29.000Z</time>
      </trkpt>
      <trkpt lat="45.88725" lon="4.65772">
        <ele>337.20001220703</ele>
        <time>2014-04-19T09:56:35.000Z</time>
      </trkpt>
      <trkpt lat="45.88725" lon="4.6577">
        <ele>337</ele>
        <time>2014-04-19T09:56:36.000Z</time>
      </trkpt>
      <trkpt lat="45.88726" lon="4.65763">
        <ele>336.60000610352</ele>
        <time>2014-04-19T09:56:40.000Z</time>
      </trkpt>
      <trkpt lat="45.88725" lon="4.65757">
        <ele>336.20001220703</ele>
        <time>2014-04-19T09:56:43.000Z</time>
      </trkpt>
      <trkpt lat="45.88724" lon="4.65742">
        <ele>335.20001220703</ele>
        <time>2014-04-19T09:56:51.000Z</time>
      </trkpt>
      <trkpt lat="45.88722" lon="4.65729">
        <ele>334</ele>
        <time>2014-04-19T09:57:00.000Z</time>
      </trkpt>
      <trkpt lat="45.88721" lon="4.65716">
        <ele>333</ele>
        <time>2014-04-19T09:57:07.000Z</time>
      </trkpt>
      <trkpt lat="45.88719" lon="4.65701">
        <ele>331.79998779297</ele>
        <time>2014-04-19T09:57:16.000Z</time>
      </trkpt>
      <trkpt lat="45.88719" lon="4.65682">
        <ele>330</ele>
        <time>2014-04-19T09:57:28.000Z</time>
      </trkpt>
      <trkpt lat="45.88716" lon="4.65668">
        <ele>328.60000610352</ele>
        <time>2014-04-19T09:57:37.000Z</time>
      </trkpt>
      <trkpt lat="45.88714" lon="4.6566">
        <ele>327.60000610352</ele>
        <time>2014-04-19T09:57:43.000Z</time>
      </trkpt>
      <trkpt lat="45.88714" lon="4.65659">
        <ele>327.39999389648</ele>
        <time>2014-04-19T09:57:44.000Z</time>
      </trkpt>
      <trkpt lat="45.88713" lon="4.65651">
        <ele>326.20001220703</ele>
        <time>2014-04-19T09:57:51.000Z</time>
      </trkpt>
      <trkpt lat="45.88713" lon="4.65649">
        <ele>326</ele>
        <time>2014-04-19T09:57:52.000Z</time>
      </trkpt>
      <trkpt lat="45.88712" lon="4.65641">
        <ele>324.79998779297</ele>
        <time>2014-04-19T09:57:58.000Z</time>
      </trkpt>
      <trkpt lat="45.88713" lon="4.65638">
        <ele>324.20001220703</ele>
        <time>2014-04-19T09:58:01.000Z</time>
      </trkpt>
      <trkpt lat="45.88711" lon="4.65629">
        <ele>322.79998779297</ele>
        <time>2014-04-19T09:58:07.000Z</time>
      </trkpt>
      <trkpt lat="45.88711" lon="4.65627">
        <ele>322.60000610352</ele>
        <time>2014-04-19T09:58:08.000Z</time>
      </trkpt>
      <trkpt lat="45.88708" lon="4.6561">
        <ele>321</ele>
        <time>2014-04-19T09:58:16.000Z</time>
      </trkpt>
      <trkpt lat="45.88705" lon="4.65597">
        <ele>319.60000610352</ele>
        <time>2014-04-19T09:58:22.000Z</time>
      </trkpt>
      <trkpt lat="45.88699" lon="4.65583">
        <ele>318</ele>
        <time>2014-04-19T09:58:30.000Z</time>
      </trkpt>
      <trkpt lat="45.88692" lon="4.65573">
        <ele>316.79998779297</ele>
        <time>2014-04-19T09:58:37.000Z</time>
      </trkpt>
      <trkpt lat="45.88686" lon="4.65561">
        <ele>315.39999389648</ele>
        <time>2014-04-19T09:58:44.000Z</time>
      </trkpt>
      <trkpt lat="45.88679" lon="4.65551">
        <ele>314</ele>
        <time>2014-04-19T09:58:52.000Z</time>
      </trkpt>
      <trkpt lat="45.88672" lon="4.6554">
        <ele>312.60000610352</ele>
        <time>2014-04-19T09:58:59.000Z</time>
      </trkpt>
      <trkpt lat="45.88663" lon="4.65532">
        <ele>311.39999389648</ele>
        <time>2014-04-19T09:59:06.000Z</time>
      </trkpt>
      <trkpt lat="45.88652" lon="4.65525">
        <ele>309.79998779297</ele>
        <time>2014-04-19T09:59:15.000Z</time>
      </trkpt>
      <trkpt lat="45.88651" lon="4.65524">
        <ele>309.39999389648</ele>
        <time>2014-04-19T09:59:17.000Z</time>
      </trkpt>
      <trkpt lat="45.88647" lon="4.65523">
        <ele>308.79998779297</ele>
        <time>2014-04-19T09:59:21.000Z</time>
      </trkpt>
      <trkpt lat="45.88637" lon="4.65515">
        <ele>307.60000610352</ele>
        <time>2014-04-19T09:59:28.000Z</time>
      </trkpt>
      <trkpt lat="45.88628" lon="4.65508">
        <ele>306.39999389648</ele>
        <time>2014-04-19T09:59:36.000Z</time>
      </trkpt>
      <trkpt lat="45.88621" lon="4.65507">
        <ele>305.39999389648</ele>
        <time>2014-04-19T09:59:42.000Z</time>
      </trkpt>
      <trkpt lat="45.88621" lon="4.65506">
        <ele>305.20001220703</ele>
        <time>2014-04-19T09:59:43.000Z</time>
      </trkpt>
      <trkpt lat="45.88615" lon="4.655">
        <ele>304.20001220703</ele>
        <time>2014-04-19T09:59:49.000Z</time>
      </trkpt>
      <trkpt lat="45.88613" lon="4.65496">
        <ele>303.60000610352</ele>
        <time>2014-04-19T09:59:53.000Z</time>
      </trkpt>
      <trkpt lat="45.88609" lon="4.65491">
        <ele>303.39999389648</ele>
        <time>2014-04-19T09:59:55.000Z</time>
      </trkpt>
      <trkpt lat="45.88603" lon="4.65482">
        <ele>302.79998779297</ele>
        <time>2014-04-19T10:00:00.000Z</time>
      </trkpt>
      <trkpt lat="45.88602" lon="4.65476">
        <ele>302.39999389648</ele>
        <time>2014-04-19T10:00:03.000Z</time>
      </trkpt>
      <trkpt lat="45.88597" lon="4.65462">
        <ele>301.39999389648</ele>
        <time>2014-04-19T10:00:12.000Z</time>
      </trkpt>
      <trkpt lat="45.88591" lon="4.65454">
        <ele>300.39999389648</ele>
        <time>2014-04-19T10:00:19.000Z</time>
      </trkpt>
      <trkpt lat="45.88581" lon="4.65444">
        <ele>299</ele>
        <time>2014-04-19T10:00:27.000Z</time>
      </trkpt>
      <trkpt lat="45.88572" lon="4.65428">
        <ele>297.60000610352</ele>
        <time>2014-04-19T10:00:37.000Z</time>
      </trkpt>
      <trkpt lat="45.88566" lon="4.65404">
        <ele>296.60000610352</ele>
        <time>2014-04-19T10:00:48.000Z</time>
      </trkpt>
      <trkpt lat="45.88563" lon="4.65386">
        <ele>296.20001220703</ele>
        <time>2014-04-19T10:00:54.000Z</time>
      </trkpt>
      <trkpt lat="45.88562" lon="4.65371">
        <ele>295.60000610352</ele>
        <time>2014-04-19T10:01:01.000Z</time>
      </trkpt>
      <trkpt lat="45.88562" lon="4.65357">
        <ele>295</ele>
        <time>2014-04-19T10:01:08.000Z</time>
      </trkpt>
      <trkpt lat="45.88563" lon="4.6534">
        <ele>294.39999389648</ele>
        <time>2014-04-19T10:01:17.000Z</time>
      </trkpt>
      <trkpt lat="45.88565" lon="4.6533">
        <ele>294</ele>
        <time>2014-04-19T10:01:22.000Z</time>
      </trkpt>
      <trkpt lat="45.88568" lon="4.65313">
        <ele>293.20001220703</ele>
        <time>2014-04-19T10:01:30.000Z</time>
      </trkpt>
      <trkpt lat="45.8857" lon="4.65303">
        <ele>292.79998779297</ele>
        <time>2014-04-19T10:01:35.000Z</time>
      </trkpt>
      <trkpt lat="45.88571" lon="4.65298">
        <ele>292.79998779297</ele>
        <time>2014-04-19T10:01:37.000Z</time>
      </trkpt>
      <trkpt lat="45.88573" lon="4.65289">
        <ele>292.60000610352</ele>
        <time>2014-04-19T10:01:41.000Z</time>
      </trkpt>
      <trkpt lat="45.88574" lon="4.6528">
        <ele>292.60000610352</ele>
        <time>2014-04-19T10:01:45.000Z</time>
      </trkpt>
      <trkpt lat="45.88574" lon="4.65259">
        <ele>292.20001220703</ele>
        <time>2014-04-19T10:01:53.000Z</time>
      </trkpt>
      <trkpt lat="45.88572" lon="4.65247">
        <ele>292</ele>
        <time>2014-04-19T10:01:59.000Z</time>
      </trkpt>
      <trkpt lat="45.8857" lon="4.65229">
        <ele>291.79998779297</ele>
        <time>2014-04-19T10:02:08.000Z</time>
      </trkpt>
      <trkpt lat="45.88567" lon="4.65207">
        <ele>291.60000610352</ele>
        <time>2014-04-19T10:02:16.000Z</time>
      </trkpt>
      <trkpt lat="45.88564" lon="4.65193">
        <ele>291.39999389648</ele>
        <time>2014-04-19T10:02:23.000Z</time>
      </trkpt>
      <trkpt lat="45.88561" lon="4.65172">
        <ele>291.20001220703</ele>
        <time>2014-04-19T10:02:32.000Z</time>
      </trkpt>
      <trkpt lat="45.88559" lon="4.65152">
        <ele>290.79998779297</ele>
        <time>2014-04-19T10:02:41.000Z</time>
      </trkpt>
      <trkpt lat="45.88556" lon="4.65134">
        <ele>290.60000610352</ele>
        <time>2014-04-19T10:02:51.000Z</time>
      </trkpt>
      <trkpt lat="45.88552" lon="4.65116">
        <ele>290.39999389648</ele>
        <time>2014-04-19T10:02:58.000Z</time>
      </trkpt>
      <trkpt lat="45.8855" lon="4.65104">
        <ele>290.39999389648</ele>
        <time>2014-04-19T10:03:04.000Z</time>
      </trkpt>
      <trkpt lat="45.88546" lon="4.65084">
        <ele>290.20001220703</ele>
        <time>2014-04-19T10:03:12.000Z</time>
      </trkpt>
      <trkpt lat="45.8854" lon="4.65067">
        <ele>290</ele>
        <time>2014-04-19T10:03:21.000Z</time>
      </trkpt>
      <trkpt lat="45.88532" lon="4.65055">
        <ele>289.79998779297</ele>
        <time>2014-04-19T10:03:29.000Z</time>
      </trkpt>
      <trkpt lat="45.88522" lon="4.65049">
        <ele>289.60000610352</ele>
        <time>2014-04-19T10:03:38.000Z</time>
      </trkpt>
      <trkpt lat="45.88514" lon="4.65058">
        <ele>289.39999389648</ele>
        <time>2014-04-19T10:03:43.000Z</time>
      </trkpt>
      <trkpt lat="45.88507" lon="4.65074">
        <ele>289.60000610352</ele>
        <time>2014-04-19T10:03:51.000Z</time>
      </trkpt>
      <trkpt lat="45.88497" lon="4.65092">
        <ele>290</ele>
        <time>2014-04-19T10:04:01.000Z</time>
      </trkpt>
      <trkpt lat="45.88487" lon="4.65109">
        <ele>291</ele>
        <time>2014-04-19T10:04:11.000Z</time>
      </trkpt>
      <trkpt lat="45.88478" lon="4.65122">
        <ele>291.60000610352</ele>
        <time>2014-04-19T10:04:19.000Z</time>
      </trkpt>
      <trkpt lat="45.88464" lon="4.65139">
        <ele>292.79998779297</ele>
        <time>2014-04-19T10:04:33.000Z</time>
      </trkpt>
      <trkpt lat="45.88448" lon="4.65154">
        <ele>294</ele>
        <time>2014-04-19T10:04:47.000Z</time>
      </trkpt>
      <trkpt lat="45.88448" lon="4.65152">
        <ele>294.20001220703</ele>
        <time>2014-04-19T10:04:49.000Z</time>
      </trkpt>
      <trkpt lat="45.88447" lon="4.65149">
        <ele>294.39999389648</ele>
        <time>2014-04-19T10:04:52.000Z</time>
      </trkpt>
      <trkpt lat="45.88448" lon="4.65148">
        <ele>294.60000610352</ele>
        <time>2014-04-19T10:04:54.000Z</time>
      </trkpt>
      <trkpt lat="45.88452" lon="4.6512">
        <ele>296</ele>
        <time>2014-04-19T10:05:17.000Z</time>
      </trkpt>
      <trkpt lat="45.88451" lon="4.65118">
        <ele>296</ele>
        <time>2014-04-19T10:05:18.000Z</time>
      </trkpt>
      <trkpt lat="45.88452" lon="4.65112">
        <ele>296.20001220703</ele>
        <time>2014-04-19T10:05:24.000Z</time>
      </trkpt>
      <trkpt lat="45.88452" lon="4.65105">
        <ele>296.39999389648</ele>
        <time>2014-04-19T10:05:29.000Z</time>
      </trkpt>
      <trkpt lat="45.88451" lon="4.65095">
        <ele>296.39999389648</ele>
        <time>2014-04-19T10:05:35.000Z</time>
      </trkpt>
      <trkpt lat="45.88453" lon="4.65091">
        <ele>296.60000610352</ele>
        <time>2014-04-19T10:05:39.000Z</time>
      </trkpt>
      <trkpt lat="45.88454" lon="4.65089">
        <ele>296.79998779297</ele>
        <time>2014-04-19T10:05:41.000Z</time>
      </trkpt>
      <trkpt lat="45.88454" lon="4.65088">
        <ele>296.79998779297</ele>
        <time>2014-04-19T10:05:43.000Z</time>
      </trkpt>
      <trkpt lat="45.8845" lon="4.65086">
        <ele>297</ele>
        <time>2014-04-19T10:06:10.000Z</time>
      </trkpt>
      <trkpt lat="45.8845" lon="4.65086">
        <ele>297</ele>
        <time>2014-04-19T10:06:11.000Z</time>
      </trkpt>
      <trkpt lat="45.8845" lon="4.65085">
        <ele>297</ele>
        <time>2014-04-19T10:06:12.000Z</time>
      </trkpt>
      <trkpt lat="45.88454" lon="4.65044">
        <ele>298.20001220703</ele>
        <time>2014-04-19T10:08:48.000Z</time>
      </trkpt>
      <trkpt lat="45.88455" lon="4.65038">
        <ele>298</ele>
        <time>2014-04-19T10:08:52.000Z</time>
      </trkpt>
      <trkpt lat="45.88455" lon="4.65025">
        <ele>297.79998779297</ele>
        <time>2014-04-19T10:09:00.000Z</time>
      </trkpt>
      <trkpt lat="45.88455" lon="4.65011">
        <ele>297.60000610352</ele>
        <time>2014-04-19T10:09:06.000Z</time>
      </trkpt>
      <trkpt lat="45.88457" lon="4.64987">
        <ele>297.20001220703</ele>
        <time>2014-04-19T10:09:15.000Z</time>
      </trkpt>
      <trkpt lat="45.88459" lon="4.64972">
        <ele>297</ele>
        <time>2014-04-19T10:09:21.000Z</time>
      </trkpt>
      <trkpt lat="45.88463" lon="4.64959">
        <ele>296.60000610352</ele>
        <time>2014-04-19T10:09:28.000Z</time>
      </trkpt>
      <trkpt lat="45.88468" lon="4.64944">
        <ele>296.20001220703</ele>
        <time>2014-04-19T10:09:35.000Z</time>
      </trkpt>
      <trkpt lat="45.88473" lon="4.64932">
        <ele>295.60000610352</ele>
        <time>2014-04-19T10:09:44.000Z</time>
      </trkpt>
      <trkpt lat="45.88481" lon="4.64916">
        <ele>294.79998779297</ele>
        <time>2014-04-19T10:09:55.000Z</time>
      </trkpt>
      <trkpt lat="45.88481" lon="4.64915">
        <ele>294.79998779297</ele>
        <time>2014-04-19T10:09:56.000Z</time>
      </trkpt>
      <trkpt lat="45.88482" lon="4.64909">
        <ele>294.39999389648</ele>
        <time>2014-04-19T10:10:00.000Z</time>
      </trkpt>
      <trkpt lat="45.88483" lon="4.64907">
        <ele>294.20001220703</ele>
        <time>2014-04-19T10:10:02.000Z</time>
      </trkpt>
      <trkpt lat="45.88488" lon="4.64896">
        <ele>293.60000610352</ele>
        <time>2014-04-19T10:10:08.000Z</time>
      </trkpt>
      <trkpt lat="45.88496" lon="4.64886">
        <ele>293</ele>
        <time>2014-04-19T10:10:14.000Z</time>
      </trkpt>
      <trkpt lat="45.88506" lon="4.64875">
        <ele>292.60000610352</ele>
        <time>2014-04-19T10:10:19.000Z</time>
      </trkpt>
      <trkpt lat="45.88514" lon="4.64865">
        <ele>291.79998779297</ele>
        <time>2014-04-19T10:10:26.000Z</time>
      </trkpt>
      <trkpt lat="45.88522" lon="4.64857">
        <ele>291.20001220703</ele>
        <time>2014-04-19T10:10:32.000Z</time>
      </trkpt>
      <trkpt lat="45.88536" lon="4.64844">
        <ele>290.20001220703</ele>
        <time>2014-04-19T10:10:43.000Z</time>
      </trkpt>
      <trkpt lat="45.88543" lon="4.64838">
        <ele>289.39999389648</ele>
        <time>2014-04-19T10:10:51.000Z</time>
      </trkpt>
      <trkpt lat="45.88551" lon="4.64831">
        <ele>288.20001220703</ele>
        <time>2014-04-19T10:11:00.000Z</time>
      </trkpt>
      <trkpt lat="45.88557" lon="4.64824">
        <ele>287</ele>
        <time>2014-04-19T10:11:10.000Z</time>
      </trkpt>
      <trkpt lat="45.88564" lon="4.64817">
        <ele>286</ele>
        <time>2014-04-19T10:11:18.000Z</time>
      </trkpt>
      <trkpt lat="45.88568" lon="4.64811">
        <ele>285.20001220703</ele>
        <time>2014-04-19T10:11:24.000Z</time>
      </trkpt>
      <trkpt lat="45.88574" lon="4.64803">
        <ele>283.79998779297</ele>
        <time>2014-04-19T10:11:32.000Z</time>
      </trkpt>
      <trkpt lat="45.88581" lon="4.64793">
        <ele>282.39999389648</ele>
        <time>2014-04-19T10:11:41.000Z</time>
      </trkpt>
      <trkpt lat="45.88586" lon="4.64786">
        <ele>281.20001220703</ele>
        <time>2014-04-19T10:11:49.000Z</time>
      </trkpt>
      <trkpt lat="45.88593" lon="4.64781">
        <ele>279.79998779297</ele>
        <time>2014-04-19T10:11:57.000Z</time>
      </trkpt>
      <trkpt lat="45.88595" lon="4.6478">
        <ele>279.60000610352</ele>
        <time>2014-04-19T10:11:59.000Z</time>
      </trkpt>
      <trkpt lat="45.88601" lon="4.64777">
        <ele>278.39999389648</ele>
        <time>2014-04-19T10:12:05.000Z</time>
      </trkpt>
      <trkpt lat="45.88604" lon="4.64776">
        <ele>278</ele>
        <time>2014-04-19T10:12:07.000Z</time>
      </trkpt>
      <trkpt lat="45.88607" lon="4.64773">
        <ele>277.20001220703</ele>
        <time>2014-04-19T10:12:11.000Z</time>
      </trkpt>
      <trkpt lat="45.88616" lon="4.64767">
        <ele>275.39999389648</ele>
        <time>2014-04-19T10:12:19.000Z</time>
      </trkpt>
      <trkpt lat="45.88626" lon="4.64761">
        <ele>273.60000610352</ele>
        <time>2014-04-19T10:12:27.000Z</time>
      </trkpt>
      <trkpt lat="45.88633" lon="4.64756">
        <ele>272.60000610352</ele>
        <time>2014-04-19T10:12:32.000Z</time>
      </trkpt>
      <trkpt lat="45.88634" lon="4.64755">
        <ele>272.20001220703</ele>
        <time>2014-04-19T10:12:33.000Z</time>
      </trkpt>
      <trkpt lat="45.88646" lon="4.64748">
        <ele>270</ele>
        <time>2014-04-19T10:12:42.000Z</time>
      </trkpt>
      <trkpt lat="45.88654" lon="4.64746">
        <ele>268</ele>
        <time>2014-04-19T10:12:48.000Z</time>
      </trkpt>
      <trkpt lat="45.8866" lon="4.64743">
        <ele>266</ele>
        <time>2014-04-19T10:12:54.000Z</time>
      </trkpt>
      <trkpt lat="45.88661" lon="4.64742">
        <ele>265.60000610352</ele>
        <time>2014-04-19T10:12:55.000Z</time>
      </trkpt>
      <trkpt lat="45.88668" lon="4.64737">
        <ele>263.60000610352</ele>
        <time>2014-04-19T10:13:01.000Z</time>
      </trkpt>
      <trkpt lat="45.88669" lon="4.64736">
        <ele>263.20001220703</ele>
        <time>2014-04-19T10:13:02.000Z</time>
      </trkpt>
      <trkpt lat="45.88683" lon="4.64723">
        <ele>260.20001220703</ele>
        <time>2014-04-19T10:13:10.000Z</time>
      </trkpt>
      <trkpt lat="45.88691" lon="4.64713">
        <ele>258</ele>
        <time>2014-04-19T10:13:16.000Z</time>
      </trkpt>
      <trkpt lat="45.88699" lon="4.64702">
        <ele>255</ele>
        <time>2014-04-19T10:13:24.000Z</time>
      </trkpt>
      <trkpt lat="45.88708" lon="4.6469">
        <ele>252.19999694824</ele>
        <time>2014-04-19T10:13:33.000Z</time>
      </trkpt>
      <trkpt lat="45.88718" lon="4.64679">
        <ele>250</ele>
        <time>2014-04-19T10:13:41.000Z</time>
      </trkpt>
      <trkpt lat="45.88722" lon="4.64673">
        <ele>249</ele>
        <time>2014-04-19T10:13:45.000Z</time>
      </trkpt>
      <trkpt lat="45.88725" lon="4.64669">
        <ele>248.19999694824</ele>
        <time>2014-04-19T10:13:48.000Z</time>
      </trkpt>
      <trkpt lat="45.88726" lon="4.64668">
        <ele>248</ele>
        <time>2014-04-19T10:13:49.000Z</time>
      </trkpt>
      <trkpt lat="45.88732" lon="4.64655">
        <ele>246.39999389648</ele>
        <time>2014-04-19T10:13:58.000Z</time>
      </trkpt>
      <trkpt lat="45.88745" lon="4.64643">
        <ele>244.80000305176</ele>
        <time>2014-04-19T10:14:07.000Z</time>
      </trkpt>
      <trkpt lat="45.88763" lon="4.64633">
        <ele>244.39999389648</ele>
        <time>2014-04-19T10:14:15.000Z</time>
      </trkpt>
      <trkpt lat="45.88776" lon="4.64622">
        <ele>244</ele>
        <time>2014-04-19T10:14:24.000Z</time>
      </trkpt>
      <trkpt lat="45.88786" lon="4.64613">
        <ele>243.80000305176</ele>
        <time>2014-04-19T10:14:32.000Z</time>
      </trkpt>
      <trkpt lat="45.88796" lon="4.64602">
        <ele>243.80000305176</ele>
        <time>2014-04-19T10:14:41.000Z</time>
      </trkpt>
      <trkpt lat="45.88806" lon="4.64592">
        <ele>243.80000305176</ele>
        <time>2014-04-19T10:14:48.000Z</time>
      </trkpt>
      <trkpt lat="45.88814" lon="4.64576">
        <ele>243.80000305176</ele>
        <time>2014-04-19T10:14:57.000Z</time>
      </trkpt>
      <trkpt lat="45.88819" lon="4.64562">
        <ele>243.80000305176</ele>
        <time>2014-04-19T10:15:04.000Z</time>
      </trkpt>
      <trkpt lat="45.88833" lon="4.64553">
        <ele>243.60000610352</ele>
        <time>2014-04-19T10:15:12.000Z</time>
      </trkpt>
      <trkpt lat="45.88844" lon="4.64546">
        <ele>243.39999389648</ele>
        <time>2014-04-19T10:15:19.000Z</time>
      </trkpt>
      <trkpt lat="45.88851" lon="4.64541">
        <ele>243.19999694824</ele>
        <time>2014-04-19T10:15:26.000Z</time>
      </trkpt>
      <trkpt lat="45.88861" lon="4.64538">
        <ele>243.19999694824</ele>
        <time>2014-04-19T10:15:32.000Z</time>
      </trkpt>
      <trkpt lat="45.88875" lon="4.64532">
        <ele>242.80000305176</ele>
        <time>2014-04-19T10:15:40.000Z</time>
      </trkpt>
      <trkpt lat="45.88889" lon="4.64529">
        <ele>242.60000610352</ele>
        <time>2014-04-19T10:15:48.000Z</time>
      </trkpt>
      <trkpt lat="45.88898" lon="4.64525">
        <ele>242.19999694824</ele>
        <time>2014-04-19T10:15:55.000Z</time>
      </trkpt>
      <trkpt lat="45.88908" lon="4.6452">
        <ele>241.60000610352</ele>
        <time>2014-04-19T10:16:03.000Z</time>
      </trkpt>
      <trkpt lat="45.88916" lon="4.64515">
        <ele>241.39999389648</ele>
        <time>2014-04-19T10:16:10.000Z</time>
      </trkpt>
      <trkpt lat="45.88919" lon="4.6451">
        <ele>240.80000305176</ele>
        <time>2014-04-19T10:16:16.000Z</time>
      </trkpt>
      <trkpt lat="45.88921" lon="4.64508">
        <ele>240.80000305176</ele>
        <time>2014-04-19T10:16:17.000Z</time>
      </trkpt>
      <trkpt lat="45.88928" lon="4.645">
        <ele>240</ele>
        <time>2014-04-19T10:16:25.000Z</time>
      </trkpt>
      <trkpt lat="45.88937" lon="4.64489">
        <ele>239.19999694824</ele>
        <time>2014-04-19T10:16:32.000Z</time>
      </trkpt>
      <trkpt lat="45.88939" lon="4.64486">
        <ele>239</ele>
        <time>2014-04-19T10:16:33.000Z</time>
      </trkpt>
      <trkpt lat="45.88944" lon="4.64473">
        <ele>238.39999389648</ele>
        <time>2014-04-19T10:16:38.000Z</time>
      </trkpt>
      <trkpt lat="45.88948" lon="4.64455">
        <ele>237.60000610352</ele>
        <time>2014-04-19T10:16:46.000Z</time>
      </trkpt>
      <trkpt lat="45.88953" lon="4.64436">
        <ele>236.80000305176</ele>
        <time>2014-04-19T10:16:55.000Z</time>
      </trkpt>
      <trkpt lat="45.88957" lon="4.64422">
        <ele>236.19999694824</ele>
        <time>2014-04-19T10:17:03.000Z</time>
      </trkpt>
      <trkpt lat="45.8896" lon="4.644">
        <ele>235.60000610352</ele>
        <time>2014-04-19T10:17:12.000Z</time>
      </trkpt>
      <trkpt lat="45.88958" lon="4.64389">
        <ele>235.39999389648</ele>
        <time>2014-04-19T10:17:18.000Z</time>
      </trkpt>
      <trkpt lat="45.88954" lon="4.64382">
        <ele>235.19999694824</ele>
        <time>2014-04-19T10:17:23.000Z</time>
      </trkpt>
      <trkpt lat="45.88945" lon="4.64374">
        <ele>235.39999389648</ele>
        <time>2014-04-19T10:17:30.000Z</time>
      </trkpt>
      <trkpt lat="45.88936" lon="4.64366">
        <ele>235.80000305176</ele>
        <time>2014-04-19T10:17:36.000Z</time>
      </trkpt>
      <trkpt lat="45.88928" lon="4.64359">
        <ele>236.60000610352</ele>
        <time>2014-04-19T10:17:43.000Z</time>
      </trkpt>
      <trkpt lat="45.88924" lon="4.64356">
        <ele>237.19999694824</ele>
        <time>2014-04-19T10:17:48.000Z</time>
      </trkpt>
      <trkpt lat="45.88923" lon="4.64349">
        <ele>237.60000610352</ele>
        <time>2014-04-19T10:17:55.000Z</time>
      </trkpt>
      <trkpt lat="45.88924" lon="4.64348">
        <ele>237.60000610352</ele>
        <time>2014-04-19T10:17:56.000Z</time>
      </trkpt>
      <trkpt lat="45.88929" lon="4.6435">
        <ele>237.39999389648</ele>
        <time>2014-04-19T10:18:00.000Z</time>
      </trkpt>
      <trkpt lat="45.8893" lon="4.6435">
        <ele>237.39999389648</ele>
        <time>2014-04-19T10:18:01.000Z</time>
      </trkpt>
      <trkpt lat="45.8894" lon="4.6435">
        <ele>237.39999389648</ele>
        <time>2014-04-19T10:18:08.000Z</time>
      </trkpt>
      <trkpt lat="45.88952" lon="4.64351">
        <ele>237.60000610352</ele>
        <time>2014-04-19T10:18:15.000Z</time>
      </trkpt>
      <trkpt lat="45.88959" lon="4.64352">
        <ele>238.19999694824</ele>
        <time>2014-04-19T10:18:20.000Z</time>
      </trkpt>
      <trkpt lat="45.88965" lon="4.64352">
        <ele>239</ele>
        <time>2014-04-19T10:18:26.000Z</time>
      </trkpt>
      <trkpt lat="45.88979" lon="4.64353">
        <ele>240.19999694824</ele>
        <time>2014-04-19T10:18:36.000Z</time>
      </trkpt>
      <trkpt lat="45.88987" lon="4.64356">
        <ele>241.19999694824</ele>
        <time>2014-04-19T10:18:43.000Z</time>
      </trkpt>
      <trkpt lat="45.88994" lon="4.64355">
        <ele>242.60000610352</ele>
        <time>2014-04-19T10:18:50.000Z</time>
      </trkpt>
      <trkpt lat="45.88997" lon="4.64355">
        <ele>243</ele>
        <time>2014-04-19T10:18:52.000Z</time>
      </trkpt>
      <trkpt lat="45.89" lon="4.64357">
        <ele>243.60000610352</ele>
        <time>2014-04-19T10:18:56.000Z</time>
      </trkpt>
      <trkpt lat="45.89005" lon="4.64356">
        <ele>244.80000305176</ele>
        <time>2014-04-19T10:19:01.000Z</time>
      </trkpt>
      <trkpt lat="45.89009" lon="4.64357">
        <ele>245.39999389648</ele>
        <time>2014-04-19T10:19:04.000Z</time>
      </trkpt>
      <trkpt lat="45.89013" lon="4.64357">
        <ele>246</ele>
        <time>2014-04-19T10:19:07.000Z</time>
      </trkpt>
      <trkpt lat="45.8902" lon="4.64357">
        <ele>247.19999694824</ele>
        <time>2014-04-19T10:19:13.000Z</time>
      </trkpt>
      <trkpt lat="45.89028" lon="4.64359">
        <ele>248.80000305176</ele>
        <time>2014-04-19T10:19:20.000Z</time>
      </trkpt>
      <trkpt lat="45.89035" lon="4.64361">
        <ele>250.39999389648</ele>
        <time>2014-04-19T10:19:27.000Z</time>
      </trkpt>
      <trkpt lat="45.89043" lon="4.64363">
        <ele>252</ele>
        <time>2014-04-19T10:19:34.000Z</time>
      </trkpt>
      <trkpt lat="45.89045" lon="4.64363">
        <ele>252.80000305176</ele>
        <time>2014-04-19T10:19:37.000Z</time>
      </trkpt>
      <trkpt lat="45.89049" lon="4.64365">
        <ele>253.80000305176</ele>
        <time>2014-04-19T10:19:41.000Z</time>
      </trkpt>
      <trkpt lat="45.89055" lon="4.64369">
        <ele>255.19999694824</ele>
        <time>2014-04-19T10:19:46.000Z</time>
      </trkpt>
      <trkpt lat="45.89058" lon="4.64369">
        <ele>255.80000305176</ele>
        <time>2014-04-19T10:19:48.000Z</time>
      </trkpt>
      <trkpt lat="45.8907" lon="4.64368">
        <ele>258</ele>
        <time>2014-04-19T10:19:56.000Z</time>
      </trkpt>
      <trkpt lat="45.89073" lon="4.64367">
        <ele>258.79998779297</ele>
        <time>2014-04-19T10:19:59.000Z</time>
      </trkpt>
      <trkpt lat="45.89077" lon="4.64366">
        <ele>259.39999389648</ele>
        <time>2014-04-19T10:20:01.000Z</time>
      </trkpt>
      <trkpt lat="45.89084" lon="4.64364">
        <ele>260.60000610352</ele>
        <time>2014-04-19T10:20:05.000Z</time>
      </trkpt>
      <trkpt lat="45.89092" lon="4.64362">
        <ele>262.60000610352</ele>
        <time>2014-04-19T10:20:12.000Z</time>
      </trkpt>
      <trkpt lat="45.89093" lon="4.64361">
        <ele>262.79998779297</ele>
        <time>2014-04-19T10:20:13.000Z</time>
      </trkpt>
      <trkpt lat="45.89099" lon="4.64357">
        <ele>265</ele>
        <time>2014-04-19T10:20:20.000Z</time>
      </trkpt>
      <trkpt lat="45.89101" lon="4.64355">
        <ele>266</ele>
        <time>2014-04-19T10:20:23.000Z</time>
      </trkpt>
      <trkpt lat="45.89102" lon="4.64355">
        <ele>267</ele>
        <time>2014-04-19T10:20:26.000Z</time>
      </trkpt>
      <trkpt lat="45.89151" lon="4.64315">
        <ele>281.60000610352</ele>
        <time>2014-04-19T10:22:33.000Z</time>
      </trkpt>
      <trkpt lat="45.89153" lon="4.64311">
        <ele>281.60000610352</ele>
        <time>2014-04-19T10:22:36.000Z</time>
      </trkpt>
      <trkpt lat="45.89158" lon="4.64296">
        <ele>281.60000610352</ele>
        <time>2014-04-19T10:22:45.000Z</time>
      </trkpt>
      <trkpt lat="45.89162" lon="4.64289">
        <ele>281.79998779297</ele>
        <time>2014-04-19T10:22:51.000Z</time>
      </trkpt>
      <trkpt lat="45.89163" lon="4.64289">
        <ele>281.79998779297</ele>
        <time>2014-04-19T10:22:52.000Z</time>
      </trkpt>
      <trkpt lat="45.89167" lon="4.64282">
        <ele>282.20001220703</ele>
        <time>2014-04-19T10:23:10.000Z</time>
      </trkpt>
      <trkpt lat="45.89169" lon="4.64276">
        <ele>282.20001220703</ele>
        <time>2014-04-19T10:23:12.000Z</time>
      </trkpt>
      <trkpt lat="45.89173" lon="4.64258">
        <ele>282.20001220703</ele>
        <time>2014-04-19T10:23:18.000Z</time>
      </trkpt>
      <trkpt lat="45.89175" lon="4.64243">
        <ele>282</ele>
        <time>2014-04-19T10:23:25.000Z</time>
      </trkpt>
      <trkpt lat="45.89177" lon="4.64229">
        <ele>281.79998779297</ele>
        <time>2014-04-19T10:23:32.000Z</time>
      </trkpt>
      <trkpt lat="45.89181" lon="4.64209">
        <ele>281.79998779297</ele>
        <time>2014-04-19T10:23:40.000Z</time>
      </trkpt>
      <trkpt lat="45.89187" lon="4.64182">
        <ele>281.60000610352</ele>
        <time>2014-04-19T10:23:47.000Z</time>
      </trkpt>
      <trkpt lat="45.89194" lon="4.64144">
        <ele>281.39999389648</ele>
        <time>2014-04-19T10:23:57.000Z</time>
      </trkpt>
      <trkpt lat="45.89198" lon="4.64131">
        <ele>281.39999389648</ele>
        <time>2014-04-19T10:24:03.000Z</time>
      </trkpt>
      <trkpt lat="45.89205" lon="4.64109">
        <ele>282</ele>
        <time>2014-04-19T10:24:13.000Z</time>
      </trkpt>
      <trkpt lat="45.89208" lon="4.64092">
        <ele>282.60000610352</ele>
        <time>2014-04-19T10:24:20.000Z</time>
      </trkpt>
      <trkpt lat="45.89213" lon="4.64072">
        <ele>283.60000610352</ele>
        <time>2014-04-19T10:24:32.000Z</time>
      </trkpt>
      <trkpt lat="45.89219" lon="4.64057">
        <ele>284.39999389648</ele>
        <time>2014-04-19T10:24:41.000Z</time>
      </trkpt>
      <trkpt lat="45.89224" lon="4.64037">
        <ele>285.39999389648</ele>
        <time>2014-04-19T10:24:52.000Z</time>
      </trkpt>
      <trkpt lat="45.89223" lon="4.64026">
        <ele>286.20001220703</ele>
        <time>2014-04-19T10:24:58.000Z</time>
      </trkpt>
      <trkpt lat="45.89222" lon="4.64007">
        <ele>287</ele>
        <time>2014-04-19T10:25:06.000Z</time>
      </trkpt>
      <trkpt lat="45.89223" lon="4.63991">
        <ele>288.20001220703</ele>
        <time>2014-04-19T10:25:13.000Z</time>
      </trkpt>
      <trkpt lat="45.89222" lon="4.63975">
        <ele>289.60000610352</ele>
        <time>2014-04-19T10:25:23.000Z</time>
      </trkpt>
      <trkpt lat="45.89222" lon="4.63965">
        <ele>290.60000610352</ele>
        <time>2014-04-19T10:25:30.000Z</time>
      </trkpt>
      <trkpt lat="45.89218" lon="4.63947">
        <ele>291.39999389648</ele>
        <time>2014-04-19T10:25:36.000Z</time>
      </trkpt>
      <trkpt lat="45.89214" lon="4.63933">
        <ele>292.39999389648</ele>
        <time>2014-04-19T10:25:42.000Z</time>
      </trkpt>
      <trkpt lat="45.89211" lon="4.63921">
        <ele>293.39999389648</ele>
        <time>2014-04-19T10:25:49.000Z</time>
      </trkpt>
      <trkpt lat="45.89207" lon="4.63905">
        <ele>294.79998779297</ele>
        <time>2014-04-19T10:25:57.000Z</time>
      </trkpt>
      <trkpt lat="45.89203" lon="4.63891">
        <ele>295.79998779297</ele>
        <time>2014-04-19T10:26:04.000Z</time>
      </trkpt>
      <trkpt lat="45.89201" lon="4.6388">
        <ele>296.60000610352</ele>
        <time>2014-04-19T10:26:10.000Z</time>
      </trkpt>
      <trkpt lat="45.89197" lon="4.63864">
        <ele>297.60000610352</ele>
        <time>2014-04-19T10:26:19.000Z</time>
      </trkpt>
      <trkpt lat="45.89192" lon="4.63846">
        <ele>298.20001220703</ele>
        <time>2014-04-19T10:26:26.000Z</time>
      </trkpt>
      <trkpt lat="45.89188" lon="4.6383">
        <ele>299.20001220703</ele>
        <time>2014-04-19T10:26:35.000Z</time>
      </trkpt>
      <trkpt lat="45.89185" lon="4.63818">
        <ele>299.60000610352</ele>
        <time>2014-04-19T10:26:41.000Z</time>
      </trkpt>
      <trkpt lat="45.89181" lon="4.63799">
        <ele>300.60000610352</ele>
        <time>2014-04-19T10:26:53.000Z</time>
      </trkpt>
      <trkpt lat="45.89178" lon="4.63786">
        <ele>300.79998779297</ele>
        <time>2014-04-19T10:26:59.000Z</time>
      </trkpt>
      <trkpt lat="45.89173" lon="4.63762">
        <ele>301.60000610352</ele>
        <time>2014-04-19T10:27:13.000Z</time>
      </trkpt>
      <trkpt lat="45.89169" lon="4.63743">
        <ele>302.39999389648</ele>
        <time>2014-04-19T10:27:24.000Z</time>
      </trkpt>
      <trkpt lat="45.89165" lon="4.63728">
        <ele>303</ele>
        <time>2014-04-19T10:27:35.000Z</time>
      </trkpt>
      <trkpt lat="45.89173" lon="4.6367">
        <ele>305</ele>
        <time>2014-04-19T10:29:07.000Z</time>
      </trkpt>
      <trkpt lat="45.89173" lon="4.63664">
        <ele>305</ele>
        <time>2014-04-19T10:29:10.000Z</time>
      </trkpt>
      <trkpt lat="45.89179" lon="4.63641">
        <ele>304.79998779297</ele>
        <time>2014-04-19T10:29:23.000Z</time>
      </trkpt>
      <trkpt lat="45.8918" lon="4.63631">
        <ele>304.60000610352</ele>
        <time>2014-04-19T10:29:30.000Z</time>
      </trkpt>
      <trkpt lat="45.89184" lon="4.63618">
        <ele>304.20001220703</ele>
        <time>2014-04-19T10:29:39.000Z</time>
      </trkpt>
      <trkpt lat="45.89188" lon="4.63602">
        <ele>304</ele>
        <time>2014-04-19T10:29:48.000Z</time>
      </trkpt>
      <trkpt lat="45.89189" lon="4.63601">
        <ele>304</ele>
        <time>2014-04-19T10:29:49.000Z</time>
      </trkpt>
      <trkpt lat="45.89195" lon="4.63601">
        <ele>304</ele>
        <time>2014-04-19T10:29:54.000Z</time>
      </trkpt>
      <trkpt lat="45.89204" lon="4.63604">
        <ele>304</ele>
        <time>2014-04-19T10:30:04.000Z</time>
      </trkpt>
      <trkpt lat="45.89217" lon="4.63605">
        <ele>304.39999389648</ele>
        <time>2014-04-19T10:30:13.000Z</time>
      </trkpt>
      <trkpt lat="45.89224" lon="4.63605">
        <ele>304.79998779297</ele>
        <time>2014-04-19T10:30:20.000Z</time>
      </trkpt>
      <trkpt lat="45.89234" lon="4.63607">
        <ele>305</ele>
        <time>2014-04-19T10:30:27.000Z</time>
      </trkpt>
      <trkpt lat="45.89235" lon="4.63607">
        <ele>305</ele>
        <time>2014-04-19T10:30:28.000Z</time>
      </trkpt>
      <trkpt lat="45.89248" lon="4.63608">
        <ele>305</ele>
        <time>2014-04-19T10:30:37.000Z</time>
      </trkpt>
      <trkpt lat="45.89264" lon="4.63605">
        <ele>305.20001220703</ele>
        <time>2014-04-19T10:30:46.000Z</time>
      </trkpt>
      <trkpt lat="45.89276" lon="4.63604">
        <ele>305.39999389648</ele>
        <time>2014-04-19T10:30:55.000Z</time>
      </trkpt>
      <trkpt lat="45.8929" lon="4.636">
        <ele>305.39999389648</ele>
        <time>2014-04-19T10:31:06.000Z</time>
      </trkpt>
      <trkpt lat="45.89293" lon="4.636">
        <ele>305.39999389648</ele>
        <time>2014-04-19T10:31:11.000Z</time>
      </trkpt>
      <trkpt lat="45.89314" lon="4.63591">
        <ele>305</ele>
        <time>2014-04-19T10:31:31.000Z</time>
      </trkpt>
      <trkpt lat="45.89316" lon="4.63591">
        <ele>305</ele>
        <time>2014-04-19T10:31:32.000Z</time>
      </trkpt>
      <trkpt lat="45.89326" lon="4.63587">
        <ele>305</ele>
        <time>2014-04-19T10:31:40.000Z</time>
      </trkpt>
      <trkpt lat="45.89339" lon="4.63582">
        <ele>304.60000610352</ele>
        <time>2014-04-19T10:31:52.000Z</time>
      </trkpt>
      <trkpt lat="45.89354" lon="4.63576">
        <ele>304.39999389648</ele>
        <time>2014-04-19T10:32:05.000Z</time>
      </trkpt>
      <trkpt lat="45.89366" lon="4.6357">
        <ele>304.20001220703</ele>
        <time>2014-04-19T10:32:15.000Z</time>
      </trkpt>
      <trkpt lat="45.89377" lon="4.63564">
        <ele>304</ele>
        <time>2014-04-19T10:32:22.000Z</time>
      </trkpt>
      <trkpt lat="45.89389" lon="4.6356">
        <ele>303.79998779297</ele>
        <time>2014-04-19T10:32:31.000Z</time>
      </trkpt>
      <trkpt lat="45.894" lon="4.63555">
        <ele>303.39999389648</ele>
        <time>2014-04-19T10:32:40.000Z</time>
      </trkpt>
      <trkpt lat="45.89414" lon="4.63548">
        <ele>303</ele>
        <time>2014-04-19T10:32:47.000Z</time>
      </trkpt>
      <trkpt lat="45.89428" lon="4.63541">
        <ele>302.60000610352</ele>
        <time>2014-04-19T10:32:55.000Z</time>
      </trkpt>
      <trkpt lat="45.89443" lon="4.63537">
        <ele>302.60000610352</ele>
        <time>2014-04-19T10:33:04.000Z</time>
      </trkpt>
      <trkpt lat="45.89455" lon="4.6354">
        <ele>302.60000610352</ele>
        <time>2014-04-19T10:33:10.000Z</time>
      </trkpt>
      <trkpt lat="45.89471" lon="4.63544">
        <ele>302.39999389648</ele>
        <time>2014-04-19T10:33:19.000Z</time>
      </trkpt>
      <trkpt lat="45.89484" lon="4.63538">
        <ele>302.20001220703</ele>
        <time>2014-04-19T10:33:27.000Z</time>
      </trkpt>
      <trkpt lat="45.89492" lon="4.63528">
        <ele>302</ele>
        <time>2014-04-19T10:33:36.000Z</time>
      </trkpt>
      <trkpt lat="45.89497" lon="4.63525">
        <ele>301.79998779297</ele>
        <time>2014-04-19T10:33:40.000Z</time>
      </trkpt>
      <trkpt lat="45.89498" lon="4.63521">
        <ele>301.79998779297</ele>
        <time>2014-04-19T10:33:42.000Z</time>
      </trkpt>
      <trkpt lat="45.89497" lon="4.63514">
        <ele>301.79998779297</ele>
        <time>2014-04-19T10:33:44.000Z</time>
      </trkpt>
      <trkpt lat="45.89495" lon="4.63507">
        <ele>301.79998779297</ele>
        <time>2014-04-19T10:33:47.000Z</time>
      </trkpt>
      <trkpt lat="45.89492" lon="4.63493">
        <ele>302.60000610352</ele>
        <time>2014-04-19T10:33:54.000Z</time>
      </trkpt>
      <trkpt lat="45.89492" lon="4.63488">
        <ele>302.79998779297</ele>
        <time>2014-04-19T10:33:57.000Z</time>
      </trkpt>
      <trkpt lat="45.89492" lon="4.63488">
        <ele>303</ele>
        <time>2014-04-19T10:33:59.000Z</time>
      </trkpt>
      <trkpt lat="45.89481" lon="4.63391">
        <ele>307.79998779297</ele>
        <time>2014-04-19T10:35:07.000Z</time>
      </trkpt>
      <trkpt lat="45.89481" lon="4.63387">
        <ele>308</ele>
        <time>2014-04-19T10:35:10.000Z</time>
      </trkpt>
      <trkpt lat="45.89482" lon="4.63384">
        <ele>308.20001220703</ele>
        <time>2014-04-19T10:35:12.000Z</time>
      </trkpt>
      <trkpt lat="45.8948" lon="4.63372">
        <ele>308.79998779297</ele>
        <time>2014-04-19T10:35:19.000Z</time>
      </trkpt>
      <trkpt lat="45.8948" lon="4.63355">
        <ele>309.60000610352</ele>
        <time>2014-04-19T10:35:28.000Z</time>
      </trkpt>
      <trkpt lat="45.89481" lon="4.63342">
        <ele>310.39999389648</ele>
        <time>2014-04-19T10:35:36.000Z</time>
      </trkpt>
      <trkpt lat="45.89483" lon="4.63341">
        <ele>310.60000610352</ele>
        <time>2014-04-19T10:35:37.000Z</time>
      </trkpt>
      <trkpt lat="45.89493" lon="4.6334">
        <ele>310.79998779297</ele>
        <time>2014-04-19T10:35:42.000Z</time>
      </trkpt>
      <trkpt lat="45.89494" lon="4.63341">
        <ele>311</ele>
        <time>2014-04-19T10:35:43.000Z</time>
      </trkpt>
      <trkpt lat="45.89507" lon="4.63344">
        <ele>311.20001220703</ele>
        <time>2014-04-19T10:35:48.000Z</time>
      </trkpt>
      <trkpt lat="45.89513" lon="4.63345">
        <ele>311.39999389648</ele>
        <time>2014-04-19T10:35:53.000Z</time>
      </trkpt>
      <trkpt lat="45.89523" lon="4.63346">
        <ele>311.39999389648</ele>
        <time>2014-04-19T10:36:00.000Z</time>
      </trkpt>
      <trkpt lat="45.89537" lon="4.63348">
        <ele>311.20001220703</ele>
        <time>2014-04-19T10:36:11.000Z</time>
      </trkpt>
      <trkpt lat="45.89548" lon="4.63352">
        <ele>311</ele>
        <time>2014-04-19T10:36:20.000Z</time>
      </trkpt>
      <trkpt lat="45.89558" lon="4.63357">
        <ele>310.79998779297</ele>
        <time>2014-04-19T10:36:28.000Z</time>
      </trkpt>
      <trkpt lat="45.89566" lon="4.63363">
        <ele>310.60000610352</ele>
        <time>2014-04-19T10:36:35.000Z</time>
      </trkpt>
      <trkpt lat="45.89569" lon="4.63375">
        <ele>310.20001220703</ele>
        <time>2014-04-19T10:36:42.000Z</time>
      </trkpt>
      <trkpt lat="45.89573" lon="4.63393">
        <ele>309.20001220703</ele>
        <time>2014-04-19T10:36:53.000Z</time>
      </trkpt>
      <trkpt lat="45.89576" lon="4.63406">
        <ele>308.60000610352</ele>
        <time>2014-04-19T10:36:59.000Z</time>
      </trkpt>
      <trkpt lat="45.89581" lon="4.63417">
        <ele>307.60000610352</ele>
        <time>2014-04-19T10:37:06.000Z</time>
      </trkpt>
      <trkpt lat="45.8959" lon="4.63426">
        <ele>306.39999389648</ele>
        <time>2014-04-19T10:37:14.000Z</time>
      </trkpt>
      <trkpt lat="45.89602" lon="4.6343">
        <ele>305.60000610352</ele>
        <time>2014-04-19T10:37:23.000Z</time>
      </trkpt>
      <trkpt lat="45.89612" lon="4.63435">
        <ele>304.79998779297</ele>
        <time>2014-04-19T10:37:32.000Z</time>
      </trkpt>
      <trkpt lat="45.89623" lon="4.63437">
        <ele>304.20001220703</ele>
        <time>2014-04-19T10:37:41.000Z</time>
      </trkpt>
      <trkpt lat="45.89633" lon="4.6344">
        <ele>303.79998779297</ele>
        <time>2014-04-19T10:37:49.000Z</time>
      </trkpt>
      <trkpt lat="45.89643" lon="4.63441">
        <ele>303.39999389648</ele>
        <time>2014-04-19T10:37:57.000Z</time>
      </trkpt>
      <trkpt lat="45.89654" lon="4.63435">
        <ele>303.20001220703</ele>
        <time>2014-04-19T10:38:03.000Z</time>
      </trkpt>
      <trkpt lat="45.89665" lon="4.63431">
        <ele>302.60000610352</ele>
        <time>2014-04-19T10:38:09.000Z</time>
      </trkpt>
      <trkpt lat="45.89666" lon="4.6343">
        <ele>302.60000610352</ele>
        <time>2014-04-19T10:38:10.000Z</time>
      </trkpt>
      <trkpt lat="45.89668" lon="4.6343">
        <ele>302.39999389648</ele>
        <time>2014-04-19T10:38:12.000Z</time>
      </trkpt>
      <trkpt lat="45.89672" lon="4.63429">
        <ele>302</ele>
        <time>2014-04-19T10:38:16.000Z</time>
      </trkpt>
      <trkpt lat="45.8968" lon="4.63427">
        <ele>301</ele>
        <time>2014-04-19T10:38:23.000Z</time>
      </trkpt>
      <trkpt lat="45.89681" lon="4.63428">
        <ele>300.79998779297</ele>
        <time>2014-04-19T10:38:24.000Z</time>
      </trkpt>
      <trkpt lat="45.89686" lon="4.63425">
        <ele>299.79998779297</ele>
        <time>2014-04-19T10:38:30.000Z</time>
      </trkpt>
      <trkpt lat="45.89688" lon="4.63424">
        <ele>299.39999389648</ele>
        <time>2014-04-19T10:38:32.000Z</time>
      </trkpt>
      <trkpt lat="45.89692" lon="4.63421">
        <ele>298.39999389648</ele>
        <time>2014-04-19T10:38:37.000Z</time>
      </trkpt>
      <trkpt lat="45.89695" lon="4.63418">
        <ele>297.60000610352</ele>
        <time>2014-04-19T10:38:42.000Z</time>
      </trkpt>
      <trkpt lat="45.89697" lon="4.63417">
        <ele>297.60000610352</ele>
        <time>2014-04-19T10:38:43.000Z</time>
      </trkpt>
      <trkpt lat="45.897" lon="4.63413">
        <ele>297</ele>
        <time>2014-04-19T10:38:47.000Z</time>
      </trkpt>
      <trkpt lat="45.89702" lon="4.63411">
        <ele>296.79998779297</ele>
        <time>2014-04-19T10:38:49.000Z</time>
      </trkpt>
      <trkpt lat="45.89709" lon="4.63406">
        <ele>296.39999389648</ele>
        <time>2014-04-19T10:38:53.000Z</time>
      </trkpt>
      <trkpt lat="45.8971" lon="4.63406">
        <ele>296.39999389648</ele>
        <time>2014-04-19T10:38:54.000Z</time>
      </trkpt>
      <trkpt lat="45.89717" lon="4.634">
        <ele>295.60000610352</ele>
        <time>2014-04-19T10:39:01.000Z</time>
      </trkpt>
      <trkpt lat="45.89721" lon="4.63398">
        <ele>295.39999389648</ele>
        <time>2014-04-19T10:39:04.000Z</time>
      </trkpt>
      <trkpt lat="45.89724" lon="4.63397">
        <ele>295</ele>
        <time>2014-04-19T10:39:07.000Z</time>
      </trkpt>
      <trkpt lat="45.89725" lon="4.63398">
        <ele>294.79998779297</ele>
        <time>2014-04-19T10:39:09.000Z</time>
      </trkpt>
      <trkpt lat="45.89726" lon="4.63398">
        <ele>294.79998779297</ele>
        <time>2014-04-19T10:39:10.000Z</time>
      </trkpt>
      <trkpt lat="45.89733" lon="4.63402">
        <ele>294.39999389648</ele>
        <time>2014-04-19T10:39:14.000Z</time>
      </trkpt>
      <trkpt lat="45.89744" lon="4.63414">
        <ele>293.79998779297</ele>
        <time>2014-04-19T10:39:20.000Z</time>
      </trkpt>
      <trkpt lat="45.8977" lon="4.6342">
        <ele>294</ele>
        <time>2014-04-19T10:39:29.000Z</time>
      </trkpt>
      <trkpt lat="45.89783" lon="4.63427">
        <ele>295.39999389648</ele>
        <time>2014-04-19T10:39:37.000Z</time>
      </trkpt>
      <trkpt lat="45.89789" lon="4.63438">
        <ele>296.39999389648</ele>
        <time>2014-04-19T10:39:45.000Z</time>
      </trkpt>
      <trkpt lat="45.89798" lon="4.6345">
        <ele>297</ele>
        <time>2014-04-19T10:39:51.000Z</time>
      </trkpt>
      <trkpt lat="45.89813" lon="4.63467">
        <ele>297.39999389648</ele>
        <time>2014-04-19T10:39:58.000Z</time>
      </trkpt>
      <trkpt lat="45.89827" lon="4.63486">
        <ele>297.79998779297</ele>
        <time>2014-04-19T10:40:04.000Z</time>
      </trkpt>
      <trkpt lat="45.89838" lon="4.63508">
        <ele>298.20001220703</ele>
        <time>2014-04-19T10:40:11.000Z</time>
      </trkpt>
      <trkpt lat="45.89847" lon="4.63523">
        <ele>298.60000610352</ele>
        <time>2014-04-19T10:40:17.000Z</time>
      </trkpt>
      <trkpt lat="45.89855" lon="4.63536">
        <ele>299.20001220703</ele>
        <time>2014-04-19T10:40:26.000Z</time>
      </trkpt>
      <trkpt lat="45.89861" lon="4.63548">
        <ele>299.79998779297</ele>
        <time>2014-04-19T10:40:33.000Z</time>
      </trkpt>
      <trkpt lat="45.89868" lon="4.63558">
        <ele>300.39999389648</ele>
        <time>2014-04-19T10:40:40.000Z</time>
      </trkpt>
      <trkpt lat="45.89876" lon="4.63574">
        <ele>300.79998779297</ele>
        <time>2014-04-19T10:40:50.000Z</time>
      </trkpt>
      <trkpt lat="45.89882" lon="4.63578">
        <ele>301</ele>
        <time>2014-04-19T10:40:56.000Z</time>
      </trkpt>
      <trkpt lat="45.89883" lon="4.63576">
        <ele>301</ele>
        <time>2014-04-19T10:40:58.000Z</time>
      </trkpt>
      <trkpt lat="45.89883" lon="4.63568">
        <ele>301</ele>
        <time>2014-04-19T10:41:03.000Z</time>
      </trkpt>
      <trkpt lat="45.89883" lon="4.63565">
        <ele>301</ele>
        <time>2014-04-19T10:41:05.000Z</time>
      </trkpt>
      <trkpt lat="45.89887" lon="4.6355">
        <ele>301</ele>
        <time>2014-04-19T10:41:14.000Z</time>
      </trkpt>
      <trkpt lat="45.89892" lon="4.63526">
        <ele>301.20001220703</ele>
        <time>2014-04-19T10:41:26.000Z</time>
      </trkpt>
      <trkpt lat="45.89894" lon="4.63508">
        <ele>301.79998779297</ele>
        <time>2014-04-19T10:41:36.000Z</time>
      </trkpt>
      <trkpt lat="45.89897" lon="4.63486">
        <ele>302.20001220703</ele>
        <time>2014-04-19T10:41:43.000Z</time>
      </trkpt>
      <trkpt lat="45.899" lon="4.63465">
        <ele>302.60000610352</ele>
        <time>2014-04-19T10:41:51.000Z</time>
      </trkpt>
      <trkpt lat="45.89902" lon="4.6346">
        <ele>303</ele>
        <time>2014-04-19T10:41:55.000Z</time>
      </trkpt>
      <trkpt lat="45.89908" lon="4.63459">
        <ele>303</ele>
        <time>2014-04-19T10:41:58.000Z</time>
      </trkpt>
      <trkpt lat="45.89917" lon="4.63462">
        <ele>303</ele>
        <time>2014-04-19T10:42:04.000Z</time>
      </trkpt>
      <trkpt lat="45.89922" lon="4.63463">
        <ele>303</ele>
        <time>2014-04-19T10:42:08.000Z</time>
      </trkpt>
      <trkpt lat="45.89927" lon="4.63464">
        <ele>303</ele>
        <time>2014-04-19T10:42:11.000Z</time>
      </trkpt>
      <trkpt lat="45.89937" lon="4.63463">
        <ele>303.20001220703</ele>
        <time>2014-04-19T10:42:19.000Z</time>
      </trkpt>
      <trkpt lat="45.89945" lon="4.63467">
        <ele>303</ele>
        <time>2014-04-19T10:42:29.000Z</time>
      </trkpt>
      <trkpt lat="45.89953" lon="4.63468">
        <ele>303</ele>
        <time>2014-04-19T10:42:36.000Z</time>
      </trkpt>
      <trkpt lat="45.89961" lon="4.63469">
        <ele>302.60000610352</ele>
        <time>2014-04-19T10:42:43.000Z</time>
      </trkpt>
      <trkpt lat="45.89971" lon="4.63468">
        <ele>302.39999389648</ele>
        <time>2014-04-19T10:42:50.000Z</time>
      </trkpt>
      <trkpt lat="45.89982" lon="4.63463">
        <ele>302.20001220703</ele>
        <time>2014-04-19T10:42:56.000Z</time>
      </trkpt>
      <trkpt lat="45.89991" lon="4.63459">
        <ele>302</ele>
        <time>2014-04-19T10:43:05.000Z</time>
      </trkpt>
      <trkpt lat="45.89999" lon="4.63459">
        <ele>301.60000610352</ele>
        <time>2014-04-19T10:43:13.000Z</time>
      </trkpt>
      <trkpt lat="45.90015" lon="4.63456">
        <ele>301.79998779297</ele>
        <time>2014-04-19T10:43:20.000Z</time>
      </trkpt>
      <trkpt lat="45.90018" lon="4.63456">
        <ele>301.79998779297</ele>
        <time>2014-04-19T10:43:22.000Z</time>
      </trkpt>
      <trkpt lat="45.90024" lon="4.63454">
        <ele>302</ele>
        <time>2014-04-19T10:43:26.000Z</time>
      </trkpt>
      <trkpt lat="45.90027" lon="4.63455">
        <ele>302.20001220703</ele>
        <time>2014-04-19T10:43:30.000Z</time>
      </trkpt>
      <trkpt lat="45.90031" lon="4.63457">
        <ele>302.20001220703</ele>
        <time>2014-04-19T10:43:34.000Z</time>
      </trkpt>
      <trkpt lat="45.9004" lon="4.63464">
        <ele>302.20001220703</ele>
        <time>2014-04-19T10:43:42.000Z</time>
      </trkpt>
      <trkpt lat="45.90053" lon="4.63469">
        <ele>302</ele>
        <time>2014-04-19T10:43:51.000Z</time>
      </trkpt>
      <trkpt lat="45.90058" lon="4.63473">
        <ele>302</ele>
        <time>2014-04-19T10:43:56.000Z</time>
      </trkpt>
      <trkpt lat="45.90061" lon="4.63473">
        <ele>302</ele>
        <time>2014-04-19T10:43:58.000Z</time>
      </trkpt>
      <trkpt lat="45.90062" lon="4.63473">
        <ele>302</ele>
        <time>2014-04-19T10:44:00.000Z</time>
      </trkpt>
      <trkpt lat="45.90068" lon="4.63473">
        <ele>301.79998779297</ele>
        <time>2014-04-19T10:44:06.000Z</time>
      </trkpt>
      <trkpt lat="45.90074" lon="4.63478">
        <ele>301.39999389648</ele>
        <time>2014-04-19T10:44:13.000Z</time>
      </trkpt>
      <trkpt lat="45.90084" lon="4.63479">
        <ele>301.20001220703</ele>
        <time>2014-04-19T10:44:20.000Z</time>
      </trkpt>
      <trkpt lat="45.90089" lon="4.63482">
        <ele>301</ele>
        <time>2014-04-19T10:44:23.000Z</time>
      </trkpt>
      <trkpt lat="45.90095" lon="4.63483">
        <ele>300.79998779297</ele>
        <time>2014-04-19T10:44:26.000Z</time>
      </trkpt>
      <trkpt lat="45.90107" lon="4.63486">
        <ele>300.79998779297</ele>
        <time>2014-04-19T10:44:31.000Z</time>
      </trkpt>
      <trkpt lat="45.9012" lon="4.63493">
        <ele>301</ele>
        <time>2014-04-19T10:44:40.000Z</time>
      </trkpt>
      <trkpt lat="45.90128" lon="4.63502">
        <ele>301.20001220703</ele>
        <time>2014-04-19T10:44:47.000Z</time>
      </trkpt>
      <trkpt lat="45.9013" lon="4.63504">
        <ele>301.20001220703</ele>
        <time>2014-04-19T10:44:49.000Z</time>
      </trkpt>
      <trkpt lat="45.90133" lon="4.63508">
        <ele>301.20001220703</ele>
        <time>2014-04-19T10:44:52.000Z</time>
      </trkpt>
      <trkpt lat="45.90139" lon="4.63516">
        <ele>301.60000610352</ele>
        <time>2014-04-19T10:44:59.000Z</time>
      </trkpt>
      <trkpt lat="45.90148" lon="4.63525">
        <ele>302.39999389648</ele>
        <time>2014-04-19T10:45:07.000Z</time>
      </trkpt>
      <trkpt lat="45.90151" lon="4.63529">
        <ele>302.20001220703</ele>
        <time>2014-04-19T10:45:10.000Z</time>
      </trkpt>
      <trkpt lat="45.90155" lon="4.63531">
        <ele>302.39999389648</ele>
        <time>2014-04-19T10:45:14.000Z</time>
      </trkpt>
      <trkpt lat="45.90165" lon="4.63541">
        <ele>302.39999389648</ele>
        <time>2014-04-19T10:45:19.000Z</time>
      </trkpt>
      <trkpt lat="45.90187" lon="4.63565">
        <ele>302.39999389648</ele>
        <time>2014-04-19T10:45:26.000Z</time>
      </trkpt>
      <trkpt lat="45.90195" lon="4.63574">
        <ele>302.60000610352</ele>
        <time>2014-04-19T10:45:31.000Z</time>
      </trkpt>
      <trkpt lat="45.90202" lon="4.63582">
        <ele>303.20001220703</ele>
        <time>2014-04-19T10:45:38.000Z</time>
      </trkpt>
      <trkpt lat="45.90211" lon="4.63587">
        <ele>303.60000610352</ele>
        <time>2014-04-19T10:45:47.000Z</time>
      </trkpt>
      <trkpt lat="45.90221" lon="4.63594">
        <ele>303.60000610352</ele>
        <time>2014-04-19T10:45:54.000Z</time>
      </trkpt>
      <trkpt lat="45.90232" lon="4.636">
        <ele>303.60000610352</ele>
        <time>2014-04-19T10:46:01.000Z</time>
      </trkpt>
      <trkpt lat="45.90237" lon="4.63604">
        <ele>303.60000610352</ele>
        <time>2014-04-19T10:46:07.000Z</time>
      </trkpt>
      <trkpt lat="45.9029" lon="4.6361">
        <ele>304.20001220703</ele>
        <time>2014-04-19T12:07:23.000Z</time>
      </trkpt>
      <trkpt lat="45.90298" lon="4.63609">
        <ele>304.20001220703</ele>
        <time>2014-04-19T12:07:31.000Z</time>
      </trkpt>
      <trkpt lat="45.903" lon="4.63609">
        <ele>304.20001220703</ele>
        <time>2014-04-19T12:07:32.000Z</time>
      </trkpt>
      <trkpt lat="45.903" lon="4.63609">
        <ele>304</ele>
        <time>2014-04-19T12:07:34.000Z</time>
      </trkpt>
      <trkpt lat="45.90302" lon="4.63609">
        <ele>304</ele>
        <time>2014-04-19T12:07:36.000Z</time>
      </trkpt>
      <trkpt lat="45.90302" lon="4.63609">
        <ele>304</ele>
        <time>2014-04-19T12:07:37.000Z</time>
      </trkpt>
      <trkpt lat="45.90318" lon="4.63612">
        <ele>303.60000610352</ele>
        <time>2014-04-19T12:07:53.000Z</time>
      </trkpt>
      <trkpt lat="45.9032" lon="4.63613">
        <ele>303.60000610352</ele>
        <time>2014-04-19T12:07:55.000Z</time>
      </trkpt>
      <trkpt lat="45.90329" lon="4.63616">
        <ele>303.39999389648</ele>
        <time>2014-04-19T12:08:02.000Z</time>
      </trkpt>
      <trkpt lat="45.90336" lon="4.63622">
        <ele>303.20001220703</ele>
        <time>2014-04-19T12:08:09.000Z</time>
      </trkpt>
      <trkpt lat="45.90339" lon="4.63627">
        <ele>303</ele>
        <time>2014-04-19T12:08:13.000Z</time>
      </trkpt>
      <trkpt lat="45.9034" lon="4.63629">
        <ele>303</ele>
        <time>2014-04-19T12:08:15.000Z</time>
      </trkpt>
      <trkpt lat="45.9034" lon="4.6363">
        <ele>303</ele>
        <time>2014-04-19T12:08:16.000Z</time>
      </trkpt>
      <trkpt lat="45.90341" lon="4.63631">
        <ele>303</ele>
        <time>2014-04-19T12:08:17.000Z</time>
      </trkpt>
      <trkpt lat="45.90348" lon="4.6364">
        <ele>303</ele>
        <time>2014-04-19T12:08:23.000Z</time>
      </trkpt>
      <trkpt lat="45.90349" lon="4.63643">
        <ele>302.79998779297</ele>
        <time>2014-04-19T12:08:26.000Z</time>
      </trkpt>
      <trkpt lat="45.90351" lon="4.63647">
        <ele>302.79998779297</ele>
        <time>2014-04-19T12:08:30.000Z</time>
      </trkpt>
      <trkpt lat="45.90351" lon="4.63648">
        <ele>302.60000610352</ele>
        <time>2014-04-19T12:08:31.000Z</time>
      </trkpt>
      <trkpt lat="45.90353" lon="4.63652">
        <ele>302.60000610352</ele>
        <time>2014-04-19T12:08:35.000Z</time>
      </trkpt>
      <trkpt lat="45.90355" lon="4.63656">
        <ele>302.39999389648</ele>
        <time>2014-04-19T12:08:39.000Z</time>
      </trkpt>
      <trkpt lat="45.9036" lon="4.63662">
        <ele>302</ele>
        <time>2014-04-19T12:08:46.000Z</time>
      </trkpt>
      <trkpt lat="45.90364" lon="4.63667">
        <ele>301.79998779297</ele>
        <time>2014-04-19T12:08:52.000Z</time>
      </trkpt>
      <trkpt lat="45.90366" lon="4.63669">
        <ele>301.60000610352</ele>
        <time>2014-04-19T12:08:54.000Z</time>
      </trkpt>
      <trkpt lat="45.90368" lon="4.6367">
        <ele>301.39999389648</ele>
        <time>2014-04-19T12:08:58.000Z</time>
      </trkpt>
      <trkpt lat="45.90372" lon="4.63672">
        <ele>301</ele>
        <time>2014-04-19T12:09:12.000Z</time>
      </trkpt>
      <trkpt lat="45.90371" lon="4.63673">
        <ele>301</ele>
        <time>2014-04-19T12:09:13.000Z</time>
      </trkpt>
      <trkpt lat="45.9041" lon="4.63684">
        <ele>299.20001220703</ele>
        <time>2014-04-19T12:10:12.000Z</time>
      </trkpt>
      <trkpt lat="45.90414" lon="4.63685">
        <ele>298.79998779297</ele>
        <time>2014-04-19T12:10:16.000Z</time>
      </trkpt>
      <trkpt lat="45.90419" lon="4.63687">
        <ele>298.39999389648</ele>
        <time>2014-04-19T12:10:21.000Z</time>
      </trkpt>
      <trkpt lat="45.90421" lon="4.63689">
        <ele>298.39999389648</ele>
        <time>2014-04-19T12:10:23.000Z</time>
      </trkpt>
      <trkpt lat="45.90423" lon="4.63688">
        <ele>298.20001220703</ele>
        <time>2014-04-19T12:10:25.000Z</time>
      </trkpt>
      <trkpt lat="45.90427" lon="4.6369">
        <ele>297.79998779297</ele>
        <time>2014-04-19T12:10:29.000Z</time>
      </trkpt>
      <trkpt lat="45.90433" lon="4.63692">
        <ele>297</ele>
        <time>2014-04-19T12:10:35.000Z</time>
      </trkpt>
      <trkpt lat="45.90438" lon="4.63694">
        <ele>296.20001220703</ele>
        <time>2014-04-19T12:10:42.000Z</time>
      </trkpt>
      <trkpt lat="45.90451" lon="4.63699">
        <ele>295.60000610352</ele>
        <time>2014-04-19T12:10:49.000Z</time>
      </trkpt>
      <trkpt lat="45.9046" lon="4.63703">
        <ele>295.20001220703</ele>
        <time>2014-04-19T12:10:55.000Z</time>
      </trkpt>
      <trkpt lat="45.90467" lon="4.63708">
        <ele>294.79998779297</ele>
        <time>2014-04-19T12:11:00.000Z</time>
      </trkpt>
      <trkpt lat="45.90468" lon="4.63708">
        <ele>294.79998779297</ele>
        <time>2014-04-19T12:11:01.000Z</time>
      </trkpt>
      <trkpt lat="45.90471" lon="4.63712">
        <ele>294.60000610352</ele>
        <time>2014-04-19T12:11:05.000Z</time>
      </trkpt>
      <trkpt lat="45.90473" lon="4.63715">
        <ele>294.39999389648</ele>
        <time>2014-04-19T12:11:07.000Z</time>
      </trkpt>
      <trkpt lat="45.90474" lon="4.63716">
        <ele>294.39999389648</ele>
        <time>2014-04-19T12:11:08.000Z</time>
      </trkpt>
      <trkpt lat="45.90474" lon="4.63719">
        <ele>294.20001220703</ele>
        <time>2014-04-19T12:11:09.000Z</time>
      </trkpt>
      <trkpt lat="45.90481" lon="4.63727">
        <ele>293.79998779297</ele>
        <time>2014-04-19T12:11:14.000Z</time>
      </trkpt>
      <trkpt lat="45.90487" lon="4.63735">
        <ele>293.20001220703</ele>
        <time>2014-04-19T12:11:22.000Z</time>
      </trkpt>
      <trkpt lat="45.90494" lon="4.63741">
        <ele>292.79998779297</ele>
        <time>2014-04-19T12:11:28.000Z</time>
      </trkpt>
      <trkpt lat="45.905" lon="4.63745">
        <ele>292.60000610352</ele>
        <time>2014-04-19T12:11:34.000Z</time>
      </trkpt>
      <trkpt lat="45.90504" lon="4.63754">
        <ele>292.20001220703</ele>
        <time>2014-04-19T12:11:42.000Z</time>
      </trkpt>
      <trkpt lat="45.90513" lon="4.63759">
        <ele>291.79998779297</ele>
        <time>2014-04-19T12:11:48.000Z</time>
      </trkpt>
      <trkpt lat="45.90523" lon="4.63768">
        <ele>291.20001220703</ele>
        <time>2014-04-19T12:11:56.000Z</time>
      </trkpt>
      <trkpt lat="45.90525" lon="4.6377">
        <ele>291</ele>
        <time>2014-04-19T12:11:59.000Z</time>
      </trkpt>
      <trkpt lat="45.90527" lon="4.63769">
        <ele>290.79998779297</ele>
        <time>2014-04-19T12:12:02.000Z</time>
      </trkpt>
      <trkpt lat="45.90529" lon="4.63761">
        <ele>290.60000610352</ele>
        <time>2014-04-19T12:12:08.000Z</time>
      </trkpt>
      <trkpt lat="45.90532" lon="4.63749">
        <ele>290.20001220703</ele>
        <time>2014-04-19T12:12:14.000Z</time>
      </trkpt>
      <trkpt lat="45.90531" lon="4.63743">
        <ele>290.20001220703</ele>
        <time>2014-04-19T12:12:18.000Z</time>
      </trkpt>
      <trkpt lat="45.90532" lon="4.63738">
        <ele>290</ele>
        <time>2014-04-19T12:12:21.000Z</time>
      </trkpt>
      <trkpt lat="45.90533" lon="4.63733">
        <ele>290</ele>
        <time>2014-04-19T12:12:24.000Z</time>
      </trkpt>
      <trkpt lat="45.90534" lon="4.63723">
        <ele>290.20001220703</ele>
        <time>2014-04-19T12:12:29.000Z</time>
      </trkpt>
      <trkpt lat="45.90536" lon="4.63711">
        <ele>290.60000610352</ele>
        <time>2014-04-19T12:12:36.000Z</time>
      </trkpt>
      <trkpt lat="45.90535" lon="4.63696">
        <ele>290.60000610352</ele>
        <time>2014-04-19T12:12:43.000Z</time>
      </trkpt>
      <trkpt lat="45.90542" lon="4.63677">
        <ele>290.60000610352</ele>
        <time>2014-04-19T12:12:50.000Z</time>
      </trkpt>
      <trkpt lat="45.90548" lon="4.6366">
        <ele>290.60000610352</ele>
        <time>2014-04-19T12:12:55.000Z</time>
      </trkpt>
      <trkpt lat="45.90549" lon="4.63656">
        <ele>290.79998779297</ele>
        <time>2014-04-19T12:12:57.000Z</time>
      </trkpt>
      <trkpt lat="45.9055" lon="4.6365">
        <ele>290.79998779297</ele>
        <time>2014-04-19T12:13:00.000Z</time>
      </trkpt>
      <trkpt lat="45.90551" lon="4.63644">
        <ele>291</ele>
        <time>2014-04-19T12:13:03.000Z</time>
      </trkpt>
      <trkpt lat="45.90551" lon="4.63632">
        <ele>291.60000610352</ele>
        <time>2014-04-19T12:13:08.000Z</time>
      </trkpt>
      <trkpt lat="45.90551" lon="4.63618">
        <ele>292</ele>
        <time>2014-04-19T12:13:14.000Z</time>
      </trkpt>
      <trkpt lat="45.90551" lon="4.63604">
        <ele>292.39999389648</ele>
        <time>2014-04-19T12:13:22.000Z</time>
      </trkpt>
      <trkpt lat="45.9055" lon="4.63598">
        <ele>292.39999389648</ele>
        <time>2014-04-19T12:13:26.000Z</time>
      </trkpt>
      <trkpt lat="45.90549" lon="4.63595">
        <ele>292.39999389648</ele>
        <time>2014-04-19T12:13:28.000Z</time>
      </trkpt>
      <trkpt lat="45.90548" lon="4.63592">
        <ele>292.20001220703</ele>
        <time>2014-04-19T12:13:30.000Z</time>
      </trkpt>
      <trkpt lat="45.90548" lon="4.63587">
        <ele>292.20001220703</ele>
        <time>2014-04-19T12:13:33.000Z</time>
      </trkpt>
      <trkpt lat="45.90547" lon="4.6358">
        <ele>292.20001220703</ele>
        <time>2014-04-19T12:13:38.000Z</time>
      </trkpt>
      <trkpt lat="45.90545" lon="4.63565">
        <ele>292.20001220703</ele>
        <time>2014-04-19T12:13:43.000Z</time>
      </trkpt>
      <trkpt lat="45.90545" lon="4.63547">
        <ele>292</ele>
        <time>2014-04-19T12:13:49.000Z</time>
      </trkpt>
      <trkpt lat="45.90544" lon="4.6353">
        <ele>291.79998779297</ele>
        <time>2014-04-19T12:13:55.000Z</time>
      </trkpt>
      <trkpt lat="45.90542" lon="4.6352">
        <ele>291.39999389648</ele>
        <time>2014-04-19T12:14:00.000Z</time>
      </trkpt>
      <trkpt lat="45.90541" lon="4.63518">
        <ele>291.39999389648</ele>
        <time>2014-04-19T12:14:01.000Z</time>
      </trkpt>
      <trkpt lat="45.90537" lon="4.63509">
        <ele>291.39999389648</ele>
        <time>2014-04-19T12:14:06.000Z</time>
      </trkpt>
      <trkpt lat="45.90536" lon="4.63505">
        <ele>291.20001220703</ele>
        <time>2014-04-19T12:14:08.000Z</time>
      </trkpt>
      <trkpt lat="45.90531" lon="4.63492">
        <ele>291</ele>
        <time>2014-04-19T12:14:16.000Z</time>
      </trkpt>
      <trkpt lat="45.90528" lon="4.63487">
        <ele>291</ele>
        <time>2014-04-19T12:14:19.000Z</time>
      </trkpt>
      <trkpt lat="45.90525" lon="4.6348">
        <ele>291</ele>
        <time>2014-04-19T12:14:23.000Z</time>
      </trkpt>
      <trkpt lat="45.90524" lon="4.63479">
        <ele>291</ele>
        <time>2014-04-19T12:14:24.000Z</time>
      </trkpt>
      <trkpt lat="45.90521" lon="4.63474">
        <ele>291</ele>
        <time>2014-04-19T12:14:28.000Z</time>
      </trkpt>
      <trkpt lat="45.9052" lon="4.63471">
        <ele>291</ele>
        <time>2014-04-19T12:14:30.000Z</time>
      </trkpt>
      <trkpt lat="45.90515" lon="4.63454">
        <ele>291</ele>
        <time>2014-04-19T12:14:38.000Z</time>
      </trkpt>
      <trkpt lat="45.9051" lon="4.63438">
        <ele>291.39999389648</ele>
        <time>2014-04-19T12:14:44.000Z</time>
      </trkpt>
      <trkpt lat="45.90506" lon="4.63423">
        <ele>292.39999389648</ele>
        <time>2014-04-19T12:14:53.000Z</time>
      </trkpt>
      <trkpt lat="45.90506" lon="4.63422">
        <ele>292.39999389648</ele>
        <time>2014-04-19T12:14:54.000Z</time>
      </trkpt>
      <trkpt lat="45.90504" lon="4.63411">
        <ele>293.39999389648</ele>
        <time>2014-04-19T12:14:59.000Z</time>
      </trkpt>
      <trkpt lat="45.90501" lon="4.63401">
        <ele>294</ele>
        <time>2014-04-19T12:15:05.000Z</time>
      </trkpt>
      <trkpt lat="45.905" lon="4.634">
        <ele>294</ele>
        <time>2014-04-19T12:15:06.000Z</time>
      </trkpt>
      <trkpt lat="45.90497" lon="4.63391">
        <ele>294.60000610352</ele>
        <time>2014-04-19T12:15:12.000Z</time>
      </trkpt>
      <trkpt lat="45.90491" lon="4.63376">
        <ele>295.60000610352</ele>
        <time>2014-04-19T12:15:21.000Z</time>
      </trkpt>
      <trkpt lat="45.90488" lon="4.63363">
        <ele>296.39999389648</ele>
        <time>2014-04-19T12:15:27.000Z</time>
      </trkpt>
      <trkpt lat="45.90483" lon="4.63347">
        <ele>297.39999389648</ele>
        <time>2014-04-19T12:15:34.000Z</time>
      </trkpt>
      <trkpt lat="45.90477" lon="4.63327">
        <ele>298</ele>
        <time>2014-04-19T12:15:41.000Z</time>
      </trkpt>
      <trkpt lat="45.90475" lon="4.63319">
        <ele>298.20001220703</ele>
        <time>2014-04-19T12:15:43.000Z</time>
      </trkpt>
      <trkpt lat="45.90471" lon="4.63302">
        <ele>298.79998779297</ele>
        <time>2014-04-19T12:15:48.000Z</time>
      </trkpt>
      <trkpt lat="45.90467" lon="4.63289">
        <ele>299.79998779297</ele>
        <time>2014-04-19T12:15:54.000Z</time>
      </trkpt>
      <trkpt lat="45.90461" lon="4.63274">
        <ele>300.79998779297</ele>
        <time>2014-04-19T12:16:02.000Z</time>
      </trkpt>
      <trkpt lat="45.9045" lon="4.63257">
        <ele>302.39999389648</ele>
        <time>2014-04-19T12:16:12.000Z</time>
      </trkpt>
      <trkpt lat="45.90439" lon="4.63245">
        <ele>303.60000610352</ele>
        <time>2014-04-19T12:16:19.000Z</time>
      </trkpt>
      <trkpt lat="45.90426" lon="4.63233">
        <ele>305</ele>
        <time>2014-04-19T12:16:29.000Z</time>
      </trkpt>
      <trkpt lat="45.90418" lon="4.63222">
        <ele>306</ele>
        <time>2014-04-19T12:16:36.000Z</time>
      </trkpt>
      <trkpt lat="45.90411" lon="4.63207">
        <ele>307</ele>
        <time>2014-04-19T12:16:46.000Z</time>
      </trkpt>
      <trkpt lat="45.90413" lon="4.63189">
        <ele>308</ele>
        <time>2014-04-19T12:16:55.000Z</time>
      </trkpt>
      <trkpt lat="45.90417" lon="4.63178">
        <ele>308.60000610352</ele>
        <time>2014-04-19T12:17:00.000Z</time>
      </trkpt>
      <trkpt lat="45.90424" lon="4.63157">
        <ele>309.39999389648</ele>
        <time>2014-04-19T12:17:08.000Z</time>
      </trkpt>
      <trkpt lat="45.9043" lon="4.63146">
        <ele>310</ele>
        <time>2014-04-19T12:17:15.000Z</time>
      </trkpt>
      <trkpt lat="45.90434" lon="4.63134">
        <ele>310.39999389648</ele>
        <time>2014-04-19T12:17:22.000Z</time>
      </trkpt>
      <trkpt lat="45.90436" lon="4.63118">
        <ele>311.39999389648</ele>
        <time>2014-04-19T12:17:31.000Z</time>
      </trkpt>
      <trkpt lat="45.90441" lon="4.63103">
        <ele>311.79998779297</ele>
        <time>2014-04-19T12:17:40.000Z</time>
      </trkpt>
      <trkpt lat="45.90442" lon="4.6309">
        <ele>312.20001220703</ele>
        <time>2014-04-19T12:17:47.000Z</time>
      </trkpt>
      <trkpt lat="45.90441" lon="4.63076">
        <ele>312.60000610352</ele>
        <time>2014-04-19T12:17:55.000Z</time>
      </trkpt>
      <trkpt lat="45.90443" lon="4.63055">
        <ele>313</ele>
        <time>2014-04-19T12:18:06.000Z</time>
      </trkpt>
      <trkpt lat="45.90443" lon="4.63039">
        <ele>313.20001220703</ele>
        <time>2014-04-19T12:18:15.000Z</time>
      </trkpt>
      <trkpt lat="45.90443" lon="4.63029">
        <ele>313.20001220703</ele>
        <time>2014-04-19T12:18:22.000Z</time>
      </trkpt>
      <trkpt lat="45.90443" lon="4.63027">
        <ele>313.20001220703</ele>
        <time>2014-04-19T12:18:23.000Z</time>
      </trkpt>
      <trkpt lat="45.90443" lon="4.63016">
        <ele>313</ele>
        <time>2014-04-19T12:18:29.000Z</time>
      </trkpt>
      <trkpt lat="45.90443" lon="4.63011">
        <ele>312.79998779297</ele>
        <time>2014-04-19T12:18:32.000Z</time>
      </trkpt>
      <trkpt lat="45.90443" lon="4.63004">
        <ele>312.60000610352</ele>
        <time>2014-04-19T12:18:36.000Z</time>
      </trkpt>
      <trkpt lat="45.90445" lon="4.62987">
        <ele>312.20001220703</ele>
        <time>2014-04-19T12:18:46.000Z</time>
      </trkpt>
      <trkpt lat="45.90446" lon="4.6297">
        <ele>311.79998779297</ele>
        <time>2014-04-19T12:18:55.000Z</time>
      </trkpt>
      <trkpt lat="45.90447" lon="4.62954">
        <ele>311.39999389648</ele>
        <time>2014-04-19T12:19:04.000Z</time>
      </trkpt>
      <trkpt lat="45.9045" lon="4.62941">
        <ele>311.60000610352</ele>
        <time>2014-04-19T12:19:11.000Z</time>
      </trkpt>
      <trkpt lat="45.90454" lon="4.62927">
        <ele>312</ele>
        <time>2014-04-19T12:19:18.000Z</time>
      </trkpt>
      <trkpt lat="45.90462" lon="4.62906">
        <ele>312.60000610352</ele>
        <time>2014-04-19T12:19:26.000Z</time>
      </trkpt>
      <trkpt lat="45.90465" lon="4.62896">
        <ele>313.20001220703</ele>
        <time>2014-04-19T12:19:32.000Z</time>
      </trkpt>
      <trkpt lat="45.9047" lon="4.62881">
        <ele>313.60000610352</ele>
        <time>2014-04-19T12:19:39.000Z</time>
      </trkpt>
      <trkpt lat="45.90472" lon="4.62858">
        <ele>313.79998779297</ele>
        <time>2014-04-19T12:19:46.000Z</time>
      </trkpt>
      <trkpt lat="45.90471" lon="4.62848">
        <ele>313.79998779297</ele>
        <time>2014-04-19T12:19:52.000Z</time>
      </trkpt>
      <trkpt lat="45.9047" lon="4.62845">
        <ele>313.79998779297</ele>
        <time>2014-04-19T12:19:54.000Z</time>
      </trkpt>
      <trkpt lat="45.90469" lon="4.62841">
        <ele>313.79998779297</ele>
        <time>2014-04-19T12:19:57.000Z</time>
      </trkpt>
      <trkpt lat="45.90468" lon="4.62839">
        <ele>313.79998779297</ele>
        <time>2014-04-19T12:19:58.000Z</time>
      </trkpt>
      <trkpt lat="45.90467" lon="4.62834">
        <ele>313.79998779297</ele>
        <time>2014-04-19T12:20:01.000Z</time>
      </trkpt>
      <trkpt lat="45.90464" lon="4.62827">
        <ele>313.79998779297</ele>
        <time>2014-04-19T12:20:05.000Z</time>
      </trkpt>
      <trkpt lat="45.90461" lon="4.62817">
        <ele>313.79998779297</ele>
        <time>2014-04-19T12:20:12.000Z</time>
      </trkpt>
      <trkpt lat="45.90454" lon="4.62809">
        <ele>313.60000610352</ele>
        <time>2014-04-19T12:20:20.000Z</time>
      </trkpt>
      <trkpt lat="45.90448" lon="4.62792">
        <ele>313.20001220703</ele>
        <time>2014-04-19T12:20:27.000Z</time>
      </trkpt>
      <trkpt lat="45.90441" lon="4.62777">
        <ele>313</ele>
        <time>2014-04-19T12:20:36.000Z</time>
      </trkpt>
      <trkpt lat="45.90433" lon="4.62761">
        <ele>313</ele>
        <time>2014-04-19T12:20:42.000Z</time>
      </trkpt>
      <trkpt lat="45.9042" lon="4.62729">
        <ele>313</ele>
        <time>2014-04-19T12:20:50.000Z</time>
      </trkpt>
      <trkpt lat="45.90405" lon="4.62692">
        <ele>313</ele>
        <time>2014-04-19T12:20:57.000Z</time>
      </trkpt>
      <trkpt lat="45.90392" lon="4.62657">
        <ele>313.39999389648</ele>
        <time>2014-04-19T12:21:05.000Z</time>
      </trkpt>
      <trkpt lat="45.90379" lon="4.62629">
        <ele>314</ele>
        <time>2014-04-19T12:21:13.000Z</time>
      </trkpt>
      <trkpt lat="45.90375" lon="4.62621">
        <ele>314.20001220703</ele>
        <time>2014-04-19T12:21:18.000Z</time>
      </trkpt>
      <trkpt lat="45.90372" lon="4.62606">
        <ele>315</ele>
        <time>2014-04-19T12:21:27.000Z</time>
      </trkpt>
      <trkpt lat="45.90366" lon="4.62592">
        <ele>315.60000610352</ele>
        <time>2014-04-19T12:21:35.000Z</time>
      </trkpt>
      <trkpt lat="45.90359" lon="4.62576">
        <ele>316.39999389648</ele>
        <time>2014-04-19T12:21:45.000Z</time>
      </trkpt>
      <trkpt lat="45.90352" lon="4.62559">
        <ele>317.20001220703</ele>
        <time>2014-04-19T12:21:56.000Z</time>
      </trkpt>
      <trkpt lat="45.90347" lon="4.62545">
        <ele>317.79998779297</ele>
        <time>2014-04-19T12:22:05.000Z</time>
      </trkpt>
      <trkpt lat="45.9034" lon="4.62528">
        <ele>318.20001220703</ele>
        <time>2014-04-19T12:22:13.000Z</time>
      </trkpt>
      <trkpt lat="45.90336" lon="4.62522">
        <ele>318.60000610352</ele>
        <time>2014-04-19T12:22:20.000Z</time>
      </trkpt>
      <trkpt lat="45.90336" lon="4.62522">
        <ele>318.60000610352</ele>
        <time>2014-04-19T12:22:21.000Z</time>
      </trkpt>
      <trkpt lat="45.90329" lon="4.62504">
        <ele>319.20001220703</ele>
        <time>2014-04-19T12:22:42.000Z</time>
      </trkpt>
      <trkpt lat="45.90329" lon="4.62497">
        <ele>319.20001220703</ele>
        <time>2014-04-19T12:22:45.000Z</time>
      </trkpt>
      <trkpt lat="45.90327" lon="4.62484">
        <ele>319.60000610352</ele>
        <time>2014-04-19T12:22:52.000Z</time>
      </trkpt>
      <trkpt lat="45.90325" lon="4.62462">
        <ele>320</ele>
        <time>2014-04-19T12:23:04.000Z</time>
      </trkpt>
      <trkpt lat="45.90325" lon="4.62444">
        <ele>320</ele>
        <time>2014-04-19T12:23:14.000Z</time>
      </trkpt>
      <trkpt lat="45.90325" lon="4.62424">
        <ele>320</ele>
        <time>2014-04-19T12:23:25.000Z</time>
      </trkpt>
      <trkpt lat="45.90324" lon="4.62403">
        <ele>319.79998779297</ele>
        <time>2014-04-19T12:23:33.000Z</time>
      </trkpt>
      <trkpt lat="45.90325" lon="4.62386">
        <ele>319.79998779297</ele>
        <time>2014-04-19T12:23:41.000Z</time>
      </trkpt>
      <trkpt lat="45.90324" lon="4.62371">
        <ele>319.79998779297</ele>
        <time>2014-04-19T12:23:49.000Z</time>
      </trkpt>
      <trkpt lat="45.90325" lon="4.62353">
        <ele>319.79998779297</ele>
        <time>2014-04-19T12:23:59.000Z</time>
      </trkpt>
      <trkpt lat="45.90329" lon="4.6233">
        <ele>319.60000610352</ele>
        <time>2014-04-19T12:24:12.000Z</time>
      </trkpt>
      <trkpt lat="45.90333" lon="4.62313">
        <ele>319.60000610352</ele>
        <time>2014-04-19T12:24:22.000Z</time>
      </trkpt>
      <trkpt lat="45.90337" lon="4.62293">
        <ele>319.39999389648</ele>
        <time>2014-04-19T12:24:32.000Z</time>
      </trkpt>
      <trkpt lat="45.90337" lon="4.62275">
        <ele>319.39999389648</ele>
        <time>2014-04-19T12:24:41.000Z</time>
      </trkpt>
      <trkpt lat="45.9034" lon="4.62264">
        <ele>319.20001220703</ele>
        <time>2014-04-19T12:24:49.000Z</time>
      </trkpt>
      <trkpt lat="45.90347" lon="4.6226">
        <ele>319.20001220703</ele>
        <time>2014-04-19T12:24:56.000Z</time>
      </trkpt>
      <trkpt lat="45.90348" lon="4.6226">
        <ele>319.20001220703</ele>
        <time>2014-04-19T12:24:57.000Z</time>
      </trkpt>
      <trkpt lat="45.90356" lon="4.62255">
        <ele>319.20001220703</ele>
        <time>2014-04-19T12:25:04.000Z</time>
      </trkpt>
      <trkpt lat="45.90357" lon="4.62254">
        <ele>319.20001220703</ele>
        <time>2014-04-19T12:25:05.000Z</time>
      </trkpt>
      <trkpt lat="45.90372" lon="4.62247">
        <ele>319</ele>
        <time>2014-04-19T12:25:18.000Z</time>
      </trkpt>
      <trkpt lat="45.9038" lon="4.6224">
        <ele>319</ele>
        <time>2014-04-19T12:25:26.000Z</time>
      </trkpt>
      <trkpt lat="45.90391" lon="4.62236">
        <ele>319</ele>
        <time>2014-04-19T12:25:36.000Z</time>
      </trkpt>
      <trkpt lat="45.90401" lon="4.62227">
        <ele>319</ele>
        <time>2014-04-19T12:25:46.000Z</time>
      </trkpt>
      <trkpt lat="45.90412" lon="4.62221">
        <ele>318.79998779297</ele>
        <time>2014-04-19T12:25:57.000Z</time>
      </trkpt>
      <trkpt lat="45.90423" lon="4.62221">
        <ele>318.79998779297</ele>
        <time>2014-04-19T12:26:04.000Z</time>
      </trkpt>
      <trkpt lat="45.90425" lon="4.6222">
        <ele>318.79998779297</ele>
        <time>2014-04-19T12:26:05.000Z</time>
      </trkpt>
      <trkpt lat="45.90438" lon="4.62214">
        <ele>318.79998779297</ele>
        <time>2014-04-19T12:26:15.000Z</time>
      </trkpt>
      <trkpt lat="45.90449" lon="4.6221">
        <ele>318.79998779297</ele>
        <time>2014-04-19T12:26:24.000Z</time>
      </trkpt>
      <trkpt lat="45.9046" lon="4.62206">
        <ele>318.79998779297</ele>
        <time>2014-04-19T12:26:32.000Z</time>
      </trkpt>
      <trkpt lat="45.90467" lon="4.62203">
        <ele>318.79998779297</ele>
        <time>2014-04-19T12:26:39.000Z</time>
      </trkpt>
      <trkpt lat="45.90476" lon="4.62198">
        <ele>318.79998779297</ele>
        <time>2014-04-19T12:26:48.000Z</time>
      </trkpt>
      <trkpt lat="45.90486" lon="4.62188">
        <ele>318.79998779297</ele>
        <time>2014-04-19T12:26:57.000Z</time>
      </trkpt>
      <trkpt lat="45.90494" lon="4.6218">
        <ele>318.60000610352</ele>
        <time>2014-04-19T12:27:05.000Z</time>
      </trkpt>
      <trkpt lat="45.90503" lon="4.62168">
        <ele>318.39999389648</ele>
        <time>2014-04-19T12:27:14.000Z</time>
      </trkpt>
      <trkpt lat="45.90513" lon="4.62153">
        <ele>318</ele>
        <time>2014-04-19T12:27:25.000Z</time>
      </trkpt>
      <trkpt lat="45.90523" lon="4.62138">
        <ele>317.79998779297</ele>
        <time>2014-04-19T12:27:35.000Z</time>
      </trkpt>
      <trkpt lat="45.90532" lon="4.62121">
        <ele>317.60000610352</ele>
        <time>2014-04-19T12:27:46.000Z</time>
      </trkpt>
      <trkpt lat="45.90537" lon="4.62105">
        <ele>317.39999389648</ele>
        <time>2014-04-19T12:27:53.000Z</time>
      </trkpt>
      <trkpt lat="45.90543" lon="4.62093">
        <ele>317</ele>
        <time>2014-04-19T12:28:00.000Z</time>
      </trkpt>
      <trkpt lat="45.90548" lon="4.62081">
        <ele>316.60000610352</ele>
        <time>2014-04-19T12:28:09.000Z</time>
      </trkpt>
      <trkpt lat="45.90553" lon="4.62068">
        <ele>316.20001220703</ele>
        <time>2014-04-19T12:28:17.000Z</time>
      </trkpt>
      <trkpt lat="45.90558" lon="4.62053">
        <ele>315.79998779297</ele>
        <time>2014-04-19T12:28:26.000Z</time>
      </trkpt>
      <trkpt lat="45.90564" lon="4.62035">
        <ele>315.20001220703</ele>
        <time>2014-04-19T12:28:36.000Z</time>
      </trkpt>
      <trkpt lat="45.90568" lon="4.62022">
        <ele>314.79998779297</ele>
        <time>2014-04-19T12:28:42.000Z</time>
      </trkpt>
      <trkpt lat="45.90571" lon="4.62006">
        <ele>314.20001220703</ele>
        <time>2014-04-19T12:28:52.000Z</time>
      </trkpt>
      <trkpt lat="45.90574" lon="4.61994">
        <ele>313.79998779297</ele>
        <time>2014-04-19T12:29:00.000Z</time>
      </trkpt>
      <trkpt lat="45.90576" lon="4.61986">
        <ele>313.60000610352</ele>
        <time>2014-04-19T12:29:05.000Z</time>
      </trkpt>
      <trkpt lat="45.90577" lon="4.6198">
        <ele>313.39999389648</ele>
        <time>2014-04-19T12:29:09.000Z</time>
      </trkpt>
      <trkpt lat="45.90578" lon="4.61976">
        <ele>313.39999389648</ele>
        <time>2014-04-19T12:29:12.000Z</time>
      </trkpt>
      <trkpt lat="45.9058" lon="4.61971">
        <ele>313.39999389648</ele>
        <time>2014-04-19T12:29:15.000Z</time>
      </trkpt>
      <trkpt lat="45.90585" lon="4.61959">
        <ele>313.20001220703</ele>
        <time>2014-04-19T12:29:23.000Z</time>
      </trkpt>
      <trkpt lat="45.90587" lon="4.61954">
        <ele>313.20001220703</ele>
        <time>2014-04-19T12:29:26.000Z</time>
      </trkpt>
      <trkpt lat="45.9059" lon="4.61949">
        <ele>313.20001220703</ele>
        <time>2014-04-19T12:29:29.000Z</time>
      </trkpt>
      <trkpt lat="45.90597" lon="4.61938">
        <ele>313</ele>
        <time>2014-04-19T12:29:36.000Z</time>
      </trkpt>
      <trkpt lat="45.90602" lon="4.61927">
        <ele>312.79998779297</ele>
        <time>2014-04-19T12:29:43.000Z</time>
      </trkpt>
      <trkpt lat="45.90609" lon="4.61918">
        <ele>312.39999389648</ele>
        <time>2014-04-19T12:29:50.000Z</time>
      </trkpt>
      <trkpt lat="45.90618" lon="4.61903">
        <ele>312.39999389648</ele>
        <time>2014-04-19T12:29:59.000Z</time>
      </trkpt>
      <trkpt lat="45.90626" lon="4.61892">
        <ele>312.20001220703</ele>
        <time>2014-04-19T12:30:07.000Z</time>
      </trkpt>
      <trkpt lat="45.90633" lon="4.61882">
        <ele>312.20001220703</ele>
        <time>2014-04-19T12:30:15.000Z</time>
      </trkpt>
      <trkpt lat="45.90641" lon="4.61871">
        <ele>312</ele>
        <time>2014-04-19T12:30:23.000Z</time>
      </trkpt>
      <trkpt lat="45.90649" lon="4.6186">
        <ele>311.79998779297</ele>
        <time>2014-04-19T12:30:32.000Z</time>
      </trkpt>
      <trkpt lat="45.90656" lon="4.6185">
        <ele>311.79998779297</ele>
        <time>2014-04-19T12:30:41.000Z</time>
      </trkpt>
      <trkpt lat="45.90664" lon="4.61838">
        <ele>311.60000610352</ele>
        <time>2014-04-19T12:30:51.000Z</time>
      </trkpt>
      <trkpt lat="45.90674" lon="4.61827">
        <ele>311.60000610352</ele>
        <time>2014-04-19T12:31:01.000Z</time>
      </trkpt>
      <trkpt lat="45.9068" lon="4.6182">
        <ele>311.60000610352</ele>
        <time>2014-04-19T12:31:09.000Z</time>
      </trkpt>
      <trkpt lat="45.90687" lon="4.6181">
        <ele>311.60000610352</ele>
        <time>2014-04-19T12:31:17.000Z</time>
      </trkpt>
      <trkpt lat="45.90695" lon="4.61802">
        <ele>311.39999389648</ele>
        <time>2014-04-19T12:31:26.000Z</time>
      </trkpt>
      <trkpt lat="45.90701" lon="4.61793">
        <ele>311.20001220703</ele>
        <time>2014-04-19T12:31:34.000Z</time>
      </trkpt>
      <trkpt lat="45.90708" lon="4.61781">
        <ele>311</ele>
        <time>2014-04-19T12:31:43.000Z</time>
      </trkpt>
      <trkpt lat="45.9071" lon="4.61776">
        <ele>311</ele>
        <time>2014-04-19T12:31:46.000Z</time>
      </trkpt>
      <trkpt lat="45.90712" lon="4.61773">
        <ele>311</ele>
        <time>2014-04-19T12:31:49.000Z</time>
      </trkpt>
      <trkpt lat="45.90718" lon="4.6176">
        <ele>310.79998779297</ele>
        <time>2014-04-19T12:31:59.000Z</time>
      </trkpt>
      <trkpt lat="45.90721" lon="4.61751">
        <ele>310.79998779297</ele>
        <time>2014-04-19T12:32:06.000Z</time>
      </trkpt>
      <trkpt lat="45.90752" lon="4.61685">
        <ele>313</ele>
        <time>2014-04-19T12:32:58.000Z</time>
      </trkpt>
      <trkpt lat="45.9076" lon="4.61678">
        <ele>313.79998779297</ele>
        <time>2014-04-19T12:33:06.000Z</time>
      </trkpt>
      <trkpt lat="45.9077" lon="4.61675">
        <ele>314.60000610352</ele>
        <time>2014-04-19T12:33:15.000Z</time>
      </trkpt>
      <trkpt lat="45.90779" lon="4.61667">
        <ele>315</ele>
        <time>2014-04-19T12:33:24.000Z</time>
      </trkpt>
      <trkpt lat="45.90784" lon="4.61659">
        <ele>315</ele>
        <time>2014-04-19T12:33:32.000Z</time>
      </trkpt>
      <trkpt lat="45.90787" lon="4.61658">
        <ele>315</ele>
        <time>2014-04-19T12:33:35.000Z</time>
      </trkpt>
      <trkpt lat="45.90794" lon="4.61658">
        <ele>315.20001220703</ele>
        <time>2014-04-19T12:33:38.000Z</time>
      </trkpt>
      <trkpt lat="45.90802" lon="4.61654">
        <ele>315.39999389648</ele>
        <time>2014-04-19T12:33:43.000Z</time>
      </trkpt>
      <trkpt lat="45.90803" lon="4.61653">
        <ele>315.39999389648</ele>
        <time>2014-04-19T12:33:44.000Z</time>
      </trkpt>
      <trkpt lat="45.90815" lon="4.61646">
        <ele>316.20001220703</ele>
        <time>2014-04-19T12:33:55.000Z</time>
      </trkpt>
      <trkpt lat="45.90816" lon="4.61646">
        <ele>316.20001220703</ele>
        <time>2014-04-19T12:33:56.000Z</time>
      </trkpt>
      <trkpt lat="45.90823" lon="4.61643">
        <ele>316.60000610352</ele>
        <time>2014-04-19T12:34:02.000Z</time>
      </trkpt>
      <trkpt lat="45.90835" lon="4.61637">
        <ele>317.60000610352</ele>
        <time>2014-04-19T12:34:14.000Z</time>
      </trkpt>
      <trkpt lat="45.9085" lon="4.61635">
        <ele>318.39999389648</ele>
        <time>2014-04-19T12:34:27.000Z</time>
      </trkpt>
      <trkpt lat="45.90863" lon="4.61633">
        <ele>318.79998779297</ele>
        <time>2014-04-19T12:34:39.000Z</time>
      </trkpt>
      <trkpt lat="45.90872" lon="4.61633">
        <ele>318.60000610352</ele>
        <time>2014-04-19T12:34:47.000Z</time>
      </trkpt>
      <trkpt lat="45.90882" lon="4.61634">
        <ele>318.60000610352</ele>
        <time>2014-04-19T12:34:55.000Z</time>
      </trkpt>
      <trkpt lat="45.90893" lon="4.61633">
        <ele>318.60000610352</ele>
        <time>2014-04-19T12:35:03.000Z</time>
      </trkpt>
      <trkpt lat="45.90905" lon="4.61628">
        <ele>318.39999389648</ele>
        <time>2014-04-19T12:35:12.000Z</time>
      </trkpt>
      <trkpt lat="45.90907" lon="4.61613">
        <ele>318.20001220703</ele>
        <time>2014-04-19T12:35:18.000Z</time>
      </trkpt>
      <trkpt lat="45.90909" lon="4.61602">
        <ele>318</ele>
        <time>2014-04-19T12:35:24.000Z</time>
      </trkpt>
      <trkpt lat="45.90909" lon="4.61598">
        <ele>318</ele>
        <time>2014-04-19T12:35:26.000Z</time>
      </trkpt>
      <trkpt lat="45.90912" lon="4.61587">
        <ele>317.60000610352</ele>
        <time>2014-04-19T12:35:33.000Z</time>
      </trkpt>
      <trkpt lat="45.90915" lon="4.61573">
        <ele>317.20001220703</ele>
        <time>2014-04-19T12:35:42.000Z</time>
      </trkpt>
      <trkpt lat="45.90916" lon="4.61553">
        <ele>316.60000610352</ele>
        <time>2014-04-19T12:35:52.000Z</time>
      </trkpt>
      <trkpt lat="45.90917" lon="4.61548">
        <ele>316.39999389648</ele>
        <time>2014-04-19T12:35:57.000Z</time>
      </trkpt>
      <trkpt lat="45.90917" lon="4.61548">
        <ele>316.20001220703</ele>
        <time>2014-04-19T12:35:58.000Z</time>
      </trkpt>
      <trkpt lat="45.90921" lon="4.61529">
        <ele>315.60000610352</ele>
        <time>2014-04-19T12:36:16.000Z</time>
      </trkpt>
      <trkpt lat="45.90926" lon="4.61515">
        <ele>315.39999389648</ele>
        <time>2014-04-19T12:36:26.000Z</time>
      </trkpt>
      <trkpt lat="45.90926" lon="4.61515">
        <ele>315.39999389648</ele>
        <time>2014-04-19T12:36:28.000Z</time>
      </trkpt>
      <trkpt lat="45.90936" lon="4.61451">
        <ele>313.39999389648</ele>
        <time>2014-04-19T12:39:07.000Z</time>
      </trkpt>
      <trkpt lat="45.90937" lon="4.61449">
        <ele>313.39999389648</ele>
        <time>2014-04-19T12:39:08.000Z</time>
      </trkpt>
      <trkpt lat="45.90942" lon="4.61441">
        <ele>313.60000610352</ele>
        <time>2014-04-19T12:39:15.000Z</time>
      </trkpt>
      <trkpt lat="45.90942" lon="4.61439">
        <ele>313.79998779297</ele>
        <time>2014-04-19T12:39:17.000Z</time>
      </trkpt>
      <trkpt lat="45.90943" lon="4.61435">
        <ele>314</ele>
        <time>2014-04-19T12:39:21.000Z</time>
      </trkpt>
      <trkpt lat="45.90945" lon="4.61431">
        <ele>314.39999389648</ele>
        <time>2014-04-19T12:39:24.000Z</time>
      </trkpt>
      <trkpt lat="45.90947" lon="4.61427">
        <ele>314.60000610352</ele>
        <time>2014-04-19T12:39:27.000Z</time>
      </trkpt>
      <trkpt lat="45.90955" lon="4.61414">
        <ele>315.20001220703</ele>
        <time>2014-04-19T12:39:38.000Z</time>
      </trkpt>
      <trkpt lat="45.90955" lon="4.61413">
        <ele>315.39999389648</ele>
        <time>2014-04-19T12:39:42.000Z</time>
      </trkpt>
      <trkpt lat="45.90961" lon="4.6139">
        <ele>318.60000610352</ele>
        <time>2014-04-19T12:40:36.000Z</time>
      </trkpt>
      <trkpt lat="45.90961" lon="4.61392">
        <ele>318.60000610352</ele>
        <time>2014-04-19T12:40:37.000Z</time>
      </trkpt>
      <trkpt lat="45.90966" lon="4.61395">
        <ele>319</ele>
        <time>2014-04-19T12:40:42.000Z</time>
      </trkpt>
      <trkpt lat="45.90968" lon="4.61395">
        <ele>319</ele>
        <time>2014-04-19T12:40:43.000Z</time>
      </trkpt>
      <trkpt lat="45.90969" lon="4.61393">
        <ele>319.20001220703</ele>
        <time>2014-04-19T12:40:44.000Z</time>
      </trkpt>
      <trkpt lat="45.90976" lon="4.61385">
        <ele>319.60000610352</ele>
        <time>2014-04-19T12:40:48.000Z</time>
      </trkpt>
      <trkpt lat="45.90986" lon="4.61375">
        <ele>320.39999389648</ele>
        <time>2014-04-19T12:40:54.000Z</time>
      </trkpt>
      <trkpt lat="45.90994" lon="4.6137">
        <ele>321.39999389648</ele>
        <time>2014-04-19T12:41:01.000Z</time>
      </trkpt>
      <trkpt lat="45.91006" lon="4.61362">
        <ele>323.39999389648</ele>
        <time>2014-04-19T12:41:12.000Z</time>
      </trkpt>
      <trkpt lat="45.91015" lon="4.61358">
        <ele>324.20001220703</ele>
        <time>2014-04-19T12:41:17.000Z</time>
      </trkpt>
      <trkpt lat="45.91022" lon="4.61354">
        <ele>325.20001220703</ele>
        <time>2014-04-19T12:41:22.000Z</time>
      </trkpt>
      <trkpt lat="45.91032" lon="4.61351">
        <ele>326.79998779297</ele>
        <time>2014-04-19T12:41:31.000Z</time>
      </trkpt>
      <trkpt lat="45.91035" lon="4.61349">
        <ele>327.20001220703</ele>
        <time>2014-04-19T12:41:33.000Z</time>
      </trkpt>
      <trkpt lat="45.91038" lon="4.61347">
        <ele>327.79998779297</ele>
        <time>2014-04-19T12:41:37.000Z</time>
      </trkpt>
      <trkpt lat="45.9105" lon="4.61342">
        <ele>329.39999389648</ele>
        <time>2014-04-19T12:41:48.000Z</time>
      </trkpt>
      <trkpt lat="45.91059" lon="4.61335">
        <ele>330.60000610352</ele>
        <time>2014-04-19T12:41:57.000Z</time>
      </trkpt>
      <trkpt lat="45.9107" lon="4.61328">
        <ele>331.39999389648</ele>
        <time>2014-04-19T12:42:04.000Z</time>
      </trkpt>
      <trkpt lat="45.91078" lon="4.6132">
        <ele>332.20001220703</ele>
        <time>2014-04-19T12:42:10.000Z</time>
      </trkpt>
      <trkpt lat="45.91089" lon="4.61308">
        <ele>333.39999389648</ele>
        <time>2014-04-19T12:42:21.000Z</time>
      </trkpt>
      <trkpt lat="45.91098" lon="4.61298">
        <ele>334.39999389648</ele>
        <time>2014-04-19T12:42:32.000Z</time>
      </trkpt>
      <trkpt lat="45.91106" lon="4.61291">
        <ele>335.39999389648</ele>
        <time>2014-04-19T12:42:41.000Z</time>
      </trkpt>
      <trkpt lat="45.91111" lon="4.61288">
        <ele>335.79998779297</ele>
        <time>2014-04-19T12:42:45.000Z</time>
      </trkpt>
      <trkpt lat="45.91118" lon="4.61286">
        <ele>336.60000610352</ele>
        <time>2014-04-19T12:42:51.000Z</time>
      </trkpt>
      <trkpt lat="45.91125" lon="4.61286">
        <ele>337.60000610352</ele>
        <time>2014-04-19T12:42:59.000Z</time>
      </trkpt>
      <trkpt lat="45.9113" lon="4.61283">
        <ele>338.60000610352</ele>
        <time>2014-04-19T12:43:05.000Z</time>
      </trkpt>
      <trkpt lat="45.91142" lon="4.61276">
        <ele>339.39999389648</ele>
        <time>2014-04-19T12:43:11.000Z</time>
      </trkpt>
      <trkpt lat="45.91161" lon="4.61267">
        <ele>340.60000610352</ele>
        <time>2014-04-19T12:43:17.000Z</time>
      </trkpt>
      <trkpt lat="45.91176" lon="4.61261">
        <ele>341.60000610352</ele>
        <time>2014-04-19T12:43:23.000Z</time>
      </trkpt>
      <trkpt lat="45.91195" lon="4.61251">
        <ele>343.20001220703</ele>
        <time>2014-04-19T12:43:31.000Z</time>
      </trkpt>
      <trkpt lat="45.91201" lon="4.61246">
        <ele>344.39999389648</ele>
        <time>2014-04-19T12:43:38.000Z</time>
      </trkpt>
      <trkpt lat="45.91207" lon="4.61246">
        <ele>345.39999389648</ele>
        <time>2014-04-19T12:43:45.000Z</time>
      </trkpt>
      <trkpt lat="45.91249" lon="4.61212">
        <ele>351</ele>
        <time>2014-04-19T12:44:39.000Z</time>
      </trkpt>
      <trkpt lat="45.91258" lon="4.61207">
        <ele>351.60000610352</ele>
        <time>2014-04-19T12:44:47.000Z</time>
      </trkpt>
      <trkpt lat="45.9127" lon="4.61201">
        <ele>352.60000610352</ele>
        <time>2014-04-19T12:44:56.000Z</time>
      </trkpt>
      <trkpt lat="45.91278" lon="4.61195">
        <ele>353.39999389648</ele>
        <time>2014-04-19T12:45:04.000Z</time>
      </trkpt>
      <trkpt lat="45.91288" lon="4.6119">
        <ele>354.20001220703</ele>
        <time>2014-04-19T12:45:13.000Z</time>
      </trkpt>
      <trkpt lat="45.91305" lon="4.61182">
        <ele>355.79998779297</ele>
        <time>2014-04-19T12:45:27.000Z</time>
      </trkpt>
      <trkpt lat="45.9132" lon="4.61176">
        <ele>356.79998779297</ele>
        <time>2014-04-19T12:45:38.000Z</time>
      </trkpt>
      <trkpt lat="45.91335" lon="4.61171">
        <ele>358</ele>
        <time>2014-04-19T12:45:50.000Z</time>
      </trkpt>
      <trkpt lat="45.91343" lon="4.61167">
        <ele>358.79998779297</ele>
        <time>2014-04-19T12:45:57.000Z</time>
      </trkpt>
      <trkpt lat="45.91353" lon="4.61163">
        <ele>359.79998779297</ele>
        <time>2014-04-19T12:46:06.000Z</time>
      </trkpt>
      <trkpt lat="45.91364" lon="4.6116">
        <ele>360.39999389648</ele>
        <time>2014-04-19T12:46:11.000Z</time>
      </trkpt>
      <trkpt lat="45.91382" lon="4.61156">
        <ele>361.20001220703</ele>
        <time>2014-04-19T12:46:18.000Z</time>
      </trkpt>
      <trkpt lat="45.91393" lon="4.61147">
        <ele>362</ele>
        <time>2014-04-19T12:46:24.000Z</time>
      </trkpt>
      <trkpt lat="45.91398" lon="4.61143">
        <ele>362.60000610352</ele>
        <time>2014-04-19T12:46:28.000Z</time>
      </trkpt>
      <trkpt lat="45.91399" lon="4.61135">
        <ele>362.79998779297</ele>
        <time>2014-04-19T12:46:30.000Z</time>
      </trkpt>
      <trkpt lat="45.91393" lon="4.61122">
        <ele>363</ele>
        <time>2014-04-19T12:46:34.000Z</time>
      </trkpt>
      <trkpt lat="45.91392" lon="4.6112">
        <ele>363.20001220703</ele>
        <time>2014-04-19T12:46:35.000Z</time>
      </trkpt>
      <trkpt lat="45.9139" lon="4.61113">
        <ele>363.39999389648</ele>
        <time>2014-04-19T12:46:39.000Z</time>
      </trkpt>
      <trkpt lat="45.91385" lon="4.611">
        <ele>363.79998779297</ele>
        <time>2014-04-19T12:46:48.000Z</time>
      </trkpt>
      <trkpt lat="45.91379" lon="4.61086">
        <ele>363.79998779297</ele>
        <time>2014-04-19T12:46:57.000Z</time>
      </trkpt>
      <trkpt lat="45.91374" lon="4.61074">
        <ele>363.79998779297</ele>
        <time>2014-04-19T12:47:03.000Z</time>
      </trkpt>
      <trkpt lat="45.91369" lon="4.61062">
        <ele>363.79998779297</ele>
        <time>2014-04-19T12:47:07.000Z</time>
      </trkpt>
      <trkpt lat="45.91363" lon="4.61046">
        <ele>363.79998779297</ele>
        <time>2014-04-19T12:47:13.000Z</time>
      </trkpt>
      <trkpt lat="45.91357" lon="4.61034">
        <ele>363.79998779297</ele>
        <time>2014-04-19T12:47:20.000Z</time>
      </trkpt>
      <trkpt lat="45.91351" lon="4.61018">
        <ele>364</ele>
        <time>2014-04-19T12:47:28.000Z</time>
      </trkpt>
      <trkpt lat="45.91344" lon="4.61003">
        <ele>364.60000610352</ele>
        <time>2014-04-19T12:47:37.000Z</time>
      </trkpt>
      <trkpt lat="45.91338" lon="4.60986">
        <ele>365</ele>
        <time>2014-04-19T12:47:47.000Z</time>
      </trkpt>
      <trkpt lat="45.91333" lon="4.60972">
        <ele>365.20001220703</ele>
        <time>2014-04-19T12:47:56.000Z</time>
      </trkpt>
      <trkpt lat="45.91327" lon="4.60957">
        <ele>365.20001220703</ele>
        <time>2014-04-19T12:48:06.000Z</time>
      </trkpt>
      <trkpt lat="45.91322" lon="4.60946">
        <ele>365</ele>
        <time>2014-04-19T12:48:13.000Z</time>
      </trkpt>
      <trkpt lat="45.91318" lon="4.60934">
        <ele>364.79998779297</ele>
        <time>2014-04-19T12:48:21.000Z</time>
      </trkpt>
      <trkpt lat="45.91312" lon="4.60922">
        <ele>364.60000610352</ele>
        <time>2014-04-19T12:48:29.000Z</time>
      </trkpt>
      <trkpt lat="45.91307" lon="4.60908">
        <ele>364.60000610352</ele>
        <time>2014-04-19T12:48:35.000Z</time>
      </trkpt>
      <trkpt lat="45.91303" lon="4.60888">
        <ele>364.60000610352</ele>
        <time>2014-04-19T12:48:43.000Z</time>
      </trkpt>
      <trkpt lat="45.913" lon="4.60869">
        <ele>364.60000610352</ele>
        <time>2014-04-19T12:48:53.000Z</time>
      </trkpt>
      <trkpt lat="45.91299" lon="4.60853">
        <ele>364.79998779297</ele>
        <time>2014-04-19T12:49:01.000Z</time>
      </trkpt>
      <trkpt lat="45.91297" lon="4.60839">
        <ele>365</ele>
        <time>2014-04-19T12:49:08.000Z</time>
      </trkpt>
      <trkpt lat="45.91301" lon="4.6082">
        <ele>365.39999389648</ele>
        <time>2014-04-19T12:49:18.000Z</time>
      </trkpt>
      <trkpt lat="45.91302" lon="4.60801">
        <ele>365.60000610352</ele>
        <time>2014-04-19T12:49:30.000Z</time>
      </trkpt>
      <trkpt lat="45.91302" lon="4.60792">
        <ele>365.79998779297</ele>
        <time>2014-04-19T12:49:38.000Z</time>
      </trkpt>
      <trkpt lat="45.91302" lon="4.60792">
        <ele>365.79998779297</ele>
        <time>2014-04-19T12:49:39.000Z</time>
      </trkpt>
      <trkpt lat="45.91306" lon="4.6073">
        <ele>370.20001220703</ele>
        <time>2014-04-19T12:50:40.000Z</time>
      </trkpt>
      <trkpt lat="45.91306" lon="4.60725">
        <ele>370.39999389648</ele>
        <time>2014-04-19T12:50:43.000Z</time>
      </trkpt>
      <trkpt lat="45.91308" lon="4.6071">
        <ele>371</ele>
        <time>2014-04-19T12:50:52.000Z</time>
      </trkpt>
      <trkpt lat="45.91309" lon="4.60697">
        <ele>371.20001220703</ele>
        <time>2014-04-19T12:51:00.000Z</time>
      </trkpt>
      <trkpt lat="45.91311" lon="4.6068">
        <ele>371.20001220703</ele>
        <time>2014-04-19T12:51:11.000Z</time>
      </trkpt>
      <trkpt lat="45.91315" lon="4.60659">
        <ele>371.20001220703</ele>
        <time>2014-04-19T12:51:23.000Z</time>
      </trkpt>
      <trkpt lat="45.91318" lon="4.60643">
        <ele>371.20001220703</ele>
        <time>2014-04-19T12:51:33.000Z</time>
      </trkpt>
      <trkpt lat="45.91323" lon="4.60621">
        <ele>371</ele>
        <time>2014-04-19T12:51:44.000Z</time>
      </trkpt>
      <trkpt lat="45.91327" lon="4.60606">
        <ele>370.79998779297</ele>
        <time>2014-04-19T12:51:53.000Z</time>
      </trkpt>
      <trkpt lat="45.91331" lon="4.60584">
        <ele>370.39999389648</ele>
        <time>2014-04-19T12:52:06.000Z</time>
      </trkpt>
      <trkpt lat="45.91332" lon="4.60567">
        <ele>370.20001220703</ele>
        <time>2014-04-19T12:52:16.000Z</time>
      </trkpt>
      <trkpt lat="45.91332" lon="4.60545">
        <ele>370.20001220703</ele>
        <time>2014-04-19T12:52:26.000Z</time>
      </trkpt>
      <trkpt lat="45.91331" lon="4.60524">
        <ele>370</ele>
        <time>2014-04-19T12:52:34.000Z</time>
      </trkpt>
      <trkpt lat="45.91331" lon="4.60508">
        <ele>369.60000610352</ele>
        <time>2014-04-19T12:52:43.000Z</time>
      </trkpt>
      <trkpt lat="45.91331" lon="4.60487">
        <ele>369.39999389648</ele>
        <time>2014-04-19T12:52:54.000Z</time>
      </trkpt>
      <trkpt lat="45.91332" lon="4.60469">
        <ele>369</ele>
        <time>2014-04-19T12:53:04.000Z</time>
      </trkpt>
      <trkpt lat="45.91332" lon="4.6045">
        <ele>368.60000610352</ele>
        <time>2014-04-19T12:53:15.000Z</time>
      </trkpt>
      <trkpt lat="45.91331" lon="4.60434">
        <ele>368.39999389648</ele>
        <time>2014-04-19T12:53:24.000Z</time>
      </trkpt>
      <trkpt lat="45.91329" lon="4.60414">
        <ele>367.79998779297</ele>
        <time>2014-04-19T12:53:35.000Z</time>
      </trkpt>
      <trkpt lat="45.91328" lon="4.60408">
        <ele>367.60000610352</ele>
        <time>2014-04-19T12:53:41.000Z</time>
      </trkpt>
      <trkpt lat="45.91329" lon="4.60391">
        <ele>367.39999389648</ele>
        <time>2014-04-19T12:54:07.000Z</time>
      </trkpt>
      <trkpt lat="45.91329" lon="4.60372">
        <ele>367</ele>
        <time>2014-04-19T12:54:17.000Z</time>
      </trkpt>
      <trkpt lat="45.91329" lon="4.60356">
        <ele>366.79998779297</ele>
        <time>2014-04-19T12:54:27.000Z</time>
      </trkpt>
      <trkpt lat="45.9133" lon="4.60343">
        <ele>366.39999389648</ele>
        <time>2014-04-19T12:54:34.000Z</time>
      </trkpt>
      <trkpt lat="45.9133" lon="4.60322">
        <ele>366</ele>
        <time>2014-04-19T12:54:44.000Z</time>
      </trkpt>
      <trkpt lat="45.91332" lon="4.60299">
        <ele>365.39999389648</ele>
        <time>2014-04-19T12:54:56.000Z</time>
      </trkpt>
      <trkpt lat="45.91333" lon="4.60277">
        <ele>364.79998779297</ele>
        <time>2014-04-19T12:55:06.000Z</time>
      </trkpt>
      <trkpt lat="45.91335" lon="4.60262">
        <ele>364.39999389648</ele>
        <time>2014-04-19T12:55:14.000Z</time>
      </trkpt>
      <trkpt lat="45.91338" lon="4.60242">
        <ele>364</ele>
        <time>2014-04-19T12:55:24.000Z</time>
      </trkpt>
      <trkpt lat="45.91343" lon="4.60221">
        <ele>363.79998779297</ele>
        <time>2014-04-19T12:55:30.000Z</time>
      </trkpt>
      <trkpt lat="45.91351" lon="4.6019">
        <ele>363.39999389648</ele>
        <time>2014-04-19T12:55:37.000Z</time>
      </trkpt>
      <trkpt lat="45.91353" lon="4.60182">
        <ele>363.39999389648</ele>
        <time>2014-04-19T12:55:39.000Z</time>
      </trkpt>
      <trkpt lat="45.91358" lon="4.60164">
        <ele>363</ele>
        <time>2014-04-19T12:55:46.000Z</time>
      </trkpt>
      <trkpt lat="45.91364" lon="4.60147">
        <ele>362.60000610352</ele>
        <time>2014-04-19T12:55:56.000Z</time>
      </trkpt>
      <trkpt lat="45.91369" lon="4.60132">
        <ele>362.20001220703</ele>
        <time>2014-04-19T12:56:06.000Z</time>
      </trkpt>
      <trkpt lat="45.9137" lon="4.60124">
        <ele>361.79998779297</ele>
        <time>2014-04-19T12:56:13.000Z</time>
      </trkpt>
      <trkpt lat="45.91399" lon="4.60075">
        <ele>359</ele>
        <time>2014-04-19T12:57:22.000Z</time>
      </trkpt>
      <trkpt lat="45.91409" lon="4.60059">
        <ele>358</ele>
        <time>2014-04-19T12:57:34.000Z</time>
      </trkpt>
      <trkpt lat="45.91422" lon="4.6004">
        <ele>356.79998779297</ele>
        <time>2014-04-19T12:57:48.000Z</time>
      </trkpt>
      <trkpt lat="45.9143" lon="4.60026">
        <ele>356</ele>
        <time>2014-04-19T12:57:58.000Z</time>
      </trkpt>
      <trkpt lat="45.91442" lon="4.60007">
        <ele>354.60000610352</ele>
        <time>2014-04-19T12:58:13.000Z</time>
      </trkpt>
      <trkpt lat="45.91453" lon="4.59992">
        <ele>353.39999389648</ele>
        <time>2014-04-19T12:58:24.000Z</time>
      </trkpt>
      <trkpt lat="45.91461" lon="4.5998">
        <ele>352.39999389648</ele>
        <time>2014-04-19T12:58:33.000Z</time>
      </trkpt>
      <trkpt lat="45.9147" lon="4.59964">
        <ele>351.20001220703</ele>
        <time>2014-04-19T12:58:44.000Z</time>
      </trkpt>
      <trkpt lat="45.91478" lon="4.59944">
        <ele>349.79998779297</ele>
        <time>2014-04-19T12:58:56.000Z</time>
      </trkpt>
      <trkpt lat="45.91484" lon="4.59931">
        <ele>348.60000610352</ele>
        <time>2014-04-19T12:59:05.000Z</time>
      </trkpt>
      <trkpt lat="45.91489" lon="4.59916">
        <ele>347.39999389648</ele>
        <time>2014-04-19T12:59:14.000Z</time>
      </trkpt>
      <trkpt lat="45.91493" lon="4.59902">
        <ele>346.20001220703</ele>
        <time>2014-04-19T12:59:22.000Z</time>
      </trkpt>
      <trkpt lat="45.91495" lon="4.59887">
        <ele>344.79998779297</ele>
        <time>2014-04-19T12:59:30.000Z</time>
      </trkpt>
      <trkpt lat="45.91497" lon="4.5987">
        <ele>343.60000610352</ele>
        <time>2014-04-19T12:59:37.000Z</time>
      </trkpt>
      <trkpt lat="45.91498" lon="4.59854">
        <ele>342.20001220703</ele>
        <time>2014-04-19T12:59:45.000Z</time>
      </trkpt>
      <trkpt lat="45.91498" lon="4.59852">
        <ele>342</ele>
        <time>2014-04-19T12:59:46.000Z</time>
      </trkpt>
      <trkpt lat="45.915" lon="4.59843">
        <ele>341</ele>
        <time>2014-04-19T12:59:51.000Z</time>
      </trkpt>
      <trkpt lat="45.91502" lon="4.59829">
        <ele>339.79998779297</ele>
        <time>2014-04-19T12:59:57.000Z</time>
      </trkpt>
      <trkpt lat="45.91504" lon="4.59822">
        <ele>339.20001220703</ele>
        <time>2014-04-19T13:00:01.000Z</time>
      </trkpt>
      <trkpt lat="45.91505" lon="4.59817">
        <ele>338.60000610352</ele>
        <time>2014-04-19T13:00:04.000Z</time>
      </trkpt>
      <trkpt lat="45.9151" lon="4.59802">
        <ele>336.79998779297</ele>
        <time>2014-04-19T13:00:14.000Z</time>
      </trkpt>
      <trkpt lat="45.91514" lon="4.5979">
        <ele>335.39999389648</ele>
        <time>2014-04-19T13:00:22.000Z</time>
      </trkpt>
      <trkpt lat="45.91516" lon="4.59773">
        <ele>334</ele>
        <time>2014-04-19T13:00:29.000Z</time>
      </trkpt>
      <trkpt lat="45.91516" lon="4.59756">
        <ele>332.39999389648</ele>
        <time>2014-04-19T13:00:38.000Z</time>
      </trkpt>
      <trkpt lat="45.91516" lon="4.59741">
        <ele>331.20001220703</ele>
        <time>2014-04-19T13:00:46.000Z</time>
      </trkpt>
      <trkpt lat="45.91518" lon="4.59728">
        <ele>330.20001220703</ele>
        <time>2014-04-19T13:00:54.000Z</time>
      </trkpt>
      <trkpt lat="45.91521" lon="4.59717">
        <ele>329</ele>
        <time>2014-04-19T13:01:02.000Z</time>
      </trkpt>
      <trkpt lat="45.91523" lon="4.59704">
        <ele>327.79998779297</ele>
        <time>2014-04-19T13:01:09.000Z</time>
      </trkpt>
      <trkpt lat="45.91527" lon="4.5969">
        <ele>326.39999389648</ele>
        <time>2014-04-19T13:01:16.000Z</time>
      </trkpt>
      <trkpt lat="45.91531" lon="4.59674">
        <ele>324.79998779297</ele>
        <time>2014-04-19T13:01:24.000Z</time>
      </trkpt>
      <trkpt lat="45.91531" lon="4.5966">
        <ele>323.39999389648</ele>
        <time>2014-04-19T13:01:32.000Z</time>
      </trkpt>
      <trkpt lat="45.91532" lon="4.59653">
        <ele>322.79998779297</ele>
        <time>2014-04-19T13:01:36.000Z</time>
      </trkpt>
      <trkpt lat="45.91532" lon="4.59646">
        <ele>322.20001220703</ele>
        <time>2014-04-19T13:01:40.000Z</time>
      </trkpt>
      <trkpt lat="45.91534" lon="4.59631">
        <ele>320.79998779297</ele>
        <time>2014-04-19T13:01:50.000Z</time>
      </trkpt>
      <trkpt lat="45.91535" lon="4.59614">
        <ele>319.39999389648</ele>
        <time>2014-04-19T13:01:59.000Z</time>
      </trkpt>
      <trkpt lat="45.91536" lon="4.5961">
        <ele>319.20001220703</ele>
        <time>2014-04-19T13:02:01.000Z</time>
      </trkpt>
      <trkpt lat="45.91537" lon="4.59601">
        <ele>318.39999389648</ele>
        <time>2014-04-19T13:02:06.000Z</time>
      </trkpt>
      <trkpt lat="45.91539" lon="4.59589">
        <ele>317.39999389648</ele>
        <time>2014-04-19T13:02:14.000Z</time>
      </trkpt>
      <trkpt lat="45.91539" lon="4.59586">
        <ele>317.20001220703</ele>
        <time>2014-04-19T13:02:16.000Z</time>
      </trkpt>
      <trkpt lat="45.9154" lon="4.59581">
        <ele>316.60000610352</ele>
        <time>2014-04-19T13:02:20.000Z</time>
      </trkpt>
      <trkpt lat="45.9154" lon="4.59571">
        <ele>315.60000610352</ele>
        <time>2014-04-19T13:02:26.000Z</time>
      </trkpt>
      <trkpt lat="45.91541" lon="4.5957">
        <ele>315.39999389648</ele>
        <time>2014-04-19T13:02:27.000Z</time>
      </trkpt>
      <trkpt lat="45.91542" lon="4.59556">
        <ele>314.39999389648</ele>
        <time>2014-04-19T13:02:34.000Z</time>
      </trkpt>
      <trkpt lat="45.91543" lon="4.59544">
        <ele>313.39999389648</ele>
        <time>2014-04-19T13:02:42.000Z</time>
      </trkpt>
      <trkpt lat="45.91546" lon="4.59537">
        <ele>312.39999389648</ele>
        <time>2014-04-19T13:02:50.000Z</time>
      </trkpt>
      <trkpt lat="45.91555" lon="4.59504">
        <ele>309.39999389648</ele>
        <time>2014-04-19T13:03:33.000Z</time>
      </trkpt>
      <trkpt lat="45.91557" lon="4.59497">
        <ele>309.20001220703</ele>
        <time>2014-04-19T13:03:37.000Z</time>
      </trkpt>
      <trkpt lat="45.9156" lon="4.59482">
        <ele>308.20001220703</ele>
        <time>2014-04-19T13:03:47.000Z</time>
      </trkpt>
      <trkpt lat="45.91562" lon="4.59466">
        <ele>307.39999389648</ele>
        <time>2014-04-19T13:03:56.000Z</time>
      </trkpt>
      <trkpt lat="45.91562" lon="4.59448">
        <ele>306.79998779297</ele>
        <time>2014-04-19T13:04:06.000Z</time>
      </trkpt>
      <trkpt lat="45.91564" lon="4.59432">
        <ele>305.79998779297</ele>
        <time>2014-04-19T13:04:16.000Z</time>
      </trkpt>
      <trkpt lat="45.91566" lon="4.59415">
        <ele>305.20001220703</ele>
        <time>2014-04-19T13:04:24.000Z</time>
      </trkpt>
      <trkpt lat="45.91565" lon="4.59391">
        <ele>304.39999389648</ele>
        <time>2014-04-19T13:04:34.000Z</time>
      </trkpt>
      <trkpt lat="45.91561" lon="4.59365">
        <ele>304</ele>
        <time>2014-04-19T13:04:43.000Z</time>
      </trkpt>
      <trkpt lat="45.91556" lon="4.59355">
        <ele>303.60000610352</ele>
        <time>2014-04-19T13:04:51.000Z</time>
      </trkpt>
      <trkpt lat="45.91555" lon="4.59355">
        <ele>303.60000610352</ele>
        <time>2014-04-19T13:04:52.000Z</time>
      </trkpt>
      <trkpt lat="45.9155" lon="4.59357">
        <ele>303.39999389648</ele>
        <time>2014-04-19T13:04:57.000Z</time>
      </trkpt>
      <trkpt lat="45.91547" lon="4.59359">
        <ele>303.20001220703</ele>
        <time>2014-04-19T13:04:59.000Z</time>
      </trkpt>
      <trkpt lat="45.91536" lon="4.59371">
        <ele>302.60000610352</ele>
        <time>2014-04-19T13:05:12.000Z</time>
      </trkpt>
      <trkpt lat="45.91526" lon="4.59377">
        <ele>302</ele>
        <time>2014-04-19T13:05:23.000Z</time>
      </trkpt>
      <trkpt lat="45.91516" lon="4.59377">
        <ele>301.39999389648</ele>
        <time>2014-04-19T13:05:33.000Z</time>
      </trkpt>
      <trkpt lat="45.91504" lon="4.59377">
        <ele>301</ele>
        <time>2014-04-19T13:05:42.000Z</time>
      </trkpt>
      <trkpt lat="45.91491" lon="4.59372">
        <ele>300.39999389648</ele>
        <time>2014-04-19T13:05:49.000Z</time>
      </trkpt>
      <trkpt lat="45.91483" lon="4.59373">
        <ele>300</ele>
        <time>2014-04-19T13:05:57.000Z</time>
      </trkpt>
      <trkpt lat="45.91471" lon="4.59369">
        <ele>299.39999389648</ele>
        <time>2014-04-19T13:06:07.000Z</time>
      </trkpt>
      <trkpt lat="45.91463" lon="4.59362">
        <ele>299</ele>
        <time>2014-04-19T13:06:14.000Z</time>
      </trkpt>
      <trkpt lat="45.91459" lon="4.59358">
        <ele>298.60000610352</ele>
        <time>2014-04-19T13:06:20.000Z</time>
      </trkpt>
      <trkpt lat="45.91458" lon="4.59357">
        <ele>298.60000610352</ele>
        <time>2014-04-19T13:06:21.000Z</time>
      </trkpt>
      <trkpt lat="45.9145" lon="4.59354">
        <ele>298</ele>
        <time>2014-04-19T13:06:29.000Z</time>
      </trkpt>
      <trkpt lat="45.9144" lon="4.59347">
        <ele>297.60000610352</ele>
        <time>2014-04-19T13:06:36.000Z</time>
      </trkpt>
      <trkpt lat="45.91429" lon="4.59337">
        <ele>297.20001220703</ele>
        <time>2014-04-19T13:06:43.000Z</time>
      </trkpt>
      <trkpt lat="45.91426" lon="4.59331">
        <ele>296.60000610352</ele>
        <time>2014-04-19T13:06:49.000Z</time>
      </trkpt>
      <trkpt lat="45.91418" lon="4.59325">
        <ele>296</ele>
        <time>2014-04-19T13:06:56.000Z</time>
      </trkpt>
      <trkpt lat="45.91411" lon="4.59317">
        <ele>295.39999389648</ele>
        <time>2014-04-19T13:07:02.000Z</time>
      </trkpt>
      <trkpt lat="45.91401" lon="4.59306">
        <ele>294.79998779297</ele>
        <time>2014-04-19T13:07:10.000Z</time>
      </trkpt>
      <trkpt lat="45.91387" lon="4.59297">
        <ele>294.39999389648</ele>
        <time>2014-04-19T13:07:17.000Z</time>
      </trkpt>
      <trkpt lat="45.91377" lon="4.5929">
        <ele>294.20001220703</ele>
        <time>2014-04-19T13:07:22.000Z</time>
      </trkpt>
      <trkpt lat="45.91351" lon="4.59276">
        <ele>293.79998779297</ele>
        <time>2014-04-19T13:07:31.000Z</time>
      </trkpt>
      <trkpt lat="45.91347" lon="4.59271">
        <ele>293.60000610352</ele>
        <time>2014-04-19T13:07:36.000Z</time>
      </trkpt>
      <trkpt lat="45.91346" lon="4.5927">
        <ele>293.60000610352</ele>
        <time>2014-04-19T13:07:37.000Z</time>
      </trkpt>
      <trkpt lat="45.91343" lon="4.59266">
        <ele>293.39999389648</ele>
        <time>2014-04-19T13:07:40.000Z</time>
      </trkpt>
      <trkpt lat="45.91336" lon="4.5926">
        <ele>293.20001220703</ele>
        <time>2014-04-19T13:07:45.000Z</time>
      </trkpt>
      <trkpt lat="45.9133" lon="4.59256">
        <ele>293</ele>
        <time>2014-04-19T13:07:50.000Z</time>
      </trkpt>
      <trkpt lat="45.91329" lon="4.59255">
        <ele>292.79998779297</ele>
        <time>2014-04-19T13:07:52.000Z</time>
      </trkpt>
      <trkpt lat="45.91324" lon="4.5925">
        <ele>292.60000610352</ele>
        <time>2014-04-19T13:08:01.000Z</time>
      </trkpt>
      <trkpt lat="45.91321" lon="4.59248">
        <ele>292.60000610352</ele>
        <time>2014-04-19T13:08:04.000Z</time>
      </trkpt>
      <trkpt lat="45.91321" lon="4.59247">
        <ele>292.60000610352</ele>
        <time>2014-04-19T13:08:05.000Z</time>
      </trkpt>
      <trkpt lat="45.91317" lon="4.59243">
        <ele>292.39999389648</ele>
        <time>2014-04-19T13:08:10.000Z</time>
      </trkpt>
      <trkpt lat="45.91315" lon="4.59243">
        <ele>292.39999389648</ele>
        <time>2014-04-19T13:08:13.000Z</time>
      </trkpt>
      <trkpt lat="45.91308" lon="4.59235">
        <ele>292</ele>
        <time>2014-04-19T13:08:24.000Z</time>
      </trkpt>
      <trkpt lat="45.91307" lon="4.59233">
        <ele>292</ele>
        <time>2014-04-19T13:08:25.000Z</time>
      </trkpt>
      <trkpt lat="45.91305" lon="4.59231">
        <ele>292</ele>
        <time>2014-04-19T13:08:27.000Z</time>
      </trkpt>
      <trkpt lat="45.91305" lon="4.59229">
        <ele>292</ele>
        <time>2014-04-19T13:08:28.000Z</time>
      </trkpt>
      <trkpt lat="45.91302" lon="4.59224">
        <ele>292</ele>
        <time>2014-04-19T13:08:32.000Z</time>
      </trkpt>
      <trkpt lat="45.91302" lon="4.59213">
        <ele>291.79998779297</ele>
        <time>2014-04-19T13:08:39.000Z</time>
      </trkpt>
      <trkpt lat="45.91304" lon="4.59192">
        <ele>291.60000610352</ele>
        <time>2014-04-19T13:08:44.000Z</time>
      </trkpt>
      <trkpt lat="45.9131" lon="4.59161">
        <ele>291.39999389648</ele>
        <time>2014-04-19T13:08:49.000Z</time>
      </trkpt>
      <trkpt lat="45.91312" lon="4.59147">
        <ele>291.39999389648</ele>
        <time>2014-04-19T13:08:51.000Z</time>
      </trkpt>
      <trkpt lat="45.91315" lon="4.59126">
        <ele>291.39999389648</ele>
        <time>2014-04-19T13:08:55.000Z</time>
      </trkpt>
      <trkpt lat="45.91312" lon="4.59118">
        <ele>291.39999389648</ele>
        <time>2014-04-19T13:08:58.000Z</time>
      </trkpt>
      <trkpt lat="45.9131" lon="4.59116">
        <ele>291.39999389648</ele>
        <time>2014-04-19T13:08:59.000Z</time>
      </trkpt>
      <trkpt lat="45.913" lon="4.59105">
        <ele>291.39999389648</ele>
        <time>2014-04-19T13:09:05.000Z</time>
      </trkpt>
      <trkpt lat="45.91295" lon="4.59099">
        <ele>291.39999389648</ele>
        <time>2014-04-19T13:09:10.000Z</time>
      </trkpt>
      <trkpt lat="45.91286" lon="4.59085">
        <ele>291.79998779297</ele>
        <time>2014-04-19T13:09:19.000Z</time>
      </trkpt>
      <trkpt lat="45.9128" lon="4.59077">
        <ele>292</ele>
        <time>2014-04-19T13:09:26.000Z</time>
      </trkpt>
      <trkpt lat="45.9127" lon="4.59065">
        <ele>292.39999389648</ele>
        <time>2014-04-19T13:09:34.000Z</time>
      </trkpt>
      <trkpt lat="45.91263" lon="4.59056">
        <ele>292.79998779297</ele>
        <time>2014-04-19T13:09:41.000Z</time>
      </trkpt>
      <trkpt lat="45.91253" lon="4.59046">
        <ele>293.39999389648</ele>
        <time>2014-04-19T13:09:49.000Z</time>
      </trkpt>
      <trkpt lat="45.91241" lon="4.59036">
        <ele>294.20001220703</ele>
        <time>2014-04-19T13:09:58.000Z</time>
      </trkpt>
      <trkpt lat="45.9123" lon="4.59027">
        <ele>295.20001220703</ele>
        <time>2014-04-19T13:10:08.000Z</time>
      </trkpt>
      <trkpt lat="45.91219" lon="4.59018">
        <ele>295.79998779297</ele>
        <time>2014-04-19T13:10:14.000Z</time>
      </trkpt>
      <trkpt lat="45.91209" lon="4.59011">
        <ele>296.60000610352</ele>
        <time>2014-04-19T13:10:21.000Z</time>
      </trkpt>
      <trkpt lat="45.91199" lon="4.59002">
        <ele>298</ele>
        <time>2014-04-19T13:10:30.000Z</time>
      </trkpt>
      <trkpt lat="45.91189" lon="4.58993">
        <ele>299.39999389648</ele>
        <time>2014-04-19T13:10:40.000Z</time>
      </trkpt>
      <trkpt lat="45.9118" lon="4.58989">
        <ele>300.39999389648</ele>
        <time>2014-04-19T13:10:47.000Z</time>
      </trkpt>
      <trkpt lat="45.91169" lon="4.58985">
        <ele>301</ele>
        <time>2014-04-19T13:10:55.000Z</time>
      </trkpt>
      <trkpt lat="45.91159" lon="4.58982">
        <ele>301.39999389648</ele>
        <time>2014-04-19T13:11:02.000Z</time>
      </trkpt>
      <trkpt lat="45.91145" lon="4.58976">
        <ele>302</ele>
        <time>2014-04-19T13:11:12.000Z</time>
      </trkpt>
      <trkpt lat="45.91135" lon="4.5897">
        <ele>302.39999389648</ele>
        <time>2014-04-19T13:11:18.000Z</time>
      </trkpt>
      <trkpt lat="45.91126" lon="4.58963">
        <ele>302.60000610352</ele>
        <time>2014-04-19T13:11:26.000Z</time>
      </trkpt>
      <trkpt lat="45.91111" lon="4.58955">
        <ele>302.79998779297</ele>
        <time>2014-04-19T13:11:34.000Z</time>
      </trkpt>
      <trkpt lat="45.91102" lon="4.5895">
        <ele>303</ele>
        <time>2014-04-19T13:11:40.000Z</time>
      </trkpt>
      <trkpt lat="45.91085" lon="4.58948">
        <ele>303</ele>
        <time>2014-04-19T13:11:47.000Z</time>
      </trkpt>
      <trkpt lat="45.91065" lon="4.58949">
        <ele>303</ele>
        <time>2014-04-19T13:11:54.000Z</time>
      </trkpt>
      <trkpt lat="45.91034" lon="4.58948">
        <ele>302.79998779297</ele>
        <time>2014-04-19T13:12:03.000Z</time>
      </trkpt>
      <trkpt lat="45.91003" lon="4.58943">
        <ele>302.60000610352</ele>
        <time>2014-04-19T13:12:12.000Z</time>
      </trkpt>
      <trkpt lat="45.90981" lon="4.58926">
        <ele>302.20001220703</ele>
        <time>2014-04-19T13:12:18.000Z</time>
      </trkpt>
      <trkpt lat="45.90962" lon="4.58906">
        <ele>301.79998779297</ele>
        <time>2014-04-19T13:12:24.000Z</time>
      </trkpt>
      <trkpt lat="45.90941" lon="4.58883">
        <ele>301.20001220703</ele>
        <time>2014-04-19T13:12:31.000Z</time>
      </trkpt>
      <trkpt lat="45.90922" lon="4.58861">
        <ele>300.79998779297</ele>
        <time>2014-04-19T13:12:37.000Z</time>
      </trkpt>
      <trkpt lat="45.9091" lon="4.58851">
        <ele>300.39999389648</ele>
        <time>2014-04-19T13:12:40.000Z</time>
      </trkpt>
      <trkpt lat="45.90903" lon="4.58845">
        <ele>300.20001220703</ele>
        <time>2014-04-19T13:12:42.000Z</time>
      </trkpt>
      <trkpt lat="45.909" lon="4.58842">
        <ele>300.20001220703</ele>
        <time>2014-04-19T13:12:43.000Z</time>
      </trkpt>
      <trkpt lat="45.9088" lon="4.58828">
        <ele>299.39999389648</ele>
        <time>2014-04-19T13:12:48.000Z</time>
      </trkpt>
      <trkpt lat="45.90877" lon="4.58825">
        <ele>299.39999389648</ele>
        <time>2014-04-19T13:12:49.000Z</time>
      </trkpt>
      <trkpt lat="45.90859" lon="4.5881">
        <ele>298.60000610352</ele>
        <time>2014-04-19T13:12:54.000Z</time>
      </trkpt>
      <trkpt lat="45.90855" lon="4.58808">
        <ele>298.60000610352</ele>
        <time>2014-04-19T13:12:55.000Z</time>
      </trkpt>
      <trkpt lat="45.90844" lon="4.58797">
        <ele>298</ele>
        <time>2014-04-19T13:12:59.000Z</time>
      </trkpt>
      <trkpt lat="45.90838" lon="4.58791">
        <ele>297.39999389648</ele>
        <time>2014-04-19T13:13:04.000Z</time>
      </trkpt>
      <trkpt lat="45.90829" lon="4.58782">
        <ele>296.39999389648</ele>
        <time>2014-04-19T13:13:12.000Z</time>
      </trkpt>
      <trkpt lat="45.90818" lon="4.5877">
        <ele>295.39999389648</ele>
        <time>2014-04-19T13:13:21.000Z</time>
      </trkpt>
      <trkpt lat="45.90807" lon="4.5876">
        <ele>294.39999389648</ele>
        <time>2014-04-19T13:13:30.000Z</time>
      </trkpt>
      <trkpt lat="45.90797" lon="4.58748">
        <ele>293.39999389648</ele>
        <time>2014-04-19T13:13:41.000Z</time>
      </trkpt>
      <trkpt lat="45.90789" lon="4.58738">
        <ele>292.20001220703</ele>
        <time>2014-04-19T13:13:50.000Z</time>
      </trkpt>
      <trkpt lat="45.90778" lon="4.58728">
        <ele>291.39999389648</ele>
        <time>2014-04-19T13:13:58.000Z</time>
      </trkpt>
      <trkpt lat="45.90766" lon="4.58719">
        <ele>290.79998779297</ele>
        <time>2014-04-19T13:14:06.000Z</time>
      </trkpt>
      <trkpt lat="45.90756" lon="4.58709">
        <ele>290.20001220703</ele>
        <time>2014-04-19T13:14:15.000Z</time>
      </trkpt>
      <trkpt lat="45.90746" lon="4.58701">
        <ele>290</ele>
        <time>2014-04-19T13:14:22.000Z</time>
      </trkpt>
      <trkpt lat="45.90743" lon="4.58699">
        <ele>290</ele>
        <time>2014-04-19T13:14:24.000Z</time>
      </trkpt>
      <trkpt lat="45.90739" lon="4.58695">
        <ele>289.79998779297</ele>
        <time>2014-04-19T13:14:27.000Z</time>
      </trkpt>
      <trkpt lat="45.90733" lon="4.58691">
        <ele>289.60000610352</ele>
        <time>2014-04-19T13:14:32.000Z</time>
      </trkpt>
      <trkpt lat="45.90726" lon="4.58684">
        <ele>289.20001220703</ele>
        <time>2014-04-19T13:14:39.000Z</time>
      </trkpt>
      <trkpt lat="45.90724" lon="4.58683">
        <ele>289.20001220703</ele>
        <time>2014-04-19T13:14:41.000Z</time>
      </trkpt>
      <trkpt lat="45.90723" lon="4.58682">
        <ele>289</ele>
        <time>2014-04-19T13:14:43.000Z</time>
      </trkpt>
      <trkpt lat="45.90719" lon="4.5868">
        <ele>289</ele>
        <time>2014-04-19T13:14:46.000Z</time>
      </trkpt>
      <trkpt lat="45.90712" lon="4.58675">
        <ele>288.79998779297</ele>
        <time>2014-04-19T13:14:51.000Z</time>
      </trkpt>
      <trkpt lat="45.90709" lon="4.58673">
        <ele>288.79998779297</ele>
        <time>2014-04-19T13:14:53.000Z</time>
      </trkpt>
      <trkpt lat="45.90705" lon="4.58669">
        <ele>288.79998779297</ele>
        <time>2014-04-19T13:14:55.000Z</time>
      </trkpt>
      <trkpt lat="45.90699" lon="4.58664">
        <ele>288.79998779297</ele>
        <time>2014-04-19T13:15:00.000Z</time>
      </trkpt>
      <trkpt lat="45.90692" lon="4.5866">
        <ele>288.79998779297</ele>
        <time>2014-04-19T13:15:07.000Z</time>
      </trkpt>
      <trkpt lat="45.90691" lon="4.58659">
        <ele>288.79998779297</ele>
        <time>2014-04-19T13:15:08.000Z</time>
      </trkpt>
      <trkpt lat="45.90682" lon="4.58654">
        <ele>289.20001220703</ele>
        <time>2014-04-19T13:15:14.000Z</time>
      </trkpt>
      <trkpt lat="45.90679" lon="4.58652">
        <ele>289.39999389648</ele>
        <time>2014-04-19T13:15:16.000Z</time>
      </trkpt>
      <trkpt lat="45.90671" lon="4.58644">
        <ele>289.20001220703</ele>
        <time>2014-04-19T13:15:20.000Z</time>
      </trkpt>
      <trkpt lat="45.90661" lon="4.58635">
        <ele>289.39999389648</ele>
        <time>2014-04-19T13:15:26.000Z</time>
      </trkpt>
      <trkpt lat="45.9065" lon="4.58625">
        <ele>289.39999389648</ele>
        <time>2014-04-19T13:15:32.000Z</time>
      </trkpt>
      <trkpt lat="45.90645" lon="4.58615">
        <ele>289.20001220703</ele>
        <time>2014-04-19T13:15:38.000Z</time>
      </trkpt>
      <trkpt lat="45.90631" lon="4.58604">
        <ele>289</ele>
        <time>2014-04-19T13:15:45.000Z</time>
      </trkpt>
      <trkpt lat="45.90619" lon="4.58597">
        <ele>288.79998779297</ele>
        <time>2014-04-19T13:15:52.000Z</time>
      </trkpt>
      <trkpt lat="45.90607" lon="4.5859">
        <ele>288.39999389648</ele>
        <time>2014-04-19T13:15:59.000Z</time>
      </trkpt>
      <trkpt lat="45.90597" lon="4.58586">
        <ele>288</ele>
        <time>2014-04-19T13:16:06.000Z</time>
      </trkpt>
      <trkpt lat="45.90583" lon="4.58582">
        <ele>287.20001220703</ele>
        <time>2014-04-19T13:16:17.000Z</time>
      </trkpt>
      <trkpt lat="45.90572" lon="4.58573">
        <ele>286.79998779297</ele>
        <time>2014-04-19T13:16:24.000Z</time>
      </trkpt>
      <trkpt lat="45.90565" lon="4.58562">
        <ele>286.20001220703</ele>
        <time>2014-04-19T13:16:30.000Z</time>
      </trkpt>
      <trkpt lat="45.90559" lon="4.58554">
        <ele>285.79998779297</ele>
        <time>2014-04-19T13:16:36.000Z</time>
      </trkpt>
      <trkpt lat="45.90553" lon="4.58545">
        <ele>285.39999389648</ele>
        <time>2014-04-19T13:16:43.000Z</time>
      </trkpt>
      <trkpt lat="45.9055" lon="4.58542">
        <ele>285.20001220703</ele>
        <time>2014-04-19T13:16:46.000Z</time>
      </trkpt>
      <trkpt lat="45.90549" lon="4.58541">
        <ele>285.20001220703</ele>
        <time>2014-04-19T13:16:47.000Z</time>
      </trkpt>
      <trkpt lat="45.90549" lon="4.58538">
        <ele>285</ele>
        <time>2014-04-19T13:16:51.000Z</time>
      </trkpt>
      <trkpt lat="45.90559" lon="4.58526">
        <ele>284.60000610352</ele>
        <time>2014-04-19T13:17:05.000Z</time>
      </trkpt>
      <trkpt lat="45.90573" lon="4.58517">
        <ele>284.60000610352</ele>
        <time>2014-04-19T13:17:11.000Z</time>
      </trkpt>
      <trkpt lat="45.90591" lon="4.5851">
        <ele>284.79998779297</ele>
        <time>2014-04-19T13:17:15.000Z</time>
      </trkpt>
      <trkpt lat="45.9062" lon="4.585">
        <ele>285.79998779297</ele>
        <time>2014-04-19T13:17:22.000Z</time>
      </trkpt>
      <trkpt lat="45.9063" lon="4.58497">
        <ele>286.79998779297</ele>
        <time>2014-04-19T13:17:27.000Z</time>
      </trkpt>
      <trkpt lat="45.9064" lon="4.58493">
        <ele>288</ele>
        <time>2014-04-19T13:17:35.000Z</time>
      </trkpt>
      <trkpt lat="45.90653" lon="4.58488">
        <ele>288.79998779297</ele>
        <time>2014-04-19T13:17:43.000Z</time>
      </trkpt>
      <trkpt lat="45.90665" lon="4.58485">
        <ele>289.79998779297</ele>
        <time>2014-04-19T13:17:51.000Z</time>
      </trkpt>
      <trkpt lat="45.90674" lon="4.58482">
        <ele>290.39999389648</ele>
        <time>2014-04-19T13:17:56.000Z</time>
      </trkpt>
      <trkpt lat="45.90691" lon="4.58474">
        <ele>292</ele>
        <time>2014-04-19T13:18:05.000Z</time>
      </trkpt>
      <trkpt lat="45.90698" lon="4.58469">
        <ele>293.20001220703</ele>
        <time>2014-04-19T13:18:12.000Z</time>
      </trkpt>
      <trkpt lat="45.90704" lon="4.58468">
        <ele>294</ele>
        <time>2014-04-19T13:18:17.000Z</time>
      </trkpt>
      <trkpt lat="45.90708" lon="4.58465">
        <ele>294.60000610352</ele>
        <time>2014-04-19T13:18:20.000Z</time>
      </trkpt>
      <trkpt lat="45.90715" lon="4.58458">
        <ele>296</ele>
        <time>2014-04-19T13:18:27.000Z</time>
      </trkpt>
      <trkpt lat="45.90727" lon="4.5845">
        <ele>297.79998779297</ele>
        <time>2014-04-19T13:18:36.000Z</time>
      </trkpt>
      <trkpt lat="45.90736" lon="4.58443">
        <ele>299.39999389648</ele>
        <time>2014-04-19T13:18:44.000Z</time>
      </trkpt>
      <trkpt lat="45.90743" lon="4.58438">
        <ele>300.79998779297</ele>
        <time>2014-04-19T13:18:50.000Z</time>
      </trkpt>
      <trkpt lat="45.90749" lon="4.58434">
        <ele>301.79998779297</ele>
        <time>2014-04-19T13:18:55.000Z</time>
      </trkpt>
      <trkpt lat="45.90757" lon="4.58426">
        <ele>302.60000610352</ele>
        <time>2014-04-19T13:19:03.000Z</time>
      </trkpt>
      <trkpt lat="45.90771" lon="4.58424">
        <ele>303.39999389648</ele>
        <time>2014-04-19T13:19:08.000Z</time>
      </trkpt>
      <trkpt lat="45.90787" lon="4.58418">
        <ele>304.60000610352</ele>
        <time>2014-04-19T13:19:17.000Z</time>
      </trkpt>
      <trkpt lat="45.90791" lon="4.58416">
        <ele>305</ele>
        <time>2014-04-19T13:19:20.000Z</time>
      </trkpt>
      <trkpt lat="45.90794" lon="4.58413">
        <ele>305.60000610352</ele>
        <time>2014-04-19T13:19:23.000Z</time>
      </trkpt>
      <trkpt lat="45.90806" lon="4.58408">
        <ele>307</ele>
        <time>2014-04-19T13:19:31.000Z</time>
      </trkpt>
      <trkpt lat="45.90821" lon="4.58403">
        <ele>308.20001220703</ele>
        <time>2014-04-19T13:19:38.000Z</time>
      </trkpt>
      <trkpt lat="45.90829" lon="4.58399">
        <ele>309.60000610352</ele>
        <time>2014-04-19T13:19:45.000Z</time>
      </trkpt>
      <trkpt lat="45.90835" lon="4.58393">
        <ele>310.60000610352</ele>
        <time>2014-04-19T13:19:51.000Z</time>
      </trkpt>
      <trkpt lat="45.90834" lon="4.58389">
        <ele>311</ele>
        <time>2014-04-19T13:19:53.000Z</time>
      </trkpt>
      <trkpt lat="45.90836" lon="4.58383">
        <ele>311.20001220703</ele>
        <time>2014-04-19T13:19:57.000Z</time>
      </trkpt>
      <trkpt lat="45.90838" lon="4.58371">
        <ele>311.79998779297</ele>
        <time>2014-04-19T13:20:04.000Z</time>
      </trkpt>
      <trkpt lat="45.90839" lon="4.58368">
        <ele>311.79998779297</ele>
        <time>2014-04-19T13:20:06.000Z</time>
      </trkpt>
      <trkpt lat="45.9084" lon="4.5836">
        <ele>312</ele>
        <time>2014-04-19T13:20:10.000Z</time>
      </trkpt>
      <trkpt lat="45.90844" lon="4.58347">
        <ele>312.39999389648</ele>
        <time>2014-04-19T13:20:18.000Z</time>
      </trkpt>
      <trkpt lat="45.90847" lon="4.58343">
        <ele>312.39999389648</ele>
        <time>2014-04-19T13:20:22.000Z</time>
      </trkpt>
      <trkpt lat="45.90849" lon="4.5834">
        <ele>312.20001220703</ele>
        <time>2014-04-19T13:20:24.000Z</time>
      </trkpt>
      <trkpt lat="45.90853" lon="4.58334">
        <ele>312.20001220703</ele>
        <time>2014-04-19T13:20:30.000Z</time>
      </trkpt>
      <trkpt lat="45.90854" lon="4.58333">
        <ele>312.20001220703</ele>
        <time>2014-04-19T13:20:31.000Z</time>
      </trkpt>
      <trkpt lat="45.90863" lon="4.58322">
        <ele>312.20001220703</ele>
        <time>2014-04-19T13:20:40.000Z</time>
      </trkpt>
      <trkpt lat="45.90872" lon="4.5831">
        <ele>312.20001220703</ele>
        <time>2014-04-19T13:20:48.000Z</time>
      </trkpt>
      <trkpt lat="45.90885" lon="4.583">
        <ele>312.79998779297</ele>
        <time>2014-04-19T13:20:56.000Z</time>
      </trkpt>
      <trkpt lat="45.90894" lon="4.58293">
        <ele>313.39999389648</ele>
        <time>2014-04-19T13:21:04.000Z</time>
      </trkpt>
      <trkpt lat="45.909" lon="4.58289">
        <ele>314</ele>
        <time>2014-04-19T13:21:11.000Z</time>
      </trkpt>
      <trkpt lat="45.90911" lon="4.58274">
        <ele>314.79998779297</ele>
        <time>2014-04-19T13:21:29.000Z</time>
      </trkpt>
      <trkpt lat="45.90916" lon="4.58265">
        <ele>315</ele>
        <time>2014-04-19T13:21:36.000Z</time>
      </trkpt>
      <trkpt lat="45.90915" lon="4.58262">
        <ele>315.20001220703</ele>
        <time>2014-04-19T13:21:38.000Z</time>
      </trkpt>
      <trkpt lat="45.90914" lon="4.58255">
        <ele>315.20001220703</ele>
        <time>2014-04-19T13:21:42.000Z</time>
      </trkpt>
      <trkpt lat="45.90914" lon="4.58251">
        <ele>315.20001220703</ele>
        <time>2014-04-19T13:21:45.000Z</time>
      </trkpt>
      <trkpt lat="45.90912" lon="4.58238">
        <ele>315</ele>
        <time>2014-04-19T13:21:53.000Z</time>
      </trkpt>
      <trkpt lat="45.9091" lon="4.58227">
        <ele>314.60000610352</ele>
        <time>2014-04-19T13:22:01.000Z</time>
      </trkpt>
      <trkpt lat="45.90908" lon="4.58217">
        <ele>314.20001220703</ele>
        <time>2014-04-19T13:22:09.000Z</time>
      </trkpt>
      <trkpt lat="45.90908" lon="4.58214">
        <ele>314</ele>
        <time>2014-04-19T13:22:11.000Z</time>
      </trkpt>
      <trkpt lat="45.90907" lon="4.58205">
        <ele>313.79998779297</ele>
        <time>2014-04-19T13:22:16.000Z</time>
      </trkpt>
      <trkpt lat="45.90906" lon="4.58201">
        <ele>313.79998779297</ele>
        <time>2014-04-19T13:22:19.000Z</time>
      </trkpt>
      <trkpt lat="45.90905" lon="4.58196">
        <ele>313.60000610352</ele>
        <time>2014-04-19T13:22:23.000Z</time>
      </trkpt>
      <trkpt lat="45.90906" lon="4.58184">
        <ele>313.20001220703</ele>
        <time>2014-04-19T13:22:32.000Z</time>
      </trkpt>
      <trkpt lat="45.90909" lon="4.5817">
        <ele>312.60000610352</ele>
        <time>2014-04-19T13:22:41.000Z</time>
      </trkpt>
      <trkpt lat="45.9091" lon="4.58155">
        <ele>311.79998779297</ele>
        <time>2014-04-19T13:22:51.000Z</time>
      </trkpt>
      <trkpt lat="45.90907" lon="4.58138">
        <ele>311.20001220703</ele>
        <time>2014-04-19T13:23:00.000Z</time>
      </trkpt>
      <trkpt lat="45.90909" lon="4.5813">
        <ele>310.79998779297</ele>
        <time>2014-04-19T13:23:08.000Z</time>
      </trkpt>
      <trkpt lat="45.90909" lon="4.5811">
        <ele>310</ele>
        <time>2014-04-19T13:23:22.000Z</time>
      </trkpt>
      <trkpt lat="45.90909" lon="4.58104">
        <ele>309.79998779297</ele>
        <time>2014-04-19T13:23:24.000Z</time>
      </trkpt>
      <trkpt lat="45.90909" lon="4.58089">
        <ele>309.20001220703</ele>
        <time>2014-04-19T13:23:32.000Z</time>
      </trkpt>
      <trkpt lat="45.90909" lon="4.58071">
        <ele>308.39999389648</ele>
        <time>2014-04-19T13:23:43.000Z</time>
      </trkpt>
      <trkpt lat="45.90909" lon="4.58055">
        <ele>307.60000610352</ele>
        <time>2014-04-19T13:23:53.000Z</time>
      </trkpt>
      <trkpt lat="45.90909" lon="4.58031">
        <ele>306.39999389648</ele>
        <time>2014-04-19T13:24:06.000Z</time>
      </trkpt>
      <trkpt lat="45.90908" lon="4.5801">
        <ele>305.39999389648</ele>
        <time>2014-04-19T13:24:17.000Z</time>
      </trkpt>
      <trkpt lat="45.90907" lon="4.57991">
        <ele>304</ele>
        <time>2014-04-19T13:24:28.000Z</time>
      </trkpt>
      <trkpt lat="45.90903" lon="4.57978">
        <ele>303.20001220703</ele>
        <time>2014-04-19T13:24:34.000Z</time>
      </trkpt>
      <trkpt lat="45.90899" lon="4.57962">
        <ele>302.20001220703</ele>
        <time>2014-04-19T13:24:42.000Z</time>
      </trkpt>
      <trkpt lat="45.90896" lon="4.57952">
        <ele>301.39999389648</ele>
        <time>2014-04-19T13:24:49.000Z</time>
      </trkpt>
      <trkpt lat="45.90889" lon="4.57937">
        <ele>300.20001220703</ele>
        <time>2014-04-19T13:24:58.000Z</time>
      </trkpt>
      <trkpt lat="45.90882" lon="4.57921">
        <ele>299.39999389648</ele>
        <time>2014-04-19T13:25:05.000Z</time>
      </trkpt>
      <trkpt lat="45.90877" lon="4.57903">
        <ele>298.39999389648</ele>
        <time>2014-04-19T13:25:15.000Z</time>
      </trkpt>
      <trkpt lat="45.90874" lon="4.57887">
        <ele>297.20001220703</ele>
        <time>2014-04-19T13:25:25.000Z</time>
      </trkpt>
      <trkpt lat="45.90872" lon="4.5787">
        <ele>296.39999389648</ele>
        <time>2014-04-19T13:25:32.000Z</time>
      </trkpt>
      <trkpt lat="45.90871" lon="4.57849">
        <ele>295.39999389648</ele>
        <time>2014-04-19T13:25:41.000Z</time>
      </trkpt>
      <trkpt lat="45.9087" lon="4.57834">
        <ele>294.60000610352</ele>
        <time>2014-04-19T13:25:48.000Z</time>
      </trkpt>
      <trkpt lat="45.90869" lon="4.57821">
        <ele>293.39999389648</ele>
        <time>2014-04-19T13:25:57.000Z</time>
      </trkpt>
      <trkpt lat="45.90869" lon="4.57817">
        <ele>293</ele>
        <time>2014-04-19T13:26:00.000Z</time>
      </trkpt>
      <trkpt lat="45.90869" lon="4.57813">
        <ele>292.60000610352</ele>
        <time>2014-04-19T13:26:03.000Z</time>
      </trkpt>
      <trkpt lat="45.90868" lon="4.57811">
        <ele>292.39999389648</ele>
        <time>2014-04-19T13:26:05.000Z</time>
      </trkpt>
      <trkpt lat="45.90867" lon="4.57807">
        <ele>291.79998779297</ele>
        <time>2014-04-19T13:26:08.000Z</time>
      </trkpt>
      <trkpt lat="45.90866" lon="4.57806">
        <ele>291.79998779297</ele>
        <time>2014-04-19T13:26:09.000Z</time>
      </trkpt>
      <trkpt lat="45.90865" lon="4.57802">
        <ele>291.20001220703</ele>
        <time>2014-04-19T13:26:12.000Z</time>
      </trkpt>
      <trkpt lat="45.90864" lon="4.578">
        <ele>291.20001220703</ele>
        <time>2014-04-19T13:26:13.000Z</time>
      </trkpt>
      <trkpt lat="45.9086" lon="4.57794">
        <ele>290.79998779297</ele>
        <time>2014-04-19T13:26:16.000Z</time>
      </trkpt>
      <trkpt lat="45.90856" lon="4.57784">
        <ele>290</ele>
        <time>2014-04-19T13:26:22.000Z</time>
      </trkpt>
      <trkpt lat="45.90855" lon="4.57779">
        <ele>289.60000610352</ele>
        <time>2014-04-19T13:26:26.000Z</time>
      </trkpt>
      <trkpt lat="45.90853" lon="4.57774">
        <ele>289.39999389648</ele>
        <time>2014-04-19T13:26:28.000Z</time>
      </trkpt>
      <trkpt lat="45.90849" lon="4.57764">
        <ele>288.60000610352</ele>
        <time>2014-04-19T13:26:35.000Z</time>
      </trkpt>
      <trkpt lat="45.90843" lon="4.57752">
        <ele>288</ele>
        <time>2014-04-19T13:26:41.000Z</time>
      </trkpt>
      <trkpt lat="45.90835" lon="4.57739">
        <ele>287.20001220703</ele>
        <time>2014-04-19T13:26:47.000Z</time>
      </trkpt>
      <trkpt lat="45.90826" lon="4.57724">
        <ele>286.39999389648</ele>
        <time>2014-04-19T13:26:55.000Z</time>
      </trkpt>
      <trkpt lat="45.90822" lon="4.57711">
        <ele>285.60000610352</ele>
        <time>2014-04-19T13:27:01.000Z</time>
      </trkpt>
      <trkpt lat="45.90818" lon="4.57698">
        <ele>284.79998779297</ele>
        <time>2014-04-19T13:27:07.000Z</time>
      </trkpt>
      <trkpt lat="45.90812" lon="4.57685">
        <ele>284</ele>
        <time>2014-04-19T13:27:13.000Z</time>
      </trkpt>
      <trkpt lat="45.90807" lon="4.57672">
        <ele>283.39999389648</ele>
        <time>2014-04-19T13:27:19.000Z</time>
      </trkpt>
      <trkpt lat="45.90805" lon="4.57665">
        <ele>282.79998779297</ele>
        <time>2014-04-19T13:27:24.000Z</time>
      </trkpt>
      <trkpt lat="45.90805" lon="4.57662">
        <ele>282.60000610352</ele>
        <time>2014-04-19T13:27:26.000Z</time>
      </trkpt>
      <trkpt lat="45.90801" lon="4.57646">
        <ele>281.39999389648</ele>
        <time>2014-04-19T13:27:35.000Z</time>
      </trkpt>
      <trkpt lat="45.90794" lon="4.57627">
        <ele>280.20001220703</ele>
        <time>2014-04-19T13:27:45.000Z</time>
      </trkpt>
      <trkpt lat="45.90793" lon="4.57622">
        <ele>280</ele>
        <time>2014-04-19T13:27:48.000Z</time>
      </trkpt>
      <trkpt lat="45.90792" lon="4.57617">
        <ele>279.60000610352</ele>
        <time>2014-04-19T13:27:51.000Z</time>
      </trkpt>
      <trkpt lat="45.9079" lon="4.57607">
        <ele>279</ele>
        <time>2014-04-19T13:27:57.000Z</time>
      </trkpt>
      <trkpt lat="45.90789" lon="4.576">
        <ele>278.60000610352</ele>
        <time>2014-04-19T13:28:01.000Z</time>
      </trkpt>
      <trkpt lat="45.90786" lon="4.57588">
        <ele>277.79998779297</ele>
        <time>2014-04-19T13:28:09.000Z</time>
      </trkpt>
      <trkpt lat="45.90786" lon="4.57587">
        <ele>277.79998779297</ele>
        <time>2014-04-19T13:28:10.000Z</time>
      </trkpt>
      <trkpt lat="45.90784" lon="4.5758">
        <ele>277.39999389648</ele>
        <time>2014-04-19T13:28:14.000Z</time>
      </trkpt>
      <trkpt lat="45.90783" lon="4.57578">
        <ele>277.20001220703</ele>
        <time>2014-04-19T13:28:15.000Z</time>
      </trkpt>
      <trkpt lat="45.90783" lon="4.57576">
        <ele>277.20001220703</ele>
        <time>2014-04-19T13:28:16.000Z</time>
      </trkpt>
      <trkpt lat="45.90778" lon="4.57562">
        <ele>276.20001220703</ele>
        <time>2014-04-19T13:28:24.000Z</time>
      </trkpt>
      <trkpt lat="45.9077" lon="4.5755">
        <ele>274.79998779297</ele>
        <time>2014-04-19T13:28:33.000Z</time>
      </trkpt>
      <trkpt lat="45.90763" lon="4.57536">
        <ele>273.60000610352</ele>
        <time>2014-04-19T13:28:42.000Z</time>
      </trkpt>
      <trkpt lat="45.90759" lon="4.57523">
        <ele>272.39999389648</ele>
        <time>2014-04-19T13:28:50.000Z</time>
      </trkpt>
      <trkpt lat="45.90756" lon="4.57505">
        <ele>271.39999389648</ele>
        <time>2014-04-19T13:28:58.000Z</time>
      </trkpt>
      <trkpt lat="45.90755" lon="4.57502">
        <ele>271.20001220703</ele>
        <time>2014-04-19T13:29:00.000Z</time>
      </trkpt>
      <trkpt lat="45.90756" lon="4.57497">
        <ele>270.60000610352</ele>
        <time>2014-04-19T13:29:04.000Z</time>
      </trkpt>
      <trkpt lat="45.90756" lon="4.57482">
        <ele>269.39999389648</ele>
        <time>2014-04-19T13:29:13.000Z</time>
      </trkpt>
      <trkpt lat="45.90754" lon="4.57476">
        <ele>268.60000610352</ele>
        <time>2014-04-19T13:29:19.000Z</time>
      </trkpt>
      <trkpt lat="45.90754" lon="4.57474">
        <ele>268.39999389648</ele>
        <time>2014-04-19T13:29:21.000Z</time>
      </trkpt>
      <trkpt lat="45.90753" lon="4.57472">
        <ele>268</ele>
        <time>2014-04-19T13:29:24.000Z</time>
      </trkpt>
      <trkpt lat="45.90753" lon="4.5747">
        <ele>267.79998779297</ele>
        <time>2014-04-19T13:29:26.000Z</time>
      </trkpt>
      <trkpt lat="45.90754" lon="4.57463">
        <ele>266.79998779297</ele>
        <time>2014-04-19T13:29:33.000Z</time>
      </trkpt>
      <trkpt lat="45.90753" lon="4.57462">
        <ele>266.60000610352</ele>
        <time>2014-04-19T13:29:36.000Z</time>
      </trkpt>
      <trkpt lat="45.9073" lon="4.57411">
        <ele>257.60000610352</ele>
        <time>2014-04-19T13:31:12.000Z</time>
      </trkpt>
      <trkpt lat="45.90729" lon="4.57406">
        <ele>257.39999389648</ele>
        <time>2014-04-19T13:31:15.000Z</time>
      </trkpt>
      <trkpt lat="45.90727" lon="4.574">
        <ele>257</ele>
        <time>2014-04-19T13:31:19.000Z</time>
      </trkpt>
      <trkpt lat="45.90725" lon="4.57396">
        <ele>256.79998779297</ele>
        <time>2014-04-19T13:31:22.000Z</time>
      </trkpt>
      <trkpt lat="45.90717" lon="4.57394">
        <ele>256.60000610352</ele>
        <time>2014-04-19T13:31:29.000Z</time>
      </trkpt>
      <trkpt lat="45.90711" lon="4.57395">
        <ele>256</ele>
        <time>2014-04-19T13:31:37.000Z</time>
      </trkpt>
      <trkpt lat="45.907" lon="4.57395">
        <ele>255.39999389648</ele>
        <time>2014-04-19T13:31:46.000Z</time>
      </trkpt>
      <trkpt lat="45.90691" lon="4.57388">
        <ele>255</ele>
        <time>2014-04-19T13:31:54.000Z</time>
      </trkpt>
      <trkpt lat="45.90681" lon="4.57378">
        <ele>254.39999389648</ele>
        <time>2014-04-19T13:32:05.000Z</time>
      </trkpt>
      <trkpt lat="45.90673" lon="4.5737">
        <ele>254</ele>
        <time>2014-04-19T13:32:13.000Z</time>
      </trkpt>
      <trkpt lat="45.9067" lon="4.57366">
        <ele>253.80000305176</ele>
        <time>2014-04-19T13:32:17.000Z</time>
      </trkpt>
      <trkpt lat="45.90667" lon="4.57364">
        <ele>253.80000305176</ele>
        <time>2014-04-19T13:32:21.000Z</time>
      </trkpt>
      <trkpt lat="45.90658" lon="4.57361">
        <ele>253.39999389648</ele>
        <time>2014-04-19T13:32:29.000Z</time>
      </trkpt>
      <trkpt lat="45.90646" lon="4.57353">
        <ele>252.80000305176</ele>
        <time>2014-04-19T13:32:39.000Z</time>
      </trkpt>
      <trkpt lat="45.90635" lon="4.57344">
        <ele>252.60000610352</ele>
        <time>2014-04-19T13:32:49.000Z</time>
      </trkpt>
      <trkpt lat="45.9063" lon="4.57339">
        <ele>252.19999694824</ele>
        <time>2014-04-19T13:32:54.000Z</time>
      </trkpt>
      <trkpt lat="45.90628" lon="4.57334">
        <ele>252</ele>
        <time>2014-04-19T13:32:58.000Z</time>
      </trkpt>
      <trkpt lat="45.90626" lon="4.57329">
        <ele>252</ele>
        <time>2014-04-19T13:33:01.000Z</time>
      </trkpt>
      <trkpt lat="45.90623" lon="4.57325">
        <ele>252</ele>
        <time>2014-04-19T13:33:06.000Z</time>
      </trkpt>
      <trkpt lat="45.90616" lon="4.57317">
        <ele>251.80000305176</ele>
        <time>2014-04-19T13:33:13.000Z</time>
      </trkpt>
      <trkpt lat="45.90612" lon="4.57309">
        <ele>251.60000610352</ele>
        <time>2014-04-19T13:33:19.000Z</time>
      </trkpt>
      <trkpt lat="45.90608" lon="4.57298">
        <ele>251.39999389648</ele>
        <time>2014-04-19T13:33:26.000Z</time>
      </trkpt>
      <trkpt lat="45.90607" lon="4.5729">
        <ele>251.19999694824</ele>
        <time>2014-04-19T13:33:32.000Z</time>
      </trkpt>
      <trkpt lat="45.90606" lon="4.57287">
        <ele>251.19999694824</ele>
        <time>2014-04-19T13:33:34.000Z</time>
      </trkpt>
      <trkpt lat="45.90606" lon="4.57286">
        <ele>251.19999694824</ele>
        <time>2014-04-19T13:33:36.000Z</time>
      </trkpt>
      <trkpt lat="45.906" lon="4.57275">
        <ele>253.39999389648</ele>
        <time>2014-04-19T13:35:12.000Z</time>
      </trkpt>
      <trkpt lat="45.90596" lon="4.57267">
        <ele>254</ele>
        <time>2014-04-19T13:35:18.000Z</time>
      </trkpt>
      <trkpt lat="45.90594" lon="4.57265">
        <ele>254.39999389648</ele>
        <time>2014-04-19T13:35:20.000Z</time>
      </trkpt>
      <trkpt lat="45.90591" lon="4.57258">
        <ele>254.60000610352</ele>
        <time>2014-04-19T13:35:24.000Z</time>
      </trkpt>
      <trkpt lat="45.90589" lon="4.57255">
        <ele>255</ele>
        <time>2014-04-19T13:35:26.000Z</time>
      </trkpt>
      <trkpt lat="45.90584" lon="4.57246">
        <ele>255.80000305176</ele>
        <time>2014-04-19T13:35:32.000Z</time>
      </trkpt>
      <trkpt lat="45.90584" lon="4.57236">
        <ele>256.79998779297</ele>
        <time>2014-04-19T13:35:38.000Z</time>
      </trkpt>
      <trkpt lat="45.9059" lon="4.57231">
        <ele>257.79998779297</ele>
        <time>2014-04-19T13:35:44.000Z</time>
      </trkpt>
      <trkpt lat="45.90594" lon="4.57232">
        <ele>258.60000610352</ele>
        <time>2014-04-19T13:35:50.000Z</time>
      </trkpt>
      <trkpt lat="45.90607" lon="4.57234">
        <ele>260.60000610352</ele>
        <time>2014-04-19T13:36:18.000Z</time>
      </trkpt>
      <trkpt lat="45.90616" lon="4.57238">
        <ele>261</ele>
        <time>2014-04-19T13:36:26.000Z</time>
      </trkpt>
      <trkpt lat="45.90628" lon="4.57244">
        <ele>261</ele>
        <time>2014-04-19T13:36:31.000Z</time>
      </trkpt>
      <trkpt lat="45.90643" lon="4.57242">
        <ele>261.60000610352</ele>
        <time>2014-04-19T13:36:37.000Z</time>
      </trkpt>
      <trkpt lat="45.90644" lon="4.5724">
        <ele>261.79998779297</ele>
        <time>2014-04-19T13:36:38.000Z</time>
      </trkpt>
      <trkpt lat="45.90647" lon="4.57233">
        <ele>262</ele>
        <time>2014-04-19T13:36:42.000Z</time>
      </trkpt>
      <trkpt lat="45.90647" lon="4.57231">
        <ele>262.39999389648</ele>
        <time>2014-04-19T13:36:45.000Z</time>
      </trkpt>
      <trkpt lat="45.90654" lon="4.57209">
        <ele>266.60000610352</ele>
        <time>2014-04-19T13:37:18.000Z</time>
      </trkpt>
      <trkpt lat="45.90655" lon="4.57207">
        <ele>266.79998779297</ele>
        <time>2014-04-19T13:37:19.000Z</time>
      </trkpt>
      <trkpt lat="45.90657" lon="4.57193">
        <ele>267.60000610352</ele>
        <time>2014-04-19T13:37:27.000Z</time>
      </trkpt>
      <trkpt lat="45.90656" lon="4.5719">
        <ele>267.79998779297</ele>
        <time>2014-04-19T13:37:29.000Z</time>
      </trkpt>
      <trkpt lat="45.90656" lon="4.57185">
        <ele>268.20001220703</ele>
        <time>2014-04-19T13:37:33.000Z</time>
      </trkpt>
      <trkpt lat="45.90656" lon="4.57182">
        <ele>268.20001220703</ele>
        <time>2014-04-19T13:37:35.000Z</time>
      </trkpt>
      <trkpt lat="45.90654" lon="4.57168">
        <ele>269.20001220703</ele>
        <time>2014-04-19T13:37:42.000Z</time>
      </trkpt>
      <trkpt lat="45.9065" lon="4.57154">
        <ele>270.60000610352</ele>
        <time>2014-04-19T13:37:50.000Z</time>
      </trkpt>
      <trkpt lat="45.90649" lon="4.57142">
        <ele>271.79998779297</ele>
        <time>2014-04-19T13:37:56.000Z</time>
      </trkpt>
      <trkpt lat="45.90649" lon="4.57139">
        <ele>272</ele>
        <time>2014-04-19T13:37:57.000Z</time>
      </trkpt>
      <trkpt lat="45.90648" lon="4.57128">
        <ele>273</ele>
        <time>2014-04-19T13:38:01.000Z</time>
      </trkpt>
      <trkpt lat="45.90647" lon="4.57125">
        <ele>273.20001220703</ele>
        <time>2014-04-19T13:38:02.000Z</time>
      </trkpt>
      <trkpt lat="45.90645" lon="4.57112">
        <ele>274.20001220703</ele>
        <time>2014-04-19T13:38:08.000Z</time>
      </trkpt>
      <trkpt lat="45.90644" lon="4.57098">
        <ele>275.39999389648</ele>
        <time>2014-04-19T13:38:15.000Z</time>
      </trkpt>
      <trkpt lat="45.90642" lon="4.57088">
        <ele>276.60000610352</ele>
        <time>2014-04-19T13:38:21.000Z</time>
      </trkpt>
      <trkpt lat="45.90642" lon="4.57072">
        <ele>278.20001220703</ele>
        <time>2014-04-19T13:38:29.000Z</time>
      </trkpt>
      <trkpt lat="45.90645" lon="4.57055">
        <ele>279.60000610352</ele>
        <time>2014-04-19T13:38:38.000Z</time>
      </trkpt>
      <trkpt lat="45.90649" lon="4.57037">
        <ele>280.20001220703</ele>
        <time>2014-04-19T13:38:43.000Z</time>
      </trkpt>
      <trkpt lat="45.90656" lon="4.57019">
        <ele>280.79998779297</ele>
        <time>2014-04-19T13:38:49.000Z</time>
      </trkpt>
      <trkpt lat="45.9066" lon="4.57007">
        <ele>281.20001220703</ele>
        <time>2014-04-19T13:38:56.000Z</time>
      </trkpt>
      <trkpt lat="45.90661" lon="4.57005">
        <ele>281.39999389648</ele>
        <time>2014-04-19T13:38:57.000Z</time>
      </trkpt>
      <trkpt lat="45.9066" lon="4.56994">
        <ele>281.60000610352</ele>
        <time>2014-04-19T13:39:01.000Z</time>
      </trkpt>
      <trkpt lat="45.9066" lon="4.56991">
        <ele>281.79998779297</ele>
        <time>2014-04-19T13:39:02.000Z</time>
      </trkpt>
      <trkpt lat="45.90658" lon="4.5698">
        <ele>282.39999389648</ele>
        <time>2014-04-19T13:39:07.000Z</time>
      </trkpt>
      <trkpt lat="45.90657" lon="4.56968">
        <ele>283.20001220703</ele>
        <time>2014-04-19T13:39:13.000Z</time>
      </trkpt>
      <trkpt lat="45.90656" lon="4.56965">
        <ele>283.39999389648</ele>
        <time>2014-04-19T13:39:15.000Z</time>
      </trkpt>
      <trkpt lat="45.90656" lon="4.56953">
        <ele>284</ele>
        <time>2014-04-19T13:39:21.000Z</time>
      </trkpt>
      <trkpt lat="45.90655" lon="4.56949">
        <ele>284.39999389648</ele>
        <time>2014-04-19T13:39:23.000Z</time>
      </trkpt>
      <trkpt lat="45.90655" lon="4.56933">
        <ele>285.39999389648</ele>
        <time>2014-04-19T13:39:31.000Z</time>
      </trkpt>
      <trkpt lat="45.90654" lon="4.56916">
        <ele>286.20001220703</ele>
        <time>2014-04-19T13:39:40.000Z</time>
      </trkpt>
      <trkpt lat="45.90653" lon="4.56897">
        <ele>287.39999389648</ele>
        <time>2014-04-19T13:39:50.000Z</time>
      </trkpt>
      <trkpt lat="45.90652" lon="4.56895">
        <ele>287.60000610352</ele>
        <time>2014-04-19T13:39:54.000Z</time>
      </trkpt>
      <trkpt lat="45.90651" lon="4.56854">
        <ele>291.39999389648</ele>
        <time>2014-04-19T13:40:40.000Z</time>
      </trkpt>
      <trkpt lat="45.90651" lon="4.56852">
        <ele>291.39999389648</ele>
        <time>2014-04-19T13:40:41.000Z</time>
      </trkpt>
      <trkpt lat="45.90651" lon="4.5683">
        <ele>292</ele>
        <time>2014-04-19T13:40:53.000Z</time>
      </trkpt>
      <trkpt lat="45.90648" lon="4.56811">
        <ele>292.60000610352</ele>
        <time>2014-04-19T13:41:03.000Z</time>
      </trkpt>
      <trkpt lat="45.90646" lon="4.56799">
        <ele>293</ele>
        <time>2014-04-19T13:41:11.000Z</time>
      </trkpt>
      <trkpt lat="45.90643" lon="4.5678">
        <ele>293.60000610352</ele>
        <time>2014-04-19T13:41:20.000Z</time>
      </trkpt>
      <trkpt lat="45.90642" lon="4.56767">
        <ele>294.39999389648</ele>
        <time>2014-04-19T13:41:28.000Z</time>
      </trkpt>
      <trkpt lat="45.90641" lon="4.56756">
        <ele>295</ele>
        <time>2014-04-19T13:41:35.000Z</time>
      </trkpt>
      <trkpt lat="45.9064" lon="4.56746">
        <ele>295.20001220703</ele>
        <time>2014-04-19T13:41:42.000Z</time>
      </trkpt>
      <trkpt lat="45.90639" lon="4.56733">
        <ele>295.60000610352</ele>
        <time>2014-04-19T13:41:50.000Z</time>
      </trkpt>
      <trkpt lat="45.90637" lon="4.5672">
        <ele>296.20001220703</ele>
        <time>2014-04-19T13:41:58.000Z</time>
      </trkpt>
      <trkpt lat="45.90636" lon="4.56701">
        <ele>296.79998779297</ele>
        <time>2014-04-19T13:42:09.000Z</time>
      </trkpt>
      <trkpt lat="45.90636" lon="4.56695">
        <ele>297.20001220703</ele>
        <time>2014-04-19T13:42:13.000Z</time>
      </trkpt>
      <trkpt lat="45.90637" lon="4.5669">
        <ele>297.39999389648</ele>
        <time>2014-04-19T13:42:16.000Z</time>
      </trkpt>
      <trkpt lat="45.90637" lon="4.56676">
        <ele>298</ele>
        <time>2014-04-19T13:42:25.000Z</time>
      </trkpt>
      <trkpt lat="45.90634" lon="4.56664">
        <ele>298.60000610352</ele>
        <time>2014-04-19T13:42:33.000Z</time>
      </trkpt>
      <trkpt lat="45.90629" lon="4.56646">
        <ele>299.60000610352</ele>
        <time>2014-04-19T13:42:42.000Z</time>
      </trkpt>
      <trkpt lat="45.90628" lon="4.56637">
        <ele>300</ele>
        <time>2014-04-19T13:42:47.000Z</time>
      </trkpt>
      <trkpt lat="45.90627" lon="4.56622">
        <ele>300.79998779297</ele>
        <time>2014-04-19T13:42:57.000Z</time>
      </trkpt>
      <trkpt lat="45.90622" lon="4.56611">
        <ele>301.20001220703</ele>
        <time>2014-04-19T13:43:05.000Z</time>
      </trkpt>
      <trkpt lat="45.90616" lon="4.56597">
        <ele>301.60000610352</ele>
        <time>2014-04-19T13:43:15.000Z</time>
      </trkpt>
      <trkpt lat="45.9061" lon="4.5658">
        <ele>301.79998779297</ele>
        <time>2014-04-19T13:43:25.000Z</time>
      </trkpt>
      <trkpt lat="45.90605" lon="4.56567">
        <ele>302</ele>
        <time>2014-04-19T13:43:31.000Z</time>
      </trkpt>
      <trkpt lat="45.90602" lon="4.5656">
        <ele>302.20001220703</ele>
        <time>2014-04-19T13:43:34.000Z</time>
      </trkpt>
      <trkpt lat="45.906" lon="4.56554">
        <ele>302.39999389648</ele>
        <time>2014-04-19T13:43:36.000Z</time>
      </trkpt>
      <trkpt lat="45.90594" lon="4.56543">
        <ele>302.79998779297</ele>
        <time>2014-04-19T13:43:39.000Z</time>
      </trkpt>
      <trkpt lat="45.90593" lon="4.5654">
        <ele>303</ele>
        <time>2014-04-19T13:43:40.000Z</time>
      </trkpt>
      <trkpt lat="45.90583" lon="4.56531">
        <ele>303.60000610352</ele>
        <time>2014-04-19T13:43:45.000Z</time>
      </trkpt>
      <trkpt lat="45.90571" lon="4.56528">
        <ele>304.39999389648</ele>
        <time>2014-04-19T13:43:51.000Z</time>
      </trkpt>
      <trkpt lat="45.90559" lon="4.56526">
        <ele>305.20001220703</ele>
        <time>2014-04-19T13:43:57.000Z</time>
      </trkpt>
      <trkpt lat="45.90544" lon="4.56521">
        <ele>306.20001220703</ele>
        <time>2014-04-19T13:44:08.000Z</time>
      </trkpt>
      <trkpt lat="45.90532" lon="4.56517">
        <ele>306.79998779297</ele>
        <time>2014-04-19T13:44:15.000Z</time>
      </trkpt>
      <trkpt lat="45.90515" lon="4.56512">
        <ele>307.79998779297</ele>
        <time>2014-04-19T13:44:27.000Z</time>
      </trkpt>
      <trkpt lat="45.90501" lon="4.56508">
        <ele>308.79998779297</ele>
        <time>2014-04-19T13:44:38.000Z</time>
      </trkpt>
      <trkpt lat="45.90497" lon="4.56507">
        <ele>309</ele>
        <time>2014-04-19T13:44:41.000Z</time>
      </trkpt>
      <trkpt lat="45.9049" lon="4.56505">
        <ele>309.39999389648</ele>
        <time>2014-04-19T13:44:47.000Z</time>
      </trkpt>
      <trkpt lat="45.90482" lon="4.56503">
        <ele>309.79998779297</ele>
        <time>2014-04-19T13:44:54.000Z</time>
      </trkpt>
      <trkpt lat="45.90474" lon="4.56501">
        <ele>310.20001220703</ele>
        <time>2014-04-19T13:45:02.000Z</time>
      </trkpt>
      <trkpt lat="45.90464" lon="4.56498">
        <ele>310.39999389648</ele>
        <time>2014-04-19T13:45:11.000Z</time>
      </trkpt>
      <trkpt lat="45.90453" lon="4.56489">
        <ele>311</ele>
        <time>2014-04-19T13:45:21.000Z</time>
      </trkpt>
      <trkpt lat="45.90446" lon="4.5648">
        <ele>311.39999389648</ele>
        <time>2014-04-19T13:45:28.000Z</time>
      </trkpt>
      <trkpt lat="45.9044" lon="4.56474">
        <ele>311.20001220703</ele>
        <time>2014-04-19T13:45:33.000Z</time>
      </trkpt>
      <trkpt lat="45.90439" lon="4.56472">
        <ele>311.39999389648</ele>
        <time>2014-04-19T13:45:34.000Z</time>
      </trkpt>
      <trkpt lat="45.90432" lon="4.5646">
        <ele>311.60000610352</ele>
        <time>2014-04-19T13:45:42.000Z</time>
      </trkpt>
      <trkpt lat="45.90428" lon="4.56449">
        <ele>312</ele>
        <time>2014-04-19T13:45:50.000Z</time>
      </trkpt>
      <trkpt lat="45.90421" lon="4.56435">
        <ele>312.60000610352</ele>
        <time>2014-04-19T13:45:58.000Z</time>
      </trkpt>
      <trkpt lat="45.90413" lon="4.56424">
        <ele>313.39999389648</ele>
        <time>2014-04-19T13:46:07.000Z</time>
      </trkpt>
      <trkpt lat="45.90405" lon="4.5641">
        <ele>314.20001220703</ele>
        <time>2014-04-19T13:46:15.000Z</time>
      </trkpt>
      <trkpt lat="45.90397" lon="4.56395">
        <ele>314.79998779297</ele>
        <time>2014-04-19T13:46:22.000Z</time>
      </trkpt>
      <trkpt lat="45.9039" lon="4.5638">
        <ele>315.60000610352</ele>
        <time>2014-04-19T13:46:29.000Z</time>
      </trkpt>
      <trkpt lat="45.90386" lon="4.56367">
        <ele>316.20001220703</ele>
        <time>2014-04-19T13:46:35.000Z</time>
      </trkpt>
      <trkpt lat="45.90381" lon="4.5636">
        <ele>316.79998779297</ele>
        <time>2014-04-19T13:46:41.000Z</time>
      </trkpt>
      <trkpt lat="45.90374" lon="4.56349">
        <ele>317.79998779297</ele>
        <time>2014-04-19T13:46:50.000Z</time>
      </trkpt>
      <trkpt lat="45.90361" lon="4.56334">
        <ele>318.39999389648</ele>
        <time>2014-04-19T13:47:03.000Z</time>
      </trkpt>
      <trkpt lat="45.90347" lon="4.56322">
        <ele>319</ele>
        <time>2014-04-19T13:47:14.000Z</time>
      </trkpt>
      <trkpt lat="45.90334" lon="4.56309">
        <ele>319.60000610352</ele>
        <time>2014-04-19T13:47:26.000Z</time>
      </trkpt>
      <trkpt lat="45.90326" lon="4.56291">
        <ele>319.79998779297</ele>
        <time>2014-04-19T13:47:38.000Z</time>
      </trkpt>
      <trkpt lat="45.90322" lon="4.56272">
        <ele>320</ele>
        <time>2014-04-19T13:47:48.000Z</time>
      </trkpt>
      <trkpt lat="45.90321" lon="4.56251">
        <ele>320.20001220703</ele>
        <time>2014-04-19T13:47:59.000Z</time>
      </trkpt>
      <trkpt lat="45.9032" lon="4.56232">
        <ele>320.60000610352</ele>
        <time>2014-04-19T13:48:09.000Z</time>
      </trkpt>
      <trkpt lat="45.90319" lon="4.56213">
        <ele>321</ele>
        <time>2014-04-19T13:48:20.000Z</time>
      </trkpt>
      <trkpt lat="45.90318" lon="4.56188">
        <ele>321.39999389648</ele>
        <time>2014-04-19T13:48:33.000Z</time>
      </trkpt>
      <trkpt lat="45.90317" lon="4.56161">
        <ele>321.60000610352</ele>
        <time>2014-04-19T13:48:47.000Z</time>
      </trkpt>
      <trkpt lat="45.90316" lon="4.5614">
        <ele>321.60000610352</ele>
        <time>2014-04-19T13:48:58.000Z</time>
      </trkpt>
      <trkpt lat="45.90319" lon="4.56119">
        <ele>321.60000610352</ele>
        <time>2014-04-19T13:49:09.000Z</time>
      </trkpt>
      <trkpt lat="45.90326" lon="4.56106">
        <ele>321.39999389648</ele>
        <time>2014-04-19T13:49:17.000Z</time>
      </trkpt>
      <trkpt lat="45.90334" lon="4.56091">
        <ele>321.39999389648</ele>
        <time>2014-04-19T13:49:23.000Z</time>
      </trkpt>
      <trkpt lat="45.90343" lon="4.56075">
        <ele>321.39999389648</ele>
        <time>2014-04-19T13:49:33.000Z</time>
      </trkpt>
      <trkpt lat="45.90348" lon="4.56067">
        <ele>321.20001220703</ele>
        <time>2014-04-19T13:49:39.000Z</time>
      </trkpt>
      <trkpt lat="45.90349" lon="4.56067">
        <ele>321.20001220703</ele>
        <time>2014-04-19T13:49:40.000Z</time>
      </trkpt>
      <trkpt lat="45.90351" lon="4.56065">
        <ele>321.20001220703</ele>
        <time>2014-04-19T13:49:44.000Z</time>
      </trkpt>
      <trkpt lat="45.90351" lon="4.56064">
        <ele>321.20001220703</ele>
        <time>2014-04-19T13:49:45.000Z</time>
      </trkpt>
      <trkpt lat="45.90352" lon="4.56064">
        <ele>321.20001220703</ele>
        <time>2014-04-19T13:49:46.000Z</time>
      </trkpt>
    </trkseg>
  </trk>
</gpx>